     2              OBSERVATION DATA                        RINEX VERSION / TYPE
DAT2RIN 1.01d Dan Johnson 12SEP96 4:29:53 GMT               PGM / RUN BY / DATE
Mojave '96 team Central Washington U                        OBSERVER / AGENCY
15926 TRIMBLE 4000SSI Nav 7.09 Sig 3.03                     REC # / TYPE / VERS
63793 TRIMBLE CHOKE                                         ANT # / TYPE
3188 WONOGA                                                 MARKER NAME
 -2422501.0000 -4530818.0000  3771649.0000                  APPROX POSITION XYZ
        0.0814        0.0000        0.0000                  ANTENNA: DELTA H/E/N
     1     1     0                                          WAVELENGTH FACT L1/2
     5    L1    C1    P1    L2    P2                        # / TYPES OF OBSERV
    30                                                      INTERVAL
  1996     9     7     0     0   30.000000                  TIME OF FIRST OBS
  1996     9     7    23    59    0.000000                  TIME OF LAST OBS
                                                            COMMENT
PANGA GPS Data Analysis Center                              COMMENT
Department of Geology                                       COMMENT
Central Washington University                               COMMENT
Ellensburg, WA 98926                                        COMMENT
                                                            COMMENT
http://www.panga.cwu.edu                                    COMMENT
ftp://panga.cwu.edu                                         COMMENT
                                                            COMMENT
    25                                                      # OF SATELLITES
           1   742   742     0   740   740                  PRN / # OF OBS
           2   844   844     0   842   842                  PRN / # OF OBS
           3   902   903     0   893   893                  PRN / # OF OBS
           4   755   756     0   744   744                  PRN / # OF OBS
           5   713   713     0   696   696                  PRN / # OF OBS
           6   778   780     0   769   769                  PRN / # OF OBS
           7   737   737     0   735   735                  PRN / # OF OBS
           9   866   867     0   856   856                  PRN / # OF OBS
          10   867   868     0   845   845                  PRN / # OF OBS
          14   695   698     0   692   692                  PRN / # OF OBS
          15   869   869     0   863   863                  PRN / # OF OBS
          16   886   887     0   847   847                  PRN / # OF OBS
          17   836   842     0   828   828                  PRN / # OF OBS
          18   764   764     0   748   748                  PRN / # OF OBS
          19   845   846     0   834   834                  PRN / # OF OBS
          21   852   852     0   839   839                  PRN / # OF OBS
          22   881   882     0   851   851                  PRN / # OF OBS
          23   792   792     0   790   790                  PRN / # OF OBS
          24   696   697     0   693   693                  PRN / # OF OBS
          25   645   645     0   641   641                  PRN / # OF OBS
          26   930   930     0   912   912                  PRN / # OF OBS
          27   810   811     0   794   794                  PRN / # OF OBS
          28   695     0   695   695   695                  PRN / # OF OBS
          29   844   844     0   832   832                  PRN / # OF OBS
          31   924   925     0   908   908                  PRN / # OF OBS
                                                            END OF HEADER
 96  9  7  0  0 30.0000000  0  6  1 14 15 21 25 29
  20097585.12910  22503961.43800                  15758739.32450  22503964.73040
  -2396851.68910  23217627.49200                  -1725449.02250  23217631.47740
  -1538745.92410  20854020.47700                  -1134922.10450  20854023.87540
  30738994.31610  23189334.90600                   5484591.04450  23189339.87540
  -4044924.07710  20809159.79700                  -3066380.38750  20809162.29340
  -1502725.95610  23364913.03900                  -1120975.85450  23364916.71940
 96  9  7  0  1  0.0000000  0  6  1 14 15 21 25 29
  20230009.65900  22529160.14800                  15861927.26040  22529163.87540
  -2420890.21200  23213052.37500                  -1744180.30240  23213056.26640
  -1496741.34700  20862013.69500                  -1102191.26840  20862017.30540
  30878884.41300  23215955.00800                   5593596.28040  23215960.07040
  -4003144.34600  20817110.33600                  -3033824.74440  20817112.77340
  -1512503.62400  23363052.41400                  -1128594.77940  23363056.63340
 96  9  7  0  1 30.0000000  0  6  1 14 15 21 25 29
  20362483.07500  22554369.48400                  15965153.27740  22554373.14140
  -2444918.55600  23208479.32800                  -1762903.64340  23208482.17640
  -1454131.60800  20870121.76600                  -1068988.87940  20870125.39840
  31018997.74500  23242618.39100                   5702775.43140  23242623.82840
  -3960842.56000  20825159.77300                  -3000862.31140  20825162.32840
  -1522106.11300  23361225.50800                  -1136077.18540  23361228.88340
 96  9  7  0  2  0.0000000  0  6  1 14 15 21 25 29
  20495061.13800  22579598.43000                  16068460.85640  22579601.75840
  -2468876.46200  23203920.58600                  -1781572.11640  23203924.54740
  -1410871.26900  20878353.74200                  -1035279.52640  20878357.46940
  31159364.49000  23269328.07000                   5812152.08240  23269332.61740
  -3917978.69400  20833316.69500                  -2967461.88340  20833319.22740
  -1531480.18600  23359441.42200                  -1143381.61040  23359444.55140
 96  9  7  0  2 30.0000000  0  6  1 14 15 21 25 29
  20627785.31700  22604855.01600                  16171882.25640  22604858.69540
  -2492735.15300  23199380.49200                  -1800163.26640  23199384.71140
  -1366928.97600  20886716.01600                  -1001038.78340  20886719.64840
  31300003.65900  23296091.79700                   5921741.00540  23296095.57040
  -3874529.33400  20841584.98400                  -2933605.23340  20841587.34040
  -1540594.80900  23357706.03900                  -1150483.86540  23357710.36340
 96  9  7  0  3  0.0000000  0  6  1 14 15 21 25 29
  20760682.83900  22630143.80500                  16275438.75040  22630147.33240
  -2516469.27300  23194863.86700                  -1818657.35740  23194867.60540
  -1322279.62200  20895212.33600                   -966247.08040  20895215.98040
  31440925.30300  23322908.03100                   6031550.03640  23322912.84840
  -3830484.20500  20849966.14100                  -2899284.34040  20849968.67240
  -1549457.68800  23356019.86700                  -1157389.96340  23356023.10240
 96  9  7  0  3 30.0000000  0  6  1 14 15 21 25 29
  20893687.46400  22655454.51600                  16379078.70340  22655457.69140
  -2540129.57800  23190362.05500                  -1837093.92140  23190365.92240
  -1277001.64400  20903828.51600                   -930965.54540  20903832.03140
  31582066.51600  23349766.31300                   6141530.13640  23349770.96540
  -3785931.12900  20858444.52300                  -2864567.64440  20858447.06640
  -1558158.35400  23354363.86700                  -1164169.65040  23354367.00840
 96  9  7  0  4  0.0000000  0  6  1 14 15 21 25 29
  21026746.94800  22680774.79700                  16482761.40540  22680778.03140
  -2563762.14300  23185863.07800                  -1855508.88840  23185867.01640
  -1231143.82300  20912555.10900                   -895232.18540  20912558.68440
  31723396.15800  23376660.64800                   6251657.10140  23376665.86340
  -3740911.65700  20867011.69500                  -2829487.52540  20867013.96940
  -1566741.05200  23352730.97700                  -1170857.43040  23352734.10540
 96  9  7  0  4 30.0000000  0  6  1 14 15 21 25 29
  21159924.74000  22706117.33600                  16586536.29040  22706121.09840
  -2587291.34800  23181387.68800                  -1873843.30440  23181392.18840
  -1184622.50800  20921407.72700                   -858981.81440  20921411.20740
  31865016.52900  23403610.19500                   6362010.57540  23403614.85940
  -3695348.08900  20875682.00800                  -2793983.43240  20875684.43440
  -1575138.61700  23351133.15600                  -1177400.94340  23351136.43840
 96  9  7  0  5  0.0000000  0  6  1 14 15 21 25 29
  21293214.91300  22731482.18800                  16690398.75140  22731485.48040
  -2610722.98800  23176928.62500                  -1892101.68840  23176932.11740
  -1137444.88900  20930385.58600                   -822220.03340  20930389.18440
  32006934.79800  23430616.58600                   6472596.24840  23430620.95740
  -3649240.27400  20884455.97700                  -2758055.25440  20884458.42640
  -1583355.83200  23349570.07800                  -1183803.90640  23349573.51240
 96  9  7  0  5 30.0000000  0  6  1 14 15 21 25 29
  21426591.29700  22756861.80500                  16794328.39040  22756865.57840
  -2634089.19200  23172481.93000                  -1910309.10040  23172484.88340
  -1089630.26200  20939484.21100                   -784961.88140  20939487.76240
  32149130.26500  23457675.08600                   6583397.82940  23457680.44140
  -3602582.07600  20893334.46900                  -2721698.20440  20893336.97740
  -1591387.04500  23348041.57800                  -1190061.93340  23348044.67240
 96  9  7  0  6  0.0000000  0  6  1 14 15 21 25 29
  21560017.89500  22782253.28100                  16898297.15440  22782256.42240
  -2657431.53400  23168039.85900                  -1928497.91640  23168043.45740
  -1041197.10300  20948701.05500                   -747221.76440  20948704.74640
  32291564.57500  23484779.70300                   6694385.52340  23484785.46940
  -3555377.94200  20902317.14100                  -2684915.75740  20902319.61340
  -1599259.26300  23346543.19500                  -1196196.08440  23346547.05140
 96  9  7  0  6 30.0000000  0  6  1 14 15 21 25 29
  21693448.96100  22807644.40600                  17002269.40140  22807647.65240
  -2680792.43300  23163594.44500                  -1946701.19140  23163598.48840
   -992192.14200  20958026.21100                   -709036.07840  20958029.94940
  32434165.90500  23511915.76600                   6805503.40040  23511919.07040
  -3507670.84900  20911395.43800                  -2647741.38540  20911397.79340
  -1607018.12100  23345065.99200                  -1202241.88940  23345069.56640
 96  9  7  0  7  0.0000000  0  6  1 14 15 21 25 29
  21826917.29600  22833041.96900                  17106270.70240  22833045.77740
  -2704141.24600  23159151.68000                  -1964895.04940  23159155.69940
   -942591.04900  20967465.05500                   -670385.87840  20967468.57040
  32576941.78700  23539084.80500                   6916757.32140  23539089.58640
  -3459418.02900  20920578.11700                  -2610141.77040  20920580.46140
  -1614623.37000  23343619.08600                  -1208168.01340  23343622.35540
 96  9  7  0  7 30.0000000  0  6  1 14 15 21 25 29
  21960503.30800  22858462.88300                  17210363.67940  22858466.14140
  -2727377.58900  23154729.32000                  -1983001.27140  23154733.27040
   -892302.32000  20977034.54700                   -631199.85340  20977038.14540
  32719983.56600  23566305.05500                   7028218.39040  23566310.75040
  -3410526.82700  20929881.31300                  -2572044.72540  20929883.83240
  -1621990.98000  23342217.31300                  -1213908.97140  23342220.19540
 96  9  7  0  8  0.0000000  0  6  1 14 15 21 25 29
  22094170.72700  22883898.85200                  17314520.10740  22883902.46140
  -2750520.68000  23150324.48400                  -2001034.82240  23150328.19940
   -841358.44100  20986728.72700                   -591503.31940  20986732.30140
  32863270.14300  23593571.81300                   7139870.16640  23593576.31340
  -3361046.15500  20939297.32800                  -2533488.34540  20939299.77740
  -1629167.24600  23340851.18000                  -1219500.81640  23340854.41440
 96  9  7  0  8 30.0000000  0  6  1 14 15 21 25 29
  22227910.93900  22909349.38300                  17418733.24240  22909352.77040
  -2773570.76300  23145938.37500                  -2018995.91740  23145942.52340
   -789765.36100  20996546.61700                   -551300.91940  20996550.29740
  33006814.05100  23620886.84400                   7251722.54440  23620891.03940
  -3310988.72400  20948822.70300                  -2494482.54740  20948825.21140
  -1636144.38200  23339523.81300                  -1224937.50640  23339527.10540
 96  9  7  0  9  0.0000000  0  6  1 14 15 21 25 29
  22361752.90500  22934817.68000                  17523025.68240  22934821.31340
  -2796513.82400  23141572.53900                  -2036873.59040  23141575.63340
   -737495.73000  21006493.21900                   -510571.33440  21006496.92240
  33150659.92600  23648259.66400                   7363810.20040  23648264.59840
  -3260335.42700  20958462.05500                  -2455012.44040  20958464.36340
  -1642899.90700  23338238.32800                  -1230201.50240  23338242.14840
 96  9  7  0  9 30.0010000  0  6  1 14 15 21 25 29
  22495681.64700  22960303.77100                  17627385.72240  22960307.82540
  -2819372.02000  23137223.79400                  -2054685.15540  23137227.66140
   -684563.82800  21016565.53600                   -469325.69940  21016569.33340
  33294795.33600  23675687.89600                   7476123.43940  23675692.33740
  -3209128.26700  20968206.35600                  -2415110.74240  20968208.73540
  -1649463.38100  23336989.36400                  -1235315.85940  23336992.88040
 96  9  7  0 10  0.0010000  0  6  1 14 15 21 25 29
  22629670.90000  22985800.87200                  17731792.92040  22985804.54040
  -2842181.05400  23132883.34100                  -2072458.41940  23132887.37240
   -630995.17300  21026759.45800                   -427583.89440  21026763.11440
  33439177.69600  23703163.87200                   7588629.10640  23703167.90340
  -3157408.45200  20978048.11400                  -2374809.58040  20978050.55240
  -1655848.24400  23335774.33300                  -1240291.04840  23335777.33340
 96  9  7  0 10 30.0010000  0  6  1 14 15 21 25 29
  22763769.99800  23011319.27100                  17836285.70240  23011323.06740
  -2864910.79100  23128558.72400                  -2090169.86940  23128562.52140
   -576757.15200  21037080.48900                   -385320.49940  21037084.26340
  33583831.63700  23730689.48100                   7701346.42840  23730694.06340
  -3105143.03300  20987993.96600                  -2334083.27540  20987996.32140
  -1662018.60700  23334600.48900                  -1245099.08640  23334603.98140
 96  9  7  0 11  0.0010000  0  6  1 14 15 21 25 29
  22897957.50600  23036854.36400                  17940847.37040  23036857.82140
  -2887592.57100  23124240.79400                  -2107843.96640  23124244.64940
   -521886.74100  21047522.53600                   -342564.34340  21047526.06340
  33728705.92000  23758258.91900                   7814235.43840  23758263.19640
  -3052372.28000  20998035.84900                  -2292963.19740  20998038.29840
  -1668017.02300  23333458.95800                  -1249773.14140  23333462.77840
 96  9  7  0 11 30.0010000  0  6  1 14 15 21 25 29
  23032226.91900  23062405.27100                  18045472.87340  23062408.86840
  -2910205.93700  23119937.88000                  -2125464.75640  23119942.05240
   -466371.13200  21058086.61400                   -299305.42940  21058090.28240
  33873816.80900  23785872.26300                   7927308.81340  23785877.65340
  -2999076.59300  21008177.84900                  -2251434.08840  21008180.15740
  -1673832.07900  23332351.95800                  -1254304.30540  23332355.12240
 96  9  7  0 12  0.0010000  0  6  1 14 15 21 25 29
  23166607.17400  23087976.91900                  18150184.73840  23087980.23540
  -2932708.75600  23115656.34900                  -2142999.39240  23115660.20440
   -410172.00800  21068780.77100                   -255513.91040  21068784.45040
  34019203.90400  23813538.80200                   8040597.39340  23813543.16140
  -2945197.59400  21018430.79400                  -2209450.44040  21018433.39640
  -1679420.49300  23331288.51300                  -1258658.88040  23331291.95840
 96  9  7  0 12 30.0010000  0  6  1 14 15 21 25 29
  23301130.88100  23113576.23900                  18255008.38040  23113580.17740
  -2955040.40800  23111406.74700                  -2160400.67040  23111410.55640
   -353250.95300  21079612.68500                   -211159.84840  21079616.30640
  34164912.69600  23841266.58300                   8154136.65640  23841271.43540
  -2890669.03300  21028807.19200                  -2166960.64640  21028809.48940
  -1684753.72300  23330274.32500                  -1262814.61440  23330277.56040
 96  9  7  0 13  0.0010000  0  6  1 14 15 21 25 29
  23435678.54200  23139178.52800                  18359850.70040  23139182.07940
  -2977297.32700  23107171.08300                  -2177743.71740  23107175.07940
   -295708.20200  21090562.82500                   -166321.34840  21090566.49340
  34310852.71100  23869036.98900                   8267856.09340  23869042.13440
  -2835585.80100  21039289.18500                  -2124038.63940  21039291.51740
  -1689933.19500  23329288.23900                  -1266850.53940  23329290.80640
 96  9  7  0 13 30.0010000  0  6  1 14 15 21 25 29
  23570239.49700  23164785.66100                  18464703.37540  23164789.20040
  -2999481.16600  23102949.33300                  -2195029.79740  23102953.39940
   -237539.73800  21101631.77800                   -120995.27740  21101635.45840
  34457027.44400  23896853.24700                   8381758.45340  23896858.64940
  -2779945.62400  21049877.23100                  -2080682.64840  21049879.45840
  -1694950.48800  23328333.26300                  -1270760.07340  23328337.03640
 96  9  7  0 14  0.0010000  0  6  1 14 15 21 25 29
  23704854.26200  23190401.93500                  18569597.97340  23190405.25140
  -3021566.18300  23098746.52800                  -2212238.87840  23098750.07940
   -178732.65100  21112822.43500                    -75171.58140  21112826.09140
  34603428.36800  23924713.40300                   8495837.05840  23924718.79440
  -2723746.59600  21060571.29400                  -2036891.19140  21060573.62640
  -1699785.13300  23327413.08300                  -1274527.28840  23327416.17740
 96  9  7  0 14 30.0010000  0  6  1 14 15 21 25 29
  23839579.09200  23216039.06000                  18674578.35740  23216042.62240
  -3043524.77900  23094568.44200                  -2229349.45640  23094572.55640
   -119250.60400  21124141.52100                    -28821.93640  21124145.17740
  34750095.23300  23952623.27100                   8610122.85940  23952627.47840
  -2666975.07900  21071374.61400                  -1992653.63440  21071376.87640
  -1704406.39400  23326534.45000                  -1278128.22940  23326537.63840
 96  9  7  0 15  0.0010000  0  6  1 14 15 21 25 29
  23974384.57700  23241691.64600                  18779621.57240  23241695.50140
  -3065411.26600  23090403.16900                  -2246403.84440  23090406.82540
    -59125.34500  21135582.66100                     18028.90540  21135586.27140
  34896981.45800  23980574.43500                   8724579.61040  23980577.72840
  -2609699.82900  21082273.64600                  -1948023.56240  21082276.22440
  -1708840.17800  23325689.89600                  -1281583.09340  23325693.86840
 96  9  7  0 15 30.0010000  0  6  1 14 15 21 25 29
  24109315.81800  23267368.56000                  18884762.76740  23267371.77140
  -3087196.36900  23086258.02100                  -2263379.23340  23086262.21640
      1680.51900  21147153.95800                     65410.09540  21147157.59140
  35044108.93600  24008571.95800                   8839224.30640  24008577.13840
  -2551887.67700  21093274.91100                  -1902975.12440  21093277.33740
  -1713044.15100  23324889.52800                  -1284858.87040  23324892.69240
 96  9  7  0 16  0.0010000  0  6  1 14 15 21 25 29
  24244318.63000  23293058.08300                  18989959.74740  23293062.06740
  -3108922.20100  23082123.29400                  -2280308.42840  23082127.00940
     63112.84600  21158844.17700                    113279.43140  21158847.93840
  35191426.76400  24036605.57500                   8954017.39640  24036610.70840
  -2493585.18800  21104369.55200                  -1857544.60740  21104371.93140
  -1717079.64200  23324122.05200                  -1288003.38240  23324125.12240
 96  9  7  0 16 30.0010000  0  6  1 14 15 21 25 29
  24379396.27000  23318763.28600                  19095215.01540  23318766.91940
  -3130575.27300  23078002.84100                  -2297180.93640  23078006.23940
    125204.69600  21170659.88800                    161662.68540  21170663.82540
  35338979.18000  24064684.28600                   9068993.25340  24064688.36440
  -2434740.60600  21115567.45000                  -1811691.67740  21115569.70040
  -1720918.19100  23323391.46600                  -1290994.41040  23323394.66540
 96  9  7  0 17  0.0010000  0  6  1 14 15 21 25 29
  24514446.86700  23344461.98900                  19200449.26040  23344465.21240
  -3152209.18700  23073886.31000                  -2314038.51040  23073890.16540
    187875.97500  21182585.73100                    210497.44340  21182589.50540
  35486687.56400  24092792.08300                   9184090.63540  24092796.41940
  -2375408.04500  21126857.98100                  -1765458.50340  21126860.32540
  -1724633.78700  23322684.14600                  -1293889.64240  23322687.46240
 96  9  7  0 17 30.0010000  0  6  1 14 15 21 25 29
  24649504.55200  23370162.99700                  19305688.96840  23370167.28640
  -3173767.95400  23069783.77800                  -2330837.54140  23069787.31740
    251160.69500  21194628.16900                    259810.20540  21194631.95440
  35634605.81000  24120940.49700                   9299351.56540  24120944.43540
  -2315518.23300  21138254.63000                  -1718791.10640  21138256.98540
  -1728195.03700  23322006.73100                  -1296664.60640  23322010.02440
 96  9  7  0 18  0.0010000  0  6  1 14 15 21 25 29
  24784636.56500  23395877.20000                  19410986.65040  23395880.61040
  -3195179.01100  23065709.81700                  -2347521.45440  23065713.45040
    315124.29700  21206800.43500                    309651.96140  21206804.17340
  35782810.32700  24149142.45800                   9414835.55940  24149147.38040
  -2255005.93800  21149769.78600                  -1671638.66340  21149772.08340
  -1731548.51700  23321367.56000                  -1299277.65940  23321370.34940
 96  9  7  0 18 30.0010000  0  6  1 14 15 21 25 29
  24919848.27500  23421607.26300                  19516346.40240  23421611.00140
  -3216442.97400  23061662.66900                  -2364090.75540  23061666.24340
    379770.08200  21219101.96600                    360025.29040  21219105.59940
  35931304.44200  24177400.31700                   9530545.21840  24177404.61840
  -2193873.48300  21161402.70800                  -1624002.97740  21161405.07540
  -1734685.38400  23320771.70800                  -1301721.93940  23320775.16540
 96  9  7  0 19  0.0010000  0  6  1 14 15 21 25 29
  25055125.61500  23447349.65300                  19621757.29540  23447353.64940
  -3237574.73500  23057641.41100                  -2380557.04440  23057645.09140
    445066.78300  21231527.25500                    410905.82740  21231530.98140
  36080059.90700  24205707.66900                   9646458.51340  24205711.12640
  -2132163.34700  21173145.86400                  -1575917.15240  21173148.11440
  -1737625.15100  23320211.27100                  -1304012.62540  23320214.79840
 96  9  7  0 19 30.0010000  0  6  1 14 15 21 25 29
  25190548.25500  23473120.19200                  19727281.40040  23473123.15740
  -3258541.85000  23053652.27800                  -2396895.03740  23053656.00540
    511073.66700  21244088.03600                    462339.75540  21244091.75140
  36229130.95200  24234074.50500                   9762617.70440  24234080.08340
  -2069831.17100  21185007.34900                  -1527346.61540  21185009.58740
  -1740302.46800  23319702.83300                  -1306098.80940  23319706.00940
 96  9  7  0 20  0.0010000  0  6  1 14 15 21 25 29
  25326066.15000  23498908.22400                  19832879.75740  23498912.09140
  -3279395.58300  23049683.47400                  -2413144.68240  23049687.11840
    577744.53100  21256775.59900                    514291.07240  21256779.33740
  36378456.17200  24262490.56700                   9878974.95240  24262496.11040
  -2006942.03700  21196974.75500                  -1478342.08640  21196977.13440
  -1742763.65500  23319234.25500                  -1308016.58640  23319237.22040
 96  9  7  0 20 30.0010000  0  6  1 14 15 21 25 29
  25461688.79100  23524716.40300                  19938559.71340  23524720.76340
  -3300112.12300  23045741.15300                  -2429287.41740  23045744.98540
    645089.61900  21269590.55200                    566767.75740  21269594.31340
  36528042.19900  24290955.29400                   9995535.43840  24290959.92340
  -1943477.02200  21209051.52800                  -1428888.82140  21209053.97840
  -1744987.95000  23318811.11400                  -1309749.75840  23318814.78240
 96  9  7  0 21  0.0010000  0  6  1 14 15 21 25 29
  25597372.65900  23550536.64600                  20044287.37840  23550540.14940
  -3320736.84400  23041816.54400                  -2445358.60240  23041819.89640
    713065.65300  21282525.97400                    619736.09340  21282529.79440
  36677842.08200  24319461.36400                  10112262.58440  24319465.81740
  -1879487.41900  21221228.44200                  -1379026.78640  21221230.73940
  -1747027.62100  23318422.55200                  -1311339.07940  23318425.72840
 96  9  7  0 21 30.0010000  0  6  1 14 15 21 25 29
  25733120.15800  23576368.26300                  20150064.64140  23576372.08340
  -3341254.53100  23037912.12200                  -2461346.39940  23037915.80240
    781689.98200  21295584.89600                    673209.58540  21295588.56340
  36827851.97000  24348008.03600                  10229153.33440  24348012.56040
  -1814969.04900  21233505.91100                  -1328752.72440  21233508.24340
  -1748893.34400  23318067.22400                  -1312792.87040  23318070.04840
 96  9  7  0 22  0.0010000  0  6  1 14 15 21 25 29
  25868906.29300  23602207.53600                  20255871.99240  23602211.33340
  -3361659.68400  23034029.45000                  -2477246.49640  23034032.79040
    850955.03300  21308765.63000                    727182.35140  21308769.32140
  36978050.99300  24376589.75500                  10346191.50840  24376594.50140
  -1749932.17800  21245881.93500                  -1278074.63740  21245884.32540
  -1750606.39000  23317741.42700                  -1314127.67840  23317744.18140
 96  9  7  0 22 30.0020000  0  6  1 14 15 21 25 29
  26004683.22100  23628044.79100                  20361672.18240  23628048.72940
  -3382024.12900  23030152.87700                  -2493114.89040  23030156.65040
    920803.04100  21322056.95500                    781609.36640  21322060.70540
  37128388.43100  24405198.26800                  10463337.52140  24405203.72940
  -1684444.23900  21258343.76800                  -1227045.06540  21258346.04140
  -1752223.93000  23317434.26000                  -1315388.06940  23317437.31840
 96  9  7  0 23  0.0020000  0  6  1 14 15 21 25 29
  26140551.90000  23653899.90000                  20467543.85040  23653903.86140
  -3402255.41200  23026303.83000                  -2508879.50440  23026307.55740
    991339.84400  21335479.94700                    836573.10440  21335483.73240
  37278960.78100  24433849.87700                  10580666.54040  24433855.61940
  -1618401.64500  21270911.45500                  -1175583.30140  21270913.67040
  -1753637.70200  23317164.54900                  -1316489.68140  23317167.74840
 96  9  7  0 23 30.0020000  0  6  1 14 15 21 25 29
  26276466.00600  23679763.82200                  20573450.92640  23679767.56140
  -3422400.13500  23022470.78300                  -2524576.66840  23022474.89640
   1062516.52000  21349024.15800                    892035.44340  21349027.93240
  37429726.36400  24462541.77500                  10698146.14040  24462547.29540
  -1551830.62200  21283579.48600                  -1123709.77140  21283581.92440
  -1754884.89400  23316927.35400                  -1317461.48840  23316930.60040
 96  9  7  0 24  0.0020000  0  6  1 14 15 21 25 29
  26412472.83900  23705644.86100                  20679430.26640  23705648.50640
  -3442408.46800  23018662.30700                  -2540167.56440  23018665.86940
   1134377.14700  21362698.51000                    948030.73440  21362702.15440
  37580763.55800  24491282.45500                  10815837.41140  24491287.36540
  -1484664.05800  21296360.61900                  -1071372.18040  21296362.92840
  -1755897.30900  23316734.37700                  -1318250.35540  23316737.62340
 96  9  7  0 24 30.0020000  0  6  1 14 15 21 25 29
  26548471.76400  23731524.89300                  20785403.43340  23731528.63140
  -3462379.30100  23014862.22100                  -2555729.25540  23014866.11140
   1206821.13000  21376484.34600                   1004480.58740  21376488.00240
  37731994.67600  24520061.96300                  10933679.75440  24520065.67840
  -1417002.33400  21309236.30700                  -1018648.75640  21309238.74440
  -1756764.81600  23316570.17400                  -1318926.31140  23316573.36140
 96  9  7  0 25  0.0020000  0  6  1 14 15 21 25 29
  26684531.44300  23757416.37700                  20891423.95540  23757420.39640
  -3482209.02500  23011089.51000                  -2571180.97140  23011093.02540
   1279937.44200  21390398.37700                   1061454.32640  21390401.91640
  37883502.02100  24548890.94700                  11051737.37740  24548895.78740
  -1348740.74200  21322226.11900                   -965457.90140  21322228.52140
  -1757401.67400  23316449.52500                  -1319422.53340  23316452.66640
 96  9  7  0 25 30.0020000  0  6  1 14 15 21 25 29
  26820642.48000  23783316.91600                  20997484.47440  23783319.95140
  -3501884.46300  23007344.93200                  -2586512.45440  23007348.29540
   1353722.34300  21404438.85400                   1118949.05640  21404442.54540
  38035283.03700  24577774.97100                  11170008.20540  24577780.13940
  -1279902.21100  21335325.63500                   -911817.48240  21335327.97940
  -1757818.03800  23316369.36900                  -1319746.93440  23316371.98240
 96  9  7  0 26  0.0020000  0  6  1 14 15 21 25 29
  26956755.48900  23809218.19700                  21103546.55240  23809221.67840
  -3521454.73700  23003621.21300                  -2601762.01840  23003624.88140
   1428121.23900  21418596.82200                   1176922.21540  21418600.39640
  38187270.96600  24606696.51000                  11288440.35040  24606703.46340
  -1210557.79400  21348521.37700                   -857782.86640  21348523.79140
  -1758083.31700  23316319.07200                  -1319953.60940  23316322.04940
 96  9  7  0 26 30.0020000  0  6  1 14 15 21 25 29
  27092901.54800  23835126.65800                  21209634.36440  23835130.05740
  -3540906.22800  22999919.42400                  -2616919.01140  22999923.37340
   1503149.61700  21432874.26000                   1235385.87440  21432877.89340
  38339452.65000  24635656.04900                  11407023.39540  24635661.88540
  -1140696.07400  21361815.92400                   -803345.15940  21361818.22140
  -1758188.21800  23316298.87700                  -1320035.32640  23316302.19340
 96  9  7  0 27  0.0020000  0  6  1 14 15 21 25 29
  27229014.64200  23861027.59600                  21315696.49940  23861030.94740
  -3560299.30900  22996228.39300                  -2632030.48440  22996231.83840
   1578732.03300  21447256.83800                   1294281.25540  21447260.54140
  38491737.39800  24664635.56400                  11525686.80740  24664641.14340
  -1070383.55600  21375195.54100                   -748556.18040  21375197.94340
  -1758223.39000  23316292.17400                  -1320062.71440  23316295.31440
 96  9  7  0 27 30.0020000  0  6  1 14 15 21 25 29
  27365197.92100  23886942.82200                  21421813.32540  23886947.10040
  -3579544.30600  22992566.62700                  -2647026.58340  22992570.22540
   1654958.54100  21461762.51000                   1353678.52740  21461766.13140
  38644221.49000  24693651.56400                  11644505.47840  24693655.72540
   -999532.53600  21388678.46300                   -693347.59140  21388680.84240
  -1758103.05000  23316314.99400                  -1319968.92140  23316317.57240
 96  9  7  0 28  0.0020000  0  6  1 14 15 21 25 29
  27501482.72200  23912876.08800                  21528009.26240  23912880.02540
  -3598607.38800  22988939.07200                  -2661880.90640  22988942.70540
   1731867.33200  21476397.32200                   1413607.44540  21476401.09640
  38796951.20600  24722715.63500                  11763515.56340  24722720.07640
   -928096.85700  21402271.89300                   -637683.41940  21402274.29540
  -1757777.41000  23316376.20500                  -1319715.13640  23316379.20540
 96  9  7  0 28 30.0020000  0  6  1 14 15 21 25 29
  27637845.99400  23938825.96300                  21634266.32140  23938829.77140
  -3617494.75800  22985345.34600                  -2676598.33040  22985348.65040
   1809448.19000  21491160.84600                   1474060.04940  21491164.56140
  38949934.28000  24751827.22100                  11882723.09640  24751831.65040
   -856093.30800  21415974.08000                   -581576.75340  21415976.31840
  -1757243.59000  23316478.65800                  -1319299.14940  23316482.15040
 96  9  7  0 29  0.0020000  0  6  1 14 15 21 25 29
  27774273.91000  23964787.28300                  21740573.77240  23964790.55340
  -3636192.14100  22981787.73600                  -2691167.70640  22981791.26440
   1887713.95600  21506054.29100                   1535046.35340  21506058.08840
  39103194.48200  24780992.51000                  12002146.56340  24780996.38940
   -783525.82600  21429783.01000                   -525030.66040  21429785.31840
  -1756480.21700  23316623.56400                  -1318704.28040  23316626.86940
 96  9  7  0 29 30.0020000  0  6  1 14 15 21 25 29
  27910750.16600  23990757.72100                  21846918.88540  23990761.71740
  -3654720.90400  22978260.98600                  -2705605.69540  22978264.51440
   1966655.33100  21521076.27500                   1596559.10340  21521080.13140
  39256729.69100  24810208.00200                  12121784.35040  24810211.56440
   -710411.25200  21443696.15000                   -468058.25740  21443698.43640
  -1755468.19100  23316816.43200                  -1317915.66640  23316819.88940
 96  9  7  0 30  0.0020000  0  6  1 14 15 21 25 29
  28047188.30400  24016720.06400                  21953234.28040  24016724.16640
  -3673180.20400  22974748.60400                  -2719989.55040  22974752.52940
   2046170.90800  21536207.79100                   1658519.28340  21536211.54140
  39410438.45700  24839458.70500                  12241557.31140  24839461.74040
   -636845.60100  21457695.00200                   -410734.37140  21457697.38140
  -1754290.61000  23317040.02500                  -1316998.04740  23317043.15440
 96  9  7  0 30 30.0020000  0  6  1 14 15 21 25 29
  28183674.18300  24042693.83000                  22059586.89940  24042697.77940
  -3691500.83900  22971262.76800                  -2734265.35740  22971266.37740
   2126328.97600  21551461.06400                   1720980.10140  21551464.77940
  39564373.85400  24868751.29900                  12361506.92940  24868755.56440
   -562742.07300  21471796.50200                   -352991.35640  21471798.75240
  -1752881.69100  23317308.07200                  -1315900.17040  23317311.16640
 96  9  7  0 31  0.0020000  0  6  1 14 15 21 25 29
  28320277.91900  24068688.08800                  22166031.36540  24068691.69740
  -3709632.70100  22967812.36900                  -2748394.06740  22967815.92040
   2207182.15100  21566846.89300                   1783982.56640  21566850.61940
  39718570.75800  24898094.16600                  12481660.31540  24898100.42440
   -488030.20900  21486013.78300                   -294774.31640  21486016.22140
  -1751195.26200  23317628.69700                  -1314586.04840  23317631.99040
 96  9  7  0 31 30.0020000  0  6  1 14 15 21 25 29
  28456940.11100  24094694.11900                  22272521.33940  24094697.41240
  -3727666.09500  22964380.12700                  -2762446.05140  22964383.49040
   2288638.19400  21582347.59600                   1847454.80340  21582351.36940
  39872933.37600  24927468.97100                  12601942.76840  24927473.02540
   -412789.63200  21500331.76000                   -236145.29040  21500334.12740
  -1749339.59800  23317982.65800                  -1313140.06740  23317985.77540
 96  9  7  0 32  0.0020000  0  6  1 14 15 21 25 29
  28593654.28600  24120711.02500                  22379051.83940  24120714.61140
  -3745591.25700  22960968.46300                  -2776413.69440  22960971.94340
   2370697.83900  21597963.03300                   1911397.36640  21597966.77140
  40027453.42300  24956872.64300                  12722347.98640  24956877.10740
   -337015.70300  21514750.90000                   -177100.66540  21514753.43240
  -1747340.41800  23318362.17400                  -1311582.23940  23318364.96340
 96  9  7  0 32 30.0020000  0  6  1 14 15 21 25 29
  28730401.42200  24146731.78300                  22485608.01340  24146735.77940
  -3763388.55500  22957582.47100                  -2790281.71240  22957585.56440
   2453367.33800  21613694.47900                   1975815.14740  21613698.31140
  40182132.66400  24986307.39300                  12842877.18940  24986312.05740
   -260713.37500  21529270.61100                   -117644.30240  21529273.11940
  -1745211.31700  23318768.11100                  -1309923.18040  23318770.86540
 96  9  7  0 33  0.0020000  0  6  1 14 15 21 25 29
  28867166.39500  24172757.87700                  22592178.09540  24172761.66240
  -3781061.87100  22954219.70500                  -2804053.10540  22954223.31440
   2536643.09600  21629541.48600                   2040705.33740  21629545.23640
  40336972.83000  25015771.61900                  12963531.76140  25015776.77540
   -183902.14600  21543887.34600                    -57791.39340  21543889.84240
  -1742960.20300  23319196.61100                  -1308169.04440  23319199.64640
 96  9  7  0 33 30.0020000  0  6  1 14 15 21 25 29
  29004031.52600  24198802.37700                  22698826.23240  24198806.49040
  -3798505.70400  22950899.28300                  -2817645.69940  22950902.48240
   2620623.33300  21645522.36900                   2106144.46740  21645526.04940
  40492080.46000  25045288.53300                  13084394.81940  25045293.15040
   -106488.95700  21558618.59600                      2530.57740  21558620.96340
  -1740477.96200  23319668.20500                  -1306234.79840  23319671.08840
 96  9  7  0 34  0.0020000  0  6  1 14 15 21 25 29
  29140972.85700  24224861.36100                  22805533.71640  24224865.22940
  -3815724.07000  22947623.83800                  -2831062.60640  22947627.36540
   2705299.71600  21661635.72100                   2172126.05540  21661639.61140
  40647455.84100  25074855.43900                  13205466.47640  25074859.17840
    -28480.14200  21573463.49400                     63316.67340  21573465.89640
  -1737765.56800  23320184.45500                  -1304121.22840  23320187.42040
 96  9  7  0 34 30.0020000  0  6  1 14 15 21 25 29
  29277979.47400  24250933.79100                  22912292.11740  24250937.02540
  -3832761.78800  22944381.81400                  -2844338.72840  22944385.03740
   2790639.62000  21677875.33800                   2238624.66540  21677878.99440
  40803074.19400  25104468.15000                  13326727.43540  25104469.87340
     50082.51000  21588413.40000                    124534.32240  21588415.52140
  -1734834.77500  23320742.31400                  -1301837.45640  23320745.60740
 96  9  7  0 35  0.0020000  0  6  1 14 15 21 25 29
  29414999.53400  24277006.04100                  23019060.95040  24277009.70940
  -3849704.35000  22941157.14300                  -2857540.71040  22941160.82240
   2876573.00400  21694227.97100                   2305585.73140  21694231.68640
  40958870.76300  25134115.11900                  13448127.33340  25134124.49840
    129133.46700  21603456.16600                    186132.47740  21603458.69740
  -1731735.50600  23321332.08800                  -1299422.42040  23321334.94740
 96  9  7  0 35 30.0030000  0  6  1 14 15 21 25 29
  29552071.23700  24303090.60100                  23125870.05340  24303094.14040
  -3866510.10300  22937958.93700                  -2870636.09740  22937962.42940
   2963133.10400  21710699.50700                   2373035.14940  21710703.33940
  41114888.45300  25163805.14000                  13569699.45040  25163811.74940
    208699.21800  21618597.05400                    248131.76940  21618599.35140
  -1728438.07200  23321959.97600                  -1296852.96740  23321962.63640
 96  9  7  0 36  0.0030000  0  6  1 14 15 21 25 29
  29689181.86400  24329181.78800                  23232709.47540  24329186.05440
  -3883185.78500  22934785.96800                  -2883630.12040  22934789.56540
   3050310.07600  21727288.98300                   2440965.24140  21727292.60440
  41271106.88100  25193531.17900                  13691428.11040  25193538.06240
    288751.12900  21633830.29600                    310509.88240  21633832.61640
  -1724956.07800  23322621.82700                  -1294139.68940  23322624.76940
 96  9  7  0 36 30.0030000  0  6  1 14 15 21 25 29
  29826233.49500  24355262.21800                  23339502.95140  24355266.15540
  -3899823.29900  22931619.55400                  -2896594.41240  22931622.85840
   3138010.77200  21743977.87400                   2509303.43040  21743981.68340
  41427428.22100  25223278.85800                  13813236.86940  25223285.01140
    369185.43300  21649136.34300                    373185.96840  21649138.79240
  -1721379.70600  23323302.74900                  -1291352.88840  23323305.80840
 96  9  7  0 37  0.0030000  0  6  1 14 15 21 25 29
  29963319.88800  24381349.63200                  23446323.46240  24381354.62440
  -3916284.35500  22928487.55400                  -2909421.19340  22928490.84740
   3226348.83600  21760788.10800                   2578138.27440  21760791.82340
  41583962.28100  25253067.45200                  13935211.41940  25253071.49540
    450123.29600  21664538.53000                    436254.43540  21664540.83940
  -1717611.31500  23324019.45200                  -1288416.46040  23324022.48740
 96  9  7  0 37 30.0030000  0  6  1 14 15 21 25 29
  30100480.37800  24407449.92900                  23553201.76640  24407453.49140
  -3932497.26200  22925402.08500                  -2922054.61440  22925405.42540
   3315378.65900  21777729.94400                   2647512.14640  21777733.58940
  41740764.26800  25282905.03000                  14057394.78240  25282903.71840
    531627.82500  21680048.10100                    499764.46240  21680050.43340
  -1713604.24300  23324782.42100                  -1285294.03140  23324785.24540
 96  9  7  0 38  0.0030000  0  6  1 14 15 21 25 29
  30237622.91500  24433547.01500                  23660066.05140  24433550.91740
  -3948554.98900  22922346.45200                  -2934567.11740  22922349.73340
   3405002.36500  21794784.99100                   2717348.79040  21794788.72940
     26157.19610  25312773.70200
    613624.85200  21695651.63200                    563658.25140  21695654.06940
  -1709440.85200  23325574.46000                  -1282049.80240  23325577.68340
 96  9  7  0 38 30.0030000  0  6  1 14 15 21 25 29
  30374652.08000  24459623.49100                  23766842.01240  24459627.55840
  -3964552.01600  22919302.14700                  -2947032.32840  22919305.67540
   3495119.66700  21811933.55400                   2787570.05240  21811937.40940
    120405.40910  25342663.49100
    696043.74600  21711336.07700                    627880.76740  21711338.39740
  -1705216.24300  23326378.79600                  -1278757.87040  23326381.67940
 96  9  7  0 39  0.0030000  0  6  1 14 15 21 25 29
  30511685.08700  24485699.85100                  23873620.97040  24485704.56240
  -3980376.06800  22916291.02200                  -2959362.75040  22916294.55040
   3585840.39700  21829197.29600                   2858261.51640  21829200.87040
    277644.54800  25372582.49900
    779011.74500  21727123.86600                    692531.16040  21727126.32740
  -1700813.52900  23327215.98300                  -1275327.16140  23327219.07740
 96  9  7  0 39 30.0030000  0  6  1 14 15 21 25 29
  30648799.13500  24511792.13200                  23980463.06940  24511797.19440
  -3995972.15300  22913323.58500                  -2971515.52540  22913327.24140
   3677233.89500  21846588.83500                   2929477.21640  21846592.50340
    435149.43500  25402555.21800
    862597.55100  21743029.61600                    757662.95840  21743032.01940
  -1696157.36000  23328102.38200                  -1271698.95340  23328105.19440
 96  9  7  0 40  0.0030000  0  5  1 14 15 25 29
  30785903.39100  24537881.05400                  24087297.55240  24537884.07740
  -4011448.86100  22910378.09300                  -2983575.29240  22910381.72640
   3769200.85600  21864089.35100                   3001139.77340  21864092.99540
    946686.48600  21759031.46000                    823186.80340  21759033.79240
  -1691358.28900  23329015.52200                  -1267959.39540  23329018.75740
 96  9  7  0 40 30.0030000  0  5  1 14 15 25 29
  30923030.86500  24563976.89000                  24194150.10540  24563980.11240
  -4026772.48900  22907462.23300                  -2995515.77240  22907465.90140
   3861782.31000  21881707.41300                   3073281.14940  21881711.11640
   1031292.66600  21775131.39700                    889113.69740  21775133.62440
  -1686397.74600  23329959.22600                  -1264094.01140  23329962.00340
 96  9  7  0 41  0.0030000  0  5  1 14 15 25 29
  31060236.96800  24590084.95200                  24301063.95740  24590088.96040
  -4041881.82400  22904587.11600                  -3007289.27040  22904590.45640
   3955033.82900  21899452.49900                   3145944.66240  21899456.09740
   1116443.10200  21791334.95200                    955464.68840  21791337.10840
  -1681225.07700  23330943.39700                  -1260063.33840  23330946.50340
 96  9  7  0 41 30.0030000  0  5  1 14 15 25 29
  31197423.86100  24616190.34300                  24407962.82640  24616194.50340
  -4056878.92300  22901732.57700                  -3018975.30640  22901736.04640
   4048848.92000  21917304.87400                   3219047.31740  21917308.67140
   1202019.24300  21807619.35800                   1022147.39540  21807621.64440
  -1675968.19800  23331943.81200                  -1255967.04040  23331946.72940
 96  9  7  0 42  0.0030000  0  5  1 14 15 25 29
  31334659.92600  24642306.65500                  24514900.00840  24642310.01940
  -4071689.97600  22898914.63200                  -3030516.38940  22898917.65540
   4143287.33400  21935275.96800                   3292635.67440  21935279.62440
   1288077.50800  21823995.90500                   1089205.78040  21823998.23740
  -1670565.25000  23332972.39700                  -1251756.92740  23332975.21040
 96  9  7  0 42 30.0030000  0  5  1 14 15 25 29
  31471967.34800  24668435.59300                  24621892.75940  24668440.19840
  -4086282.65500  22896136.89700                  -3041887.30540  22896140.39040
   4238362.38700  21953368.03000                   3366720.12140  21953371.86240
   1374630.82300  21840466.53000                   1156649.92440  21840468.94440
  -1664977.57700  23334035.49900                  -1247402.87740  23334038.38240
 96  9  7  0 43  0.0030000  0  5  1 14 15 25 29
  31609268.49300  24694563.23300                  24728880.67740  24694566.17540
  -4100728.39300  22893388.71800                  -3053143.71440  22893392.44440
   4333990.38400  21971565.43700                   3441235.43040  21971569.19840
   1461619.53900  21857019.68700                   1224433.33740  21857021.94840
  -1659269.76800  23335121.71800                  -1242955.20840  23335124.87040
 96  9  7  0 43 30.0030000  0  5  1 14 15 25 29
  31746614.20800  24720697.49900                  24835903.26940  24720699.73740
  -4114982.34900  22890676.06900                  -3064250.67540  22890679.62040
   4430216.78600  21989876.60800                   3516217.02840  21989880.20640
   1549102.75800  21873667.05400                   1292602.08040  21873669.57340
  -1653386.36100  23336241.64700                  -1238370.71040  23336244.69440
 96  9  7  0 44  0.0030000  0  5  1 14 15 25 29
  31883970.79000  24746837.74100                  24942934.34940  24746842.27640
  -4129062.92700  22887997.03000                  -3075222.54440  22888000.28840
   4527018.10400  22008297.21000                   3591646.61040  22008301.15940
   1637056.37800  21890404.35800                   1361137.36540  21890406.58540
  -1647319.75300  23337395.31200                  -1233643.46140  23337398.03040
 96  9  7  0 44 30.0030000  0  5  1 14 15 25 29
  32021320.77200  24772973.69400                  25049960.28840  24772977.30440
  -4142979.08000  22885349.04600                  -3086066.29540  22885352.71440
   4624384.85000  22026825.55400                   3667516.79140  22026829.28040
   1725472.48400  21907229.52200                   1430033.03440  21907231.79640
  -1641076.54500  23338583.35800                  -1228778.60440  23338586.40540
 96  9  7  0 45  0.0030000  0  5  1 14 15 25 29
  32158671.85700  24799110.68700                  25156987.07740  24799114.57740
  -4156732.84100  22882730.67900                  -3096783.50440  22882734.40540
   4722327.23700  22045463.60800                   3743835.51240  22045467.34740
   1814373.41900  21924146.71800                   1499306.49040  21924149.00340
  -1634666.31600  23339803.07700                  -1223783.60640  23339806.25340
 96  9  7  0 45 30.0030000  0  5  1 14 15 25 29
  32296033.90300  24825250.50700                  25264022.40340  24825254.55040
  -4170322.77800  22880144.72600                  -3107373.06140  22880148.20640
   4820848.57200  22064211.71000                   3820605.36940  22064215.55440
   1903751.22200  21941154.72600                   1568951.52940  21941157.10440
  -1628095.09300  23341053.60800                  -1218663.14840  23341056.56240
 96  9  7  0 46  0.0030000  0  5  1 14 15 25 29
  32433409.03300  24851391.38200                  25371067.93540  24851394.01940
  -4183731.25500  22877593.56900                  -3117821.21740  22877596.89740
   4919957.90600  22083071.49100                   3897833.40440  22083075.25340
   1993612.15000  21958254.64000                   1638973.03540  21958256.89040
  -1621356.01600  23342336.42100                  -1213411.90040  23342339.39740
 96  9  7  0 46 30.0030000  0  6  1 14 15 22 25 29
  32570791.70800  24877534.77200                  25478119.35140  24877538.30040
  -4196968.58500  22875074.62400                  -3128136.00240  22875078.25740
   5019646.28100  22102041.35800                   3975512.64440  22102045.29640
    -27223.40910  25397188.91300
   2083959.85300  21975447.20200                   1709373.84540  21975449.48740
  -1614467.52000  23343646.56900                  -1208044.22740  23343649.20640
 96  9  7  0 47  0.0030000  0  6  1 14 15 22 25 29
  32708220.51600  24903686.24100                  25585206.69640  24903691.30440
  -4209991.83000  22872596.14000                  -3138283.97940  22872599.67940
   5119954.23700  22121129.45200                   4053674.66540  22121133.27240
    -62738.38300  25390428.65500
   2174844.88800  21992741.98300                   1780193.35340  21992744.40940
  -1607381.09800  23344995.53800                  -1202522.32640  23344998.47940
 96  9  7  0 47 30.0030000  0  6  1 14 15 22 25 29
  32845687.87600  24929845.25700                  25692324.06940  24929849.64040
  -4222786.83600  22870161.81200                  -3148254.10240  22870165.14040
   5220885.06700  22140335.97600                   4132322.04840  22140339.80840
    -98243.40100  25383673.92900                     -5532.56450  25383684.87840
   2266263.11300  22010138.55400                   1851428.33540  22010141.01540
  -1600071.04500  23346386.99100                  -1196826.15640  23346390.30840
 96  9  7  0 48  0.0030000  0  6  1 14 15 22 25 29
  32983183.15500  24956009.71000                  25799463.20940  24956012.49940
  -4235354.71400  22867770.46800                  -3158047.23940  22867773.71440
   5322433.63700  22159659.87400                   4211450.79140  22159663.80040
   -133735.96300  25376919.31900                    -33189.23840  25376922.22640
   2358217.95200  22027636.99100                   1923081.46140  22027639.48740
  -1592528.32200  23347822.02200                  -1190948.69540  23347825.01140
 96  9  7  0 48 30.0040000  0  6  1 14 15 22 25 29
  33120766.01300  24982190.86300                  25906670.61340  24982195.24640
  -4247653.66900  22865429.29300                  -3167630.83340  22865432.71540
   5424647.56300  22179110.88700                   4291097.98440  22179114.75440
   -169146.02000  25370180.63700                    -60781.36940  25370186.02740
   2450769.53500  22045248.90200                   1995199.57740  22045251.16440
  -1584721.60900  23349307.84800                  -1184865.53040  23349310.56640
 96  9  7  0 49  0.0040000  0  6  1 14 15 22 25 29
  33258273.88200  25008357.80100                  26013819.56240  25008361.39840
  -4259837.50300  22863111.10500                  -3177124.71540  22863114.72740
   5527357.82800  22198655.70700                   4371131.94840  22198659.52740
   -204628.58500  25363428.83200                    -88430.01140  25363435.54740
   2543731.06900  22062938.80900                   2067637.14340  22062941.10540
  -1576823.59100  23350810.33200                  -1178711.20840  23350813.57840
 96  9  7  0 49 30.0040000  0  6  1 14 15 22 25 29
  33395774.74300  25034524.93400                  26120963.04440  25034529.14140
  -4271844.88700  22860826.31600                  -3186481.11940  22860829.71540
   5630621.13200  22218306.65200                   4451596.83840  22218310.16840
   -240138.07400  25356671.89500                   -116099.69440  25356677.18040
   2637145.59500  22080714.96500                   2140427.68540  22080717.36740
  -1568794.26200  23352338.54300                  -1172454.56840  23352341.44940
 96  9  7  0 50  0.0040000  0  6  1 14 15 22 25 29
  33533305.87300  25060694.56600                  26228130.14640  25060697.74240
  -4283646.00300  22858580.15200                  -3195676.77140  22858583.68040
   5734464.74200  22238066.78500                   4532513.91940  22238070.71140
   -275654.66900  25349912.61300                   -143774.90040  25349918.74240
   2731041.16000  22098582.81600                   2213593.06040  22098585.12540
  -1560619.91500  23353893.46500                  -1166084.93740  23353896.52340
 96  9  7  0 50 30.0040000  0  6  1 14 15 22 25 29
  33670870.56900  25086874.16000                  26335323.36140  25086877.14840
  -4295230.16000  22856376.28500                  -3204703.38640  22856379.78940
   5838895.50200  22257939.55900                   4613888.52640  22257943.43740
   -311174.04900  25343154.18400                   -171452.30240  25343155.90640
   2825407.80500  22116540.02000                   2287125.51440  22116542.43440
  -1552298.75700  23355477.24600                  -1159600.89940  23355480.21140
 96  9  7  0 51  0.0040000  0  6  1 14 15 22 25 29
  33808408.72100  25113045.30900                  26442495.95040  25113048.69540
  -4306636.61700  22854205.45700                  -3213591.53140  22854208.97340
   5943868.70000  22277915.34000                   4695685.80840  22277919.32440
   -346765.30600  25336381.50400                   -199185.65240  25336388.38740
   2920176.51400  22134573.80100                   2360971.26240  22134576.16840
  -1543856.65400  23357083.83200                  -1153022.61840  23357086.76240
 96  9  7  0 51 30.0040000  0  6  1 14 15 22 25 29
  33945910.27100  25139211.08200                  26549639.99040  25139215.84040
  -4317871.22100  22852067.61300                  -3222345.75240  22852071.02340
   6049383.83400  22297994.25400                   4777905.37640  22297998.19140
   -382425.62100  25329594.57400                   -226972.89440  25329604.43440
   3015360.01600  22152686.83200                   2435140.22240  22152689.32840
  -1535278.02900  23358716.24600                  -1146337.96240  23358718.88340
 96  9  7  0 52  0.0040000  0  6  1 14 15 22 25 29
  34083398.94700  25165374.49600                  26656774.00740  25165378.23440
  -4328916.77600  22849965.98000                  -3230952.68140  22849969.35540
   6155466.14200  22318180.95700                   4860566.89340  22318184.74240
   -418118.95800  25322802.33200                   -254785.91540  25322807.13740
   3110990.78900  22170884.86300                   2509657.70540  22170887.17240
  -1526518.30100  23360383.35500                  -1139512.18640  23360386.10940
 96  9  7  0 52 30.0040000  0  6  1 14 15 22 25 29
  34220872.48100  25191533.75400                  26763896.21640  25191540.46940
  -4339773.02100  22847899.53500                  -3239412.08040  22847902.96940
   6262109.39700  22338474.38700                   4943665.52040  22338478.23040
   -453836.83400  25316006.31600                   -282617.91640  25316010.46540
   3207060.82200  22189165.98000                   2584517.47340  22189168.52340
  -1517576.16300  23362084.36300                  -1132544.26840  23362086.96540
 96  9  7  0 53  0.0040000  0  6  1 14 15 22 25 29
  34358385.46600  25217702.63700                  26871049.16440  25217707.99240
  -4350382.65000  22845880.82400                  -3247679.31640  22845884.30540
   6369357.81500  22358883.35500                   5027235.69440  22358887.19940
   -489517.19000  25309215.84000                   -310420.74740  25309221.26640
   3303621.56000  22207541.18400                   2659759.60940  22207543.38740
  -1508404.68500  23363830.64500                  -1125397.64640  23363833.39840
 96  9  7  0 53 30.0040000  0  6  1 14 15 22 25 29
  34495905.15600  25243871.70700                  26978207.35940  25243874.90640
  -4360790.25700  22843900.66800                  -3255789.13140  22843904.05540
   6477161.57600  22379397.59000                   5111238.60840  22379401.45740
   -525176.99800  25302430.93400                   -338207.57640  25302436.71140
   3400643.81800  22226003.77000                   2735361.36040  22226005.99640
  -1499048.36800  23365610.72300                  -1118106.99040  23365613.39540
 96  9  7  0 54  0.0040000  0  6  1 14 15 22 25 29
  34633435.85000  25270043.48800                  27085374.09940  25270047.73040
  -4370983.08200  22841960.39500                  -3263731.59040  22841963.79340
   6585512.87900  22400016.49600                   5195668.17540  22400020.32840
   -560818.63500  25295647.35500                   -365980.23440  25295651.93740
   3498122.56900  22244553.55900                   2811318.82540  22244555.78540
  -1489526.03900  23367422.54300                  -1110686.98040  23367425.39140
 96  9  7  0 54 30.0040000  0  6  1 14 15 22 25 29
  34770972.10000  25296215.30100                  27192545.19340  25296220.15240
  -4380955.49100  22840062.64500                  -3271502.28440  22840066.28940
   6694402.19500  22420737.33200                   5280516.97740  22420741.37540
   -596448.96600  25288868.24600                   -393744.07440  25288874.19940
   3596052.04900  22263188.70700                   2887627.51340  22263191.02740
  -1479862.05200  23369261.65200                  -1103156.58940  23369264.60540
 96  9  7  0 55  0.0040000  0  6  1 14 15 22 25 29
  34908515.89700  25322390.21500                  27299722.15140  25322394.32840
  -4390715.79800  22838205.84000                  -3279107.71440  22838209.29740
   6803824.57800  22441559.59800                   5365781.16140  22441563.35940
   -632082.07600  25282087.04300                   -421510.08140  25282092.51640
   3694443.44900  22281911.77700                   2964296.13740  22281914.21540
  -1470057.16100  23371127.40200                  -1095516.39540  23371130.21540
 96  9  7  0 55 30.0040000  0  6  1 14 15 22 25 29
  35046143.77500  25348578.75400                  27406964.62840  25348582.04740
  -4400204.54500  22836399.70700                  -3286501.53140  22836403.39840
   6913849.90300  22462496.67600                   5451515.15540  22462500.70740
   -667663.56700  25275315.98800                   -449235.82040  25275319.62140
   3793380.15300  22300738.74600                   3041389.67040  22300741.33640
  -1460041.40600  23373033.47300                  -1087711.89840  23373036.16840
 96  9  7  0 56  0.0040000  0  6  1 14 15 22 25 29
  35183776.69000  25374769.85500                  27514211.02640  25374774.08640
  -4409483.05900  22834634.29300                  -3293731.52540  22834637.87940
   7024406.30500  22483534.90200                   5537662.98240  22483538.71140
   -703275.66000  25268538.69100                   -476985.42840  25268540.21540
   3892785.50300  22319655.23000                   3118848.37840  22319657.64540
  -1449891.97300  23374964.73800                  -1079803.22840  23374967.46940
 96  9  7  0 56 30.0040000  0  6  1 14 15 22 25 29
  35321462.58100  25400969.66800                  27621498.71640  25400972.49240
  -4418496.82000  22832919.02000                  -3300755.22940  22832922.41840
   7135549.37200  22504684.62900                   5624267.95340  22504688.42640
   -738849.87600  25261768.36300                   -504705.59540  25261774.62140
   3992698.84800  22338668.16800                   3196702.93540  22338670.51240
  -1439534.91100  23376935.39500                  -1071732.77240  23376938.07840
 96  9  7  0 57  0.0040000  0  6  1 14 15 22 25 29
  35459154.08000  25427172.98000                  27728790.75140  25427175.35940
  -4427286.88600  22831245.93400                  -3307604.61840  22831249.34440
   7247230.63100  22525936.99600                   5711292.29040  22525940.82840
   -774426.83500  25254999.14500                   -532427.93640  25255003.59840
   4093070.09300  22357768.23000                   3274914.29740  22357770.68040
  -1429014.86800  23378937.66000                  -1063535.32440  23378940.40240
 96  9  7  0 57 30.0040000  0  6  1 14 15 22 25 29
  35596829.14300  25453370.94100                  27836070.00140  25453374.89140
  -4435848.18600  22829617.21500                  -3314275.74940  22829620.63740
   7359446.91700  22547291.15200                   5798733.53140  22547294.93740
   -809987.55400  25248231.98000                   -560137.56340  25248236.55140
   4193880.57700  22376951.78500                   3353467.91640  22376954.07040
  -1418349.26300  23380966.53500                  -1055224.44740  23380969.31240
 96  9  7  0 58  0.0040000  0  6  1 14 15 22 25 29
  35734492.77500  25479568.36300                  27943340.30040  25479571.64540
  -4444154.68500  22828036.70700                  -3320748.33740  22828040.18740
   7472210.96000  22568749.38700                   5886601.59340  22568753.16040
   -845496.78000  25241475.65200                   -587807.03340  25241481.10240
   4295126.61800  22396218.48000                   3432360.93640  22396220.64840
  -1407533.90000  23383024.60500                  -1046796.86740  23383027.12540
 96  9  7  0 58 30.0040000  0  6  1 14 15 22 25 29
  35872166.94100  25505765.14500                  28050618.87140  25505768.88340
  -4452200.49000  22826505.73000                  -3327017.78640  22826509.03540
   7585538.83900  22590315.12900                   5974909.00940  22590318.97340
   -880935.74400  25234730.73800                   -615421.78040  25234737.28940
   4396823.69000  22415570.84000                   3511605.41140  22415573.09040
  -1396560.51500  23385113.52000                  -1038246.16440  23385116.10940
 96  9  7  0 59  0.0040000  0  6  1 14 15 22 25 29
  36009838.46100  25531963.67600                  28157895.35340  25531967.08640
  -4459999.96400  22825021.00400                  -3333095.28940  22825024.40240
   7699415.66800  22611985.12100                   6063644.18240  22611989.12940
   -916327.01700  25227996.11300                   -642999.35640  25227999.99240
   4498961.49400  22435006.93400                   3591193.31040  22435009.24240
  -1385449.04200  23387227.87900                  -1029587.85640  23387230.68040
 96  9  7  0 59 30.0040000  0  6  1 14 15 22 25 29
  36147457.64100  25558150.62100                  28265131.05240  25558156.23440
  -4467605.43100  22823574.02000                  -3339021.62040  22823577.32440
   7813795.02100  22633750.48800                   6152770.93540  22633754.40240
   -951714.00100  25221263.06600                   -670573.57940  25221268.89140
   4601489.98600  22454517.37900                   3671085.63840  22454519.67640
  -1374223.77600  23389363.65200                  -1020840.87740  23389366.57040
 96  9  7  1  0  0.0040000  0  6  1 14 15 22 25 29
  36285081.25100  25584341.77000                  28372370.15740  25584345.81240
  -4474974.69800  22822171.54300                  -3344763.90040  22822174.82440
   7928712.29300  22655618.73000                   6242316.83840  22655622.71540
   -987069.20000  25214534.82400                   -698123.05540  25214538.02340
   4704448.86500  22474109.72300                   3751313.34040  22474111.99640
  -1362819.14600  23391534.10500                  -1011954.12640  23391536.84840
 96  9  7  1  0 30.0040000  0  6  1 14 15 22 25 29
  36422715.75100  25610530.95700                  28479617.80540  25610534.94140
  -4482096.64600  22820816.34000                  -3350313.46340  22820819.65640
   8044169.32900  22677589.40200                   6332283.33840  22677593.55140
  -1022386.12300  25207813.81600                   -725642.68140  25207818.24640
   4807857.44400  22493787.57400                   3831891.45040  22493789.95340
  -1351207.82400  23393743.37100                  -1002906.33340  23393746.07840
 96  9  7  1  1  0.0040000  0  6  1 14 15 22 25 29
  36560349.54200  25636723.55900                  28586864.92240  25636727.08640
  -4488979.52500  22819506.40200                  -3355676.74040  22819509.77740
   8160149.39800  22699659.37900                   6422657.40640  22699663.38740
  -1057665.58700  25201100.69100                   -753133.09740  25201105.44940
   4911711.96900  22513550.59000                   3912817.05340  22513553.03940
  -1339403.99500  23395989.76200                   -993708.52440  23395992.50440
 96  9  7  1  1 30.0050000  0  6  1 14 15 22 25 29
  36697991.33000  25662915.45400                  28694118.22140  25662921.43140
  -4495630.50200  22818241.35300                  -3360859.32140  22818244.68140
   8276650.07400  22721829.43800                   6513437.12740  22721833.35340
  -1092899.45300  25194395.59500                   -780588.02040  25194401.04440
   5016028.15300  22533401.05600                   3994102.39540  22533403.61040
  -1327426.61200  23398268.62600                   -984375.48340  23398271.46240
 96  9  7  1  2  0.0050000  0  6  1 14 15 22 25 29
  36835691.50100  25689118.36800                  28801416.98640  25689122.91540
  -4501984.97100  22817031.94600                  -3365810.84840  22817035.27440
   8393718.57500  22744106.81300                   6604659.31840  22744110.54040
  -1128020.07900  25187712.86000                   -807954.71740  25187716.97440
   5120854.09900  22553349.06300                   4075784.94940  22553351.47840
  -1315242.69900  23400587.77400                   -974881.50640  23400590.45840
 96  9  7  1  2 30.0050000  0  6  1 14 15 22 25 29
  36973347.69900  25715313.19600                  28908681.60540  25715318.79840
  -4508155.12300  22815857.62600                  -3370618.75440  22815860.86040
   8511258.19100  22766473.41500                   6696248.61040  22766477.52840
  -1163117.22300  25181034.45400                   -835303.10840  25181038.45040
   5226082.67100  22573373.27400                   4157781.23940  22573375.52440
  -1302976.21800  23402921.97000                   -965323.19040  23402924.68840
 96  9  7  1  3  0.0050000  0  6  1 14 15 22 25 29
  37111005.43000  25741509.79800                  29015947.29640  25741516.18540
  -4514114.81500  22814723.81300                  -3375262.67140  22814727.04840
   8629307.79000  22788937.68800                   6788235.29140  22788941.68540
  -1198153.38800  25174366.38400                   -862603.98040  25174371.68140
   5331730.54800  22593477.39200                   4240104.26240  22593479.66540
  -1290596.14600  23405277.43800                   -955676.35840  23405280.20440
 96  9  7  1  3 30.0050000  0  6  1 14 15 22 25 29
  37248571.00900  25767686.14200                  29123141.27440  25767691.54440
  -4519937.05200  22813615.57900                  -3379799.47840  22813618.89540
   8747778.90000  22811481.68100                   6880550.42640  22811485.86440
  -1233215.65500  25167694.43100                   -889925.19840  25167698.94240
   5437681.23800  22613639.26700                   4322663.24340  22613641.72840
  -1278159.09600  23407643.49300                   -945985.14040  23407646.38840
 96  9  7  1  4  0.0050000  0  6  1 14 15 22 25 29
  37386133.77900  25793864.47800                  29230332.98140  25793869.99740
  -4525505.81900  22812555.66500                  -3384138.77240  22812559.12240
   8866763.58300  22834123.85300                   6973265.74440  22834128.06040
  -1268208.80600  25161034.99300                   -917192.52740  25161041.21640
   5544012.66700  22633873.22800                   4405518.90440  22633875.50140
  -1265546.55300  23410044.40700                   -936157.16240  23410047.47840
 96  9  7  1  4 30.0050000  0  6  1 14 15 22 25 29
  37523758.89300  25820054.15700                  29337573.31640  25820059.33740
  -4530751.32800  22811557.82100                  -3388226.17840  22811561.02040
   8986319.60900  22856875.07900                   7066426.26340  22856879.20440
  -1303078.14000  25154399.68100                   -944363.39740  25154403.73540
   5650786.56200  22654192.00900                   4488719.33940  22654194.21240
  -1252683.36200  23412492.20400                   -926133.88440  23412494.80640
 96  9  7  1  5  0.0050000  0  6  1 14 15 22 25 29
  37661448.36600  25846253.82100                  29444863.84140  25846257.57140
  -4535643.56400  22810626.87600                  -3392038.30540  22810630.33340
   9106440.04000  22879733.04800                   7160026.57540  22879737.10340
  -1337829.23900  25147786.21200                   -971442.12540  25147791.67340
   5758014.28200  22674596.86800                   4572273.41040  22674599.07140
  -1239559.78900  23414988.83700                   -915907.70940  23414991.63840
 96  9  7  1  5 30.0050000  0  6  1 14 15 22 25 29
  37799102.23900  25872450.29000                  29552126.55640  25872453.17340
  -4540255.51600  22809749.45400                  -3395632.03440  22809752.77040
   9227028.46800  22902680.61000                   7253991.56440  22902684.53640
  -1372545.31700  25141180.51700                   -998493.55740  25141186.29440
   5865618.44300  22695072.88400                   4656120.80740  22695075.06340
  -1226268.05700  23417518.36800                   -905550.50340  23417521.11040
 96  9  7  1  6  0.0050000  0  6  1 14 15 22 25 29
  37936684.69800  25898630.89200                  29659333.67940  25898634.53640
  -4544650.28300  22808912.63400                  -3399056.53040  22808915.97440
   9348035.31500  22925707.07900                   7348282.59340  22925711.16940
  -1407272.77000  25134572.00100                  -1025553.88340  25134577.81340
   5973568.37400  22715615.04000                   4740237.63940  22715617.20840
  -1212884.76200  23420065.49300                   -895121.94440  23420068.18840
 96  9  7  1  6 30.0050000  0  6  1 14 15 22 25 29
  38074173.22700  25924795.46200                  29766467.54240  25924799.25940
  -4548870.73600  22808110.08700                  -3402345.18640  22808113.27440
   9469431.30600  22948808.04800                   7442876.84940  22948811.79840
  -1442039.81000  25127956.18800                  -1052645.02840  25127959.69240
   6081839.05500  22736218.24300                   4824604.40440  22736220.62240
  -1199458.24000  23422620.13400                   -884659.70140  23422622.94640
 96  9  7  1  7  0.0050000  0  6  1 14 15 22 25 29
  38211689.37600  25950961.88400                  29873622.98740  25950964.69640
  -4552796.00100  22807362.78200                  -3405403.82640  22807366.21640
   9591349.93300  22972008.47000                   7537878.35240  22972012.54840
  -1476705.79000  25121359.95400                  -1079657.40640  25121363.92740
   6190566.08400  22756908.44600                   4909326.75940  22756910.74340
  -1185864.46100  23425207.07100                   -874067.13240  23425209.87240
 96  9  7  1  7 30.0050000  0  6  1 14 15 22 25 29
  38349225.30700  25977135.70400                  29980793.81140  25977140.34540
  -4556457.79400  22806666.14200                  -3408257.16640  22806669.42340
   9713788.59500  22995307.43800                   7633285.08440  22995311.59940
  -1511270.48400  25114782.04800                  -1106590.88840  25114787.12240
   6299743.48900  22777684.28200                   4994400.06340  22777686.54440
  -1172107.32100  23427824.68800                   -863347.27140  23427827.46640
 96  9  7  1  8  0.0050000  0  6  1 14 15 22 25 29
  38486716.46800  26003298.15700                  30087929.80440  26003302.35340
  -4559931.83400  22806004.54000                  -3410964.20640  22806008.02040
   9836680.37700  23018693.33700                   7729044.89240  23018697.20440
  -1545811.10100  25108208.88400                  -1133505.63340  25108213.59540
   6409302.70900  22798532.41500                   5079770.88740  22798534.75940
  -1158264.16200  23430458.97800                   -852560.38440  23430461.69640
 96  9  7  1  8 30.0050000  0  6  1 14 15 22 25 29
  38624156.13100  26029452.47800                  30195025.59440  26029456.89540
  -4563197.81300  22805383.15700                  -3413509.11540  22805386.46240
   9960029.53500  23042165.63400                   7825161.09940  23042169.40740
  -1580314.53600  25101642.91500                  -1160391.37740  25101646.92340
   6519242.89100  22819453.39900                   5165438.55640  22819455.72040
  -1144325.55700  23433111.77400                   -841699.12740  23433114.44640
 96  9  7  1  9  0.0050000  0  6  1 14 15 22 25 29
  38761562.05200  26055598.53200                  30302095.15140  26055602.04840
  -4566222.04000  22804807.71200                  -3415865.64240  22804811.21640
  10083857.39800  23065729.42300                   7921650.32340  23065733.27840
  -1614745.03300  25095090.97000                  -1187220.27740  25095096.89940
   6629585.67000  22840450.86000                   5251419.94140  22840453.33340
  -1130250.31400  23435790.48500                   -830731.38540  23435793.11040
 96  9  7  1  9 30.0050000  0  6  1 14 15 22 25 29
  38898987.84600  26081752.52400                  30409180.13840  26081757.66940
  -4568954.62600  22804287.78200                  -3417994.92640  22804291.22840
  10208191.84900  23089389.49300                   8018534.28740  23089393.24340
  -1649064.96600  25088559.75100                  -1213963.01140  25088565.54040
   6740349.35900  22861529.13400                   5337729.30740  22861531.68840
  -1115989.45600  23438503.30600                   -819619.01440  23438505.74340
 96  9  7  1 10  0.0050000  0  6  1 14 15 22 25 29
  39036429.62900  26107905.04800                  30516277.60640  26107908.90340
  -4571377.87200  22803826.86000                  -3419883.16040  22803830.36440
  10333018.26900  23113143.40700                   8115801.60340  23113147.41540
  -1683267.05900  25082052.32100                  -1240613.97940  25082056.10640
   6851514.17700  22882682.53200                   5424351.23740  22882684.87640
  -1101560.56500  23441249.29800                   -808375.71240  23441251.80640
 96  9  7  1 10 30.0050000  0  6  1 14 15 22 25 29
  39173922.12400  26134070.50100                  30623414.59840  26134074.82540
  -4573445.66600  22803433.30600                  -3421494.41940  22803436.81040
  10458361.10300  23136995.44600                   8213471.31740  23136999.31340
  -1717297.77500  25075575.59500                  -1267131.35640  25075580.65740
   6963102.89100  22903917.50100                   5511303.48240  22903919.84540
  -1086918.40400  23444036.35300                   -796966.22340  23444039.01340
 96  9  7  1 11  0.0050000  0  6  1 14 15 22 25 29
  39311474.42700  26160245.06300                  30730598.19340  26160249.58740
  -4575164.51200  22803106.29000                  -3422833.76840  22803109.65340
  10584219.88300  23160945.30600                   8311543.07540  23160949.52440
  -1751155.44200  25069133.59500                  -1293513.90540  25069138.64540
   7075113.80900  22925232.30600                   5598584.71340  22925234.59140
  -1072046.86200  23446865.93100                   -785377.99440  23446868.48540
 96  9  7  1 11 30.0050000  0  6  1 14 15 22 25 29
  39449049.62000  26186425.59500                  30837799.57340  26186427.88040
  -4576576.02100  22802837.43100                  -3423933.63240  22802840.91140
  10710554.20900  23184986.10300                   8409985.38440  23184990.20440
  -1784881.25600  25062715.25100                  -1319793.75440  25062719.89240
   7187509.50100  22946620.43800                   5686165.76640  22946622.92340
  -1057003.23600  23449728.63400                   -773655.67740  23449731.28240
 96  9  7  1 12  0.0050000  0  6  1 14 15 22 25 29
  39586562.18100  26212592.30600                  30944952.22540  26212595.28240
  -4577749.08900  22802614.39900                  -3424847.71040  22802617.68140
  10837301.74600  23209104.97800                   8508749.67840  23209109.23140
  -1818532.20900  25056311.47800                  -1346015.23540  25056317.87640
   7300241.65500  22968072.44600                   5774008.99640  22968074.90740
  -1041868.39400  23452608.53200                   -761862.28340  23452611.33340
 96  9  7  1 12 30.0050000  0  6  1 14 15 22 25 29
  39724112.88000  26238767.65700                  31052134.50640  26238770.22440
  -4578593.71700  22802453.32900                  -3425505.84640  22802456.69240
  10964572.83400  23233324.17300                   8607921.93540  23233328.25140
  -1852013.67300  25049940.56300                  -1372104.61640  25049944.80640
   7413420.86900  22989610.04000                   5862200.58740  22989612.38440
  -1026529.92700  23455527.36800                   -749910.22140  23455530.07540
 96  9  7  1 13  0.0050000  0  6  1 14 15 22 25 29
  39861724.51500  26264954.62600                  31159364.35640  26264958.11840
  -4579084.59200  22802360.25100                  -3425888.34440  22802363.52040
  11092399.40700  23257648.79000                   8707527.03040  23257652.71640
  -1885317.12000  25043602.79800                  -1398055.30140  25043608.15340
   7527081.92400  23011238.84500                   5950767.64040  23011241.15340
  -1010964.67700  23458489.44600                   -737781.44240  23458492.00140
 96  9  7  1 13 30.0050000  0  6  1 14 15 22 25 29
  39999297.45600  26291133.71200                  31266564.06640  26291135.76340
  -4579285.22900  22802321.64900                  -3426044.67240  22802324.96640
  11220687.34500  23282061.23500                   8807491.63440  23282065.16140
  -1918528.17000  25037282.96200                  -1423934.00940  25037287.39240
   7641147.66900  23032945.04000                   6039650.03440  23032947.45440
   -995273.57300  23461475.04800                   -725554.59740  23461477.57940
 96  9  7  1 14  0.0050000  0  6  1 14 15 22 25 29
  40136845.58800  26317308.07900                  31373744.37040  26317312.19240
  -4579167.37000  22802344.63400                  -3425952.83140  22802347.85640
  11349450.14600  23306563.79000                   8907826.26540  23306568.12640
  -1951625.31700  25030984.80600                  -1449723.94240  25030989.03640
   7755632.38000  23054730.84500                   6128858.89840  23054733.31740
   -979419.33400  23464492.14900                   -713200.63640  23464494.78640
 96  9  7  1 14 30.0050000  0  6  1 14 15 22 25 29
  40274316.57800  26343468.12600                  31480864.57440  26343469.68540
  -4578784.67700  22802416.97000                  -3425654.62540  22802420.40340
  11478623.78700  23331144.85300                   9008481.03440  23331148.61440
  -1984668.73500  25024697.01700                  -1475472.01640  25024701.36440
   7870466.51200  23076582.65700                   6218340.03240  23076585.16540
   -963445.35400  23467531.73500                   -700753.37040  23467534.47840
 96  9  7  1 15  0.0060000  0  6  1 14 15 22 25 29
  40411815.82400  26369633.40400                  31588006.85740  26369637.38940
  -4578023.01500  22802561.95900                  -3425061.11640  22802565.32240
  11608301.30400  23355821.88900                   9109528.41740  23355825.81440
  -2017551.62500  25018438.90400                  -1501094.99740  25018442.78340
   7985745.25300  23098519.61500                   6308167.61840  23098521.86540
   -947252.81300  23470613.26400                   -688135.79540  23470615.98240
 96  9  7  1 15 30.0060000  0  6  1 14 15 22 25 29
  40549285.80600  26395793.45900                  31695126.22940  26395797.25640
  -4576940.71700  22802768.30300                  -3424217.75840  22802771.60740
  11738412.35000  23380580.75600                   9210913.63040  23380585.24440
  -2050298.48700  25012207.90400                  -1526611.99340  25012212.11140
   8101390.52500  23120526.22500                   6398280.81240  23120528.46340
   -930898.91600  23473725.76400                   -675392.48540  23473728.57640
 96  9  7  1 16  0.0060000  0  6  1 14 15 22 25 29
  40686606.40100  26421924.12300                  31802129.31340  26421928.26040
  -4575712.90300  22803001.46700                  -3423261.01640  22803004.78340
  11868814.64700  23405395.41200                   9312525.78740  23405399.61940
  -2083046.06500  25005976.10000                  -1552129.52340  25005980.72840
   8217236.14600  23142570.81800                   6488550.12040  23142572.97540
   -914528.27500  23476840.69300                   -662636.12540  23476843.62340
 96  9  7  1 16 30.0060000  0  6  1 14 15 22 25 29
  40824016.04400  26448073.31800                  31909201.72740  26448074.80740
  -4574118.45400  22803305.24800                  -3422018.57540  22803308.75240
  11999735.07600  23430309.11500                   9414541.68440  23430312.90040
  -2115558.37400  24999789.06800                  -1577463.74240  24999794.55340
   8333506.71800  23164696.33400                   6579150.56440  23164698.59640
   -897923.13400  23480000.13100                   -649697.04140  23480002.80340
 96  9  7  1 17  0.0060000  0  6  1 14 15 22 25 29
  40961417.42100  26474219.91200                  32016267.73040  26474222.43240
  -4572273.24100  22803656.34200                  -3420580.74540  22803659.61140
  12131057.13400  23455298.95900                   9516870.53840  23455303.09640
  -2147933.16700  24993628.71700                  -1602690.82640  24993633.96740
   8450093.13700  23186882.30300                   6669997.11740  23186884.70540
   -881205.49300  23483181.65400                   -636670.29840  23483184.39640
 96  9  7  1 17 30.0060000  0  6  1 14 15 22 25 29
  41098867.94200  26500375.01400                  32123371.98440  26500380.43940
  -4570131.94000  22804063.94300                  -3418912.19340  22804067.30740
  12262832.00200  23480374.97500                   9619552.23140  23480378.98240
  -2180106.11300  24987506.37300                  -1627760.59940  24987510.83840
   8567045.34800  23209137.79500                   6761128.70440  23209140.20940
   -864322.22300  23486394.13900                   -623514.49040  23486396.69340
 96  9  7  1 18  0.0060000  0  6  1 14 15 22 25 29
  41236341.55400  26526536.16200                  32230494.30540  26526540.53340
  -4567701.86100  22804526.29500                  -3417018.61440  22804529.45940
  12395044.80300  23505533.92800                   9722575.16740  23505537.94740
  -2212105.83100  24981416.80300                  -1652695.41440  24981420.70540
   8684364.12100  23231462.36500                   6852545.92240  23231464.62740
   -847285.98900  23489636.02900                   -610239.49240  23489638.57240
 96  9  7  1 18 30.0060000  0  6  1 14 15 22 25 29
  41373779.21400  26552689.31100                  32337588.54040  26552690.89340
  -4564999.07400  22805040.38900                  -3414912.54040  22805043.65840
  12527654.16700  23530769.05300                   9825907.12240  23530773.03740
  -2243978.85300  24975351.82600                  -1677531.47840  24975355.90440
   8802021.96800  23253852.06800                   6944227.36140  23253854.48240
   -830132.96100  23492900.18600                   -596873.47840  23492902.79940
 96  9  7  1 19  0.0060000  0  6  1 14 15 22 25 29
  41511254.30400  26578849.65400                  32444711.98240  26578856.26440
  -4561920.84700  22805626.12300                  -3412513.91140  22805629.39340
  12660746.67500  23556095.49000                   9929615.54340  23556099.82640
  -2275644.33100  24969325.84200                  -1702205.84040  24969330.54140
   8920100.25400  23276321.40400                   7036236.40540  23276323.54940
   -812772.34300  23496203.52900                   -583345.70740  23496206.14340
 96  9  7  1 19 30.0060000  0  6  1 14 15 22 25 29
  41648721.02700  26605009.32600                  32551828.93440  26605013.53340
  -4558482.97400  22806280.66200                  -3409835.04640  22806284.03740
  12794298.73500  23581509.90400                  10033682.05740  23581513.91240
  -2307139.15700  24963332.18600                  -1726747.22840  24963337.40040
   9038566.97100  23298865.42000                   7128548.13340  23298867.70540
   -795225.63100  23499542.81800                   -569672.92640  23499545.35040
 96  9  7  1 20  0.0060000  0  6  1 14 15 22 25 29
  41786120.03900  26631153.81100                  32658893.03740  26631158.56840
  -4554727.44300  22806995.04500                  -3406908.65540  22806998.32640
  12928257.39000  23607001.20900                  10138065.39640  23607005.48640
  -2338526.80600  24957359.30300                  -1751205.11940  24957363.76840
   9157376.83000  23321473.67000                   7221127.23640  23321475.83840
   -777550.03300  23502906.56800                   -555899.72740  23502909.13540
 96  9  7  1 20 30.0060000  0  6  1 14 15 22 25 29
  41923492.37400  26657297.28700                  32765936.42640  26657300.97840
  -4550617.03100  22807777.14600                  -3403705.73040  22807780.52140
  13062649.13500  23632575.31100                  10242786.21940  23632579.48240
  -2369766.03200  24951414.82600                  -1775547.33440  24951419.32640
   9276545.05500  23344150.70900                   7313985.59640  23344152.78340
   -759719.93200  23506299.13100                   -542006.12440  23506301.76840
 96  9  7  1 21  0.0060000  0  5 14 15 22 25 29
  -4546167.33800  22808623.98200                  -3400238.42840  22808627.40440
  13197455.09700  23658227.93600                  10347829.79440  23658232.52940
  -2400860.39800  24945498.09200                  -1799776.69140  24945502.20540
   9396055.31900  23366892.95100                   7407110.47040  23366895.14340
   -741750.79900  23509718.81100                   -528004.19140  23509721.28340
 96  9  7  1 21 30.0060000  0  5 14 15 22 25 29
  -4541393.12400  22809532.60000                  -3396518.25740  22809535.82240
  13332669.86700  23683958.37300                  10453191.93340  23683962.31140
  -2431799.33500  24939610.61500                  -1823884.90040  24939613.65040
   9515917.00900  23389701.87300                   7500509.19240  23389703.99440
   -723639.32500  23513165.59200                   -513891.33940  23513168.24040
 96  9  7  1 22  0.0060000  0  5 14 15 22 25 29
  -4536328.23700  22810496.02100                  -3392571.58340  22810499.37340
  13468252.45500  23709758.83400                  10558840.67240  23709763.19340
  -2462603.69600  24933748.21700                  -1847888.24640  24933752.34240
   9636094.57400  23412570.54500                   7594154.05140  23412572.97140
   -705420.76300  23516632.22500                   -499695.04040  23516634.90840
 96  9  7  1 22 30.0060000  0  5 14 15 22 25 29
  -4530873.49100  22811534.28700                  -3388321.12340  22811537.69740
  13604305.07200  23735648.59200                  10664855.67240  23735653.17440
  -2493156.81600  24927934.32600                  -1871695.85240  24927939.24840
   9756688.46600  23435518.99800                   7688123.32140  23435521.26040
   -686979.91700  23520141.17000                   -485325.53740  23520143.72540
 96  9  7  1 23  0.0060000  0  5 14 15 22 25 29
  -4525108.91500  22812631.01400                  -3383829.23840  22812634.44740
  13740750.58800  23761613.89600                  10771176.82740  23761618.36140
  -2523535.23000  24922153.20100                  -1895367.28640  24922158.58040
   9877628.43700  23458533.30300                   7782362.26240  23458535.54140
   -668384.69600  23523679.99000                   -470835.73840  23523682.62740
 96  9  7  1 23 30.0060000  0  5 14 15 22 25 29
  -4518981.47700  22813797.31100                  -3379054.60940  22813800.75640
  13877639.10000  23787662.81100                  10877843.16540  23787667.35740
  -2553681.46600  24916416.63100                  -1918857.82840  24916421.11940
   9998961.10600  23481622.27100                   7876907.20040  23481624.46340
   -649592.97500  23527255.60700                   -456192.83040  23527258.27940
 96  9  7  1 24  0.0060000  0  5 14 15 22 25 29
  -4512493.61200  22815031.77900                  -3373999.12840  22815035.10740
  14014957.00800  23813793.06800                  10984844.10940  23813797.40440
  -2583611.13400  24910721.02100                  -1942179.60040  24910726.47140
  10120664.59800  23504780.96700                   7971741.09640  23504783.41640
   -630627.32100  23530865.13100                   -441414.38240  23530867.88540
 96  9  7  1 24 30.0060000  0  5 14 15 22 25 29
  -4505702.43500  22816324.10000                  -3368707.29240  22816327.41640
  14152636.39700  23839992.88900                  11092126.72840  23839997.26040
  -2613394.44400  24905053.73200                  -1965387.33440  24905058.01040
  10242676.11000  23527999.63100                   8066815.00440  23528001.90440
   -611550.26300  23534495.13100                   -426549.12640  23534497.72140
 96  9  7  1 25  0.0060000  0  5 14 15 22 25 29
  -4498694.65400  22817657.86500                  -3363246.67740  22817661.26440
  14290580.99000  23866243.11500                  11199615.98440  23866247.48640
  -2643119.77600  24899396.99000                  -1988549.88540  24899401.05740
  10364903.25600  23551258.58400                   8162056.93540  23551260.89340
   -592454.08600  23538128.91200                   -411668.97540  23538131.36140
 96  9  7  1 25 30.0060000  0  5 14 15 22 25 29
  -4491272.63100  22819069.87300                  -3357463.28040  22819073.15440
  14428983.31100  23892580.17800                  11307461.92940  23892584.04540
  -2672584.92800  24893789.96700                  -2011509.69840  24893793.50640
  10487535.94200  23574594.55300                   8257614.87540  23574596.95540
   -573140.45000  23541804.38100                   -396619.37240  23541806.86540
 96  9  7  1 26  0.0060000  0  5 14 15 22 25 29
  -4483396.54400  22820568.81800                  -3351326.06040  22820572.08840
  14567872.40100  23919010.01400                  11415687.15840  23919014.12740
  -2701753.79800  24888239.06800                  -2034238.65140  24888243.00640
  10610606.79100  23598014.40400                   8353514.24340  23598016.79540
   -553560.27300  23545529.83400                   -381362.07740  23545532.26040
 96  9  7  1 26 30.0060000  0  5 14 15 22 25 29
  -4475215.90300  22822125.02100                  -3344951.52840  22822128.46740
  14707096.34100  23945503.09200                  11524173.32240  23945507.36940
  -2730762.16300  24882719.64600                  -2056842.50640  24882723.93640
  10733965.83000  23621488.75600                   8449638.17040  23621491.02940
   -533850.51100  23549281.14600                   -366003.80140  23549283.49040
 96  9  7  1 27  0.0060000  0  5 14 15 22 25 29
  -4466673.07100  22823751.10700                  -3338294.77540  22823754.50640
  14846725.91000  23972073.86500                  11632975.55640  23972078.17840
  -2759530.73600  24877244.99800                  -2079259.57740  24877248.32640
  10857673.12600  23645029.81800                   8546033.46140  23645032.22140
   -513946.83100  23553068.39600                   -350494.42640  23553071.03340
 96  9  7  1 27 30.0060000  0  5 14 15 22 25 29
  -4457823.69100  22825435.13900                  -3331399.14840  22825438.43240
  14986700.86100  23998710.36500                  11742046.92340  23998714.90040
  -2788113.01100  24871805.60000                  -2101531.41540  24871809.60740
  10981660.24800  23668623.53700                   8642646.80340  23668626.13940
   -493920.00600  23556879.60000                   -334889.09740  23556882.07240
 96  9  7  1 28  0.0070000  0  5 14 15 22 25 29
  -4448651.62000  22827180.83100                  -3324252.07740  22827184.26540
  15127037.03800  24025415.30000                  11851399.76140  24025419.64740
  -2816487.92600  24866406.27600                  -2123641.69640  24866410.40140
  11105949.00400  23692274.47200                   8739495.17940  23692276.59340
   -473752.23500  23560717.32300                   -319173.93540  23560719.84340
 96  9  7  1 28 30.0070000  0  5 14 15 22 25 29
  -4439144.04000  22828989.55800                  -3316843.56540  22828992.83940
  15267744.38300  24052191.13600                  11961041.81340  24052195.17940
  -2844629.63000  24861050.65100                  -2145570.25140  24861056.11240
  11230546.40400  23715984.61200                   8836584.05840  23715987.07340
   -453430.42000  23564584.76100                   -303338.73940  23564587.33940
 96  9  7  1 29  0.0070000  0  5 14 15 22 25 29
  -4429403.00200  22830843.46400                  -3309253.13940  22830846.83940
  15408703.82700  24079014.59700                  12070880.31740  24079018.78040
  -2872656.04700  24855718.29200                  -2167409.00440  24855722.07740
  11355339.13500  23739732.26900                   8933825.14640  23739734.82340
   -433085.23900  23568455.40900                   -287485.33940  23568457.96440
 96  9  7  1 29 30.0070000  0  5 14 15 22 25 29
  -4419355.78500  22832755.28400                  -3301424.13540  22832758.44840
  15549972.65800  24105897.50300                  12180959.89840  24105901.76940
  -2900495.74200  24850419.95600                  -2189102.20840  24850425.12440
  11480403.12600  23763531.08900                   9031277.59640  23763533.60840
   -412645.21100  23572345.69000                   -271558.02940  23572348.11640
 96  9  7  1 30  0.0070000  0  5 14 15 22 25 29
  -4408883.07800  22834747.94800                  -3293263.57540  22834751.21840
  15691655.34600  24132858.96400                  12291361.97240  24132863.15940
  -2928040.46500  24845178.70600                  -2210565.58740  24845182.14040
  11605847.38200  23787402.43300                   9129026.36640  23787404.83540
   -391995.11900  23576274.80000                   -255467.03940  23576277.12040
 96  9  7  1 30 30.0070000  0  5 14 15 22 25 29
  -4398043.67800  22836810.85400                  -3284817.28640  22836814.11240
  15833674.19300  24159884.16700                  12402025.98040  24159888.90140
  -2955369.87200  24839977.00300                  -2231861.19840  24839981.02240
  11731582.96000  23811328.96400                   9227002.13240  23811331.27240
   -371229.07100  23580226.58100                   -239285.68740  23580228.97240
 96  9  7  1 31  0.0070000  0  5 14 15 22 25 29
  -4386791.43900  22838952.17500                  -3276049.29840  22838955.37440
  15976061.70900  24186979.40900                  12512977.25740  24186984.39040
  -2982447.95700  24834824.81500                  -2252960.93040  24834829.56140
  11857641.14900  23835316.91700                   9325229.28740  23835319.21440
   -350315.51800  23584206.54200                   -222989.39740  23584209.14440
 96  9  7  1 31 30.0070000  0  5 14 15 22 25 29
  -4375222.05100  22841153.97200                  -3267034.18140  22841157.27640
  16118721.04800  24214126.52600                  12624140.36840  24214131.17940
  -3009369.93700  24829701.48700                  -2273939.08140  24829705.65940
  11983912.50900  23859345.72900                   9423622.54640  23859348.22640
   -329334.98400  23588198.67500                   -206640.91340  23588201.01940
 96  9  7  1 32  0.0070000  0  5 14 15 22 25 29
  -4363231.12400  22843435.44800                  -3257690.59340  22843438.72940
  16261742.12900  24241342.49500                  12735585.33240  24241347.24140
  -3036057.20900  24824623.65900                  -2294734.33440  24824627.60840
  12110468.30100  23883428.16700                   9522237.44240  23883430.73340
   -308202.27700  23592220.15100                   -190173.85840  23592222.63640
 96  9  7  1 32 30.0070000  0  5 14 15 22 25 29
  -4350755.94600  22845809.48700                  -3247969.66440  22845812.67540
  16405199.13600  24268641.87800                  12847369.99440  24268646.27240
  -3062432.75300  24819604.28400                  -2315286.65540  24819609.04240
  12237395.54000  23907582.02600                   9621141.77740  23907584.24140
   -286842.22800  23596284.37000                   -173529.65840  23596286.81940
 96  9  7  1 33  0.0070000  0  6 14 15 18 22 25 29
  -4337884.35400  22848258.87000                  -3237939.84240  22848262.24540
  16549017.31500  24296009.57300                  12959436.07340  24296013.82740
     -3802.75510  26892409.75300
  -3088566.07600  24814631.28400                  -2335650.25140  24814634.87040
  12364639.12400  23931795.58900                   9720292.62040  23931797.76940
   -265300.82700  23600383.83900                   -156744.13840  23600386.15940
 96  9  7  1 33 30.0070000  0  6 14 15 18 22 25 29
  -4324662.00500  22850774.65100                  -3227636.69840  22850777.92140
  16693152.08900  24323437.62000                  13071748.85440  24323441.94440
    -26641.88100  26888062.33900
  -3114499.38400  24809695.51100                  -2355857.96540  24809700.51540
  12492163.19300  23956062.63600                   9819662.02040  23956064.74540
   -243612.01500  23604511.15900                   -139843.75240  23604513.51540
 96  9  7  1 34  0.0070000  0  6 14 15 18 22 25 29
  -4311162.24700  22853343.83100                  -3217117.40040  22853347.07740
  16837540.94000  24350913.68300                  13184259.62340  24350917.85440
    -49538.04200  26883704.88600
  -3140285.45500  24804789.16700                  -2375950.98940  24804792.90540
  12619925.95100  23980374.72900                   9919217.40840  23980377.15540
   -221843.23300  23608653.39400                   -122881.05440  23608655.87840
 96  9  7  1 34 30.0070000  0  6 14 15 18 22 25 29
  -4297364.79500  22855969.12800                  -3206366.12340  22855972.46840
  16982208.06100  24378443.31500                  13296987.21940  24378447.68640
    -72468.30900  26879342.66700
  -3165880.03000  24799918.06500                  -2395894.76240  24799922.47240
  12747967.72800  24004740.83900                  10018990.22340  24004743.13640
   -199959.40900  23612818.47200                   -105828.71840  23612820.83940
 96  9  7  1 35  0.0070000  0  6 14 15 18 22 25 29
  -4283254.01900  22858655.01100                  -3195370.70740  22858658.23340
  17127145.01300  24406023.51900                  13409925.07440  24406028.01940
    -95443.99400  26874969.40900
  -3191274.19300  24795085.87800                  -2415682.36340  24795091.01140
  12876266.21000  24029154.94800                  10118963.06140  24029157.66740
   -177971.94700  23617002.20600                    -88695.62040  23617004.64440
 96  9  7  1 35 30.0070000  0  6 14 15 18 22 25 29
  -4268692.50900  22861425.68300                  -3184024.06040  22861428.92940
  17272472.57500  24433678.58100                  13523167.30340  24433683.02240
   -118330.55900  26870614.83900
  -3216328.38600  24790318.40900                  -2435205.08540  24790321.98340
  13004922.53900  24053637.24500                  10219214.74840  24053639.84740
   -155779.61500  23621225.10400                    -71402.88540  23621227.55440
 96  9  7  1 36  0.0070000  0  6 14 15 18 22 25 29
  -4253598.72800  22864297.58900                  -3172262.66340  22864300.91740
  17418268.82000  24461422.69800                  13636774.73640  24461426.94040
   -141041.78100  26866294.34700                     -4714.19350  26866304.45240
  -3240954.94000  24785632.43300                  -2454394.55940  24785636.94440
  13134008.67600  24078201.89400                  10319801.34640  24078204.30840
   -133310.17900  23625500.58900                    -53894.22340  23625502.99140
 96  9  7  1 36 30.0070000  0  6 14 15 18 22 25 29
  -4238084.11600  22867250.02600                  -3160173.34640  22867253.36640
  17564405.66700  24489231.70600                  13750647.57240  24489236.46440
   -163718.24300  26861978.80000                    -22384.17440  26861988.00340
  -3265273.49000  24781004.85400                  -2473344.03640  24781008.56940
  13263375.31600  24102819.31500                  10420606.51840  24102821.96440
   -110693.29800  23629804.91700                    -36270.66740  23629807.43640
 96  9  7  1 37  0.0070000  0  6 14 15 18 22 25 29
  -4222215.95500  22870269.85400                  -3147808.53540  22870273.20640
  17710821.25200  24517093.43300                  13864737.61140  24517097.95640
   -186409.40300  26857658.51100                    -40065.57640  26857661.32340
  -3289336.21900  24776425.45600                  -2492094.18740  24776429.06540
  13392952.15700  24127476.71400                  10521575.48740  24127479.22240
    -87998.19900  23634123.65100                    -18586.16240  23634126.05440
 96  9  7  1 37 30.0070000  0  6 14 15 18 22 25 29
  -4206041.71100  22873347.51100                  -3135205.22440  22873350.81540
  17857479.30900  24545001.80000                  13979016.57640  24545006.37040
   -209146.20700  26853333.28400                    -57782.47140  26853336.91740
  -3313179.67500  24771888.15100                  -2510673.44740  24771892.27640
  13522717.74100  24152170.44000                  10622691.52340  24152172.85440
    -65248.19500  23638452.86200                      -858.87240  23638455.24140
 96  9  7  1 38  0.0070000  0  6 14 15 18 22 25 29
  -4189511.41200  22876492.97200                  -3122324.46140  22876496.38240
  18004421.17200  24572963.24500                  14093516.70740  24572967.88640
   -231879.32400  26849007.24500                    -75496.45440  26849014.71440
  -3336765.06600  24767399.80800                  -2529051.63540  24767404.17940
  13652732.20800  24176911.40100                  10724001.49640  24176913.67540
    -42380.02900  23642804.30000                     16960.48340  23642806.73740
 96  9  7  1 38 30.0070000  0  6 14 15 18 22 25 29
  -4172550.34200  22879720.76100                  -3109108.03840  22879724.17140
  18151708.05100  24600991.35400                  14208285.66540  24600995.46840
   -254546.67800  26844694.26100                    -93159.45140  26844700.69440
  -3360024.26800  24762973.84700                  -2547175.61940  24762978.52240
  13783071.43700  24201714.31500                  10825564.53340  24201716.68340
    -19321.96700  23647192.40100                     34927.82040  23647194.76940
 96  9  7  1 39  0.0070000  0  6 14 15 18 22 25 29
  -4155224.97700  22883017.43300                  -3095607.75040  22883020.77240
  18299268.78900  24629071.75300                  14323268.02840  24629076.32340
   -277204.52800  26840383.04200                   -110814.82540  26840388.93640
  -3383029.13600  24758596.47200                  -2565101.46740  24758600.86640
  13913675.69300  24226567.58900                  10927334.07840  24226570.00340
      3873.93000  23651606.30000                     53002.56040  23651608.58540
 96  9  7  1 39 30.0070000  0  5 14 15 22 25 29
  -4137479.39900  22886394.44800                  -3081780.02240  22886397.74140
  18447134.44000  24657209.20600                  14438487.98840  24657213.58940
  -3405754.69800  24754272.01900                  -2582809.64540  24754275.69840
  14044580.53700  24251477.53400                  11029337.86640  24251479.76140
     27262.37000  23656056.79200                     71227.32940  23656059.05440
 96  9  7  1 40  0.0070000  0  6 14 15 18 22 25 29
  -4119363.65200  22889841.58100                  -3067663.85140  22889844.86240
  18595249.87900  24685394.97900                  14553902.58540  24685399.71440
    -17372.73910  26831768.13600
  -3428253.83600  24749990.54200                  -2600341.40940  24749994.29240
  14175717.86400  24276432.58900                  11131522.79140  24276434.90940
     50796.08100  23660535.18300                     89565.29940  23660537.35140
 96  9  7  1 40 30.0070000  0  6 14 15 18 22 25 29
  -4100856.87700  22893363.62800                  -3053242.98140  22893366.89740
  18743645.99000  24713633.83100                  14669535.89040  24713638.15540
    -40013.58400  26827459.35400
  -3450487.42600  24745759.13600                  -2617666.22440  24745763.29640
  14307102.78200  24301434.54200                  11233900.65440  24301436.30040
     74501.06200  23665046.10400                    108036.72540  23665048.51940
 96  9  7  1 41  0.0080000  0  6 14 15 18 22 25 29
  -4082020.17500  22896947.87500                  -3038565.02940  22896951.19140
  18892261.95600  24741914.15600                  14785340.50440  24741918.50440
    -62708.67200  26823140.70300                     -3541.98850  26823144.44140
  -3472512.72700  24741568.00800                  -2634828.76240  24741572.05140
  14438663.97700  24326469.44500                  11336415.86740  24326471.48440
     98312.95800  23669577.38300                    126591.46640  23669579.70340
 96  9  7  1 41 30.0080000  0  6 14 15 18 22 25 29
  -4062824.94800  22900600.77300                  -3023607.70240  22900604.09040
  19041112.39500  24770239.47700                  14901327.83740  24770243.71940
    -85426.81300  26818816.60900                    -21244.48740  26818823.80940
  -3494293.16200  24737423.15600                  -2651800.48840  24737427.45740
  14570415.54600  24351541.03900                  11439079.43340  24351542.91440
    122240.50600  23674131.04700                    145236.32540  23674133.37940
 96  9  7  1 42  0.0080000  0  6 14 15 18 22 25 29
  -4043222.71700  22904331.05500                  -3008333.23840  22904334.24240
  19190247.99300  24798619.03900                  15017537.36140  24798623.43440
   -108110.84900  26814499.55500                    -38920.25240  26814502.75440
  -3515763.69900  24733337.25000                  -2668530.72640  24733342.23040
  14702406.97600  24376658.09400                  11541929.89140  24376660.47340
    146308.77800  23678710.30500                    163990.83840  23678712.75440
 96  9  7  1 42 30.0080000  0  6 14 15 18 22 25 29
  -4023202.83500  22908140.53100                  -2992733.32140  22908143.82440
  19339653.66300  24827050.81200                  15133957.32940  24827054.96140
   -130766.57800  26810189.77300                    -56574.04840  26810192.21140
  -3536926.81500  24729310.50800                  -2685021.42440  24729314.32840
  14834638.47100  24401820.86700                  11644967.42140  24401823.28140
    170493.20800  23683312.23400                    182835.86140  23683314.56640
 96  9  7  1 43  0.0080000  0  6 14 15 18 22 25 29
  -4002718.86100  22912038.74200                  -2976771.78340  22912042.11740
  19489363.88500  24855539.15600                  15250614.61740  24855543.70340
   -153353.09700  26805891.85200                    -74173.89040  26805893.93740
  -3557736.64300  24725349.87500                  -2701236.84740  24725354.97340
  14967156.06400  24427038.08600                  11748227.88240  24427040.33640
    194825.04500  23687943.07000                    201795.74840  23687945.44940
 96  9  7  1 43 30.0080000  0  6 14 15 18 22 25 29
  -3981763.66100  22916026.23400                  -2960443.04940  22916029.55140
  19639383.29400  24884086.96100                  15367512.84140  24884091.40240
   -175870.42000  26801606.30500                    -91719.83240  26801612.84440
  -3578185.59800  24721458.78100                  -2717171.03440  24721463.44540
  15099977.59000  24452312.91400                  11851725.17140  24452315.16440
    219311.06700  23692602.53100                    220875.77740  23692604.81640
 96  9  7  1 44  0.0080000  0  6 14 15 18 22 25 29
  -3960368.69900  22920097.47700                  -2943771.64440  22920100.78140
  19789684.42700  24912687.67200                  15484630.57140  24912692.43040
   -198354.29200  26797327.86700                   -109239.61640  26797332.40240
  -3598296.72800  24717631.88300                  -2732842.01340  24717635.62140
  15233088.89900  24477643.28100                  11955448.26540  24477645.85940
    243949.27300  23697291.03900                    240074.39140  23697293.44140
 96  9  7  1 44 30.0080000  0  6 14 15 18 22 25 29
  -3938602.25000  22924239.70300                  -2926810.77240  22924243.01940
  19940208.83700  24941332.34400                  15601922.29440  24941337.16040
   -220863.49700  26793044.21900                   -126779.28140  26793049.18740
  -3618138.78300  24713856.03100                  -2748303.31240  24713860.02740
  15366434.82300  24503018.44500                  12059354.17840  24503020.50840
    268692.34200  23701999.82800                    259354.71440  23702002.20740
 96  9  7  1 45  0.0080000  0  6 14 15 18 22 25 29
  -3916438.92000  22928456.99200                  -2909540.63540  22928460.32040
  20090992.75900  24970025.36700                  15719416.22840  24970029.17640
   -243360.83800  26788763.33600                   -144309.57940  26788767.80140
  -3637672.31300  24710138.60200                  -2763524.18040  24710143.60540
  15500044.01300  24528443.10200                  12163465.22340  24528445.53940
    293592.54700  23706737.65600                    278757.48640  23706739.88340
 96  9  7  1 45 30.0080000  0  6 14 15 18 22 25 29
  -3893835.05600  22932758.57000                  -2891927.22740  22932761.82840
  20242067.31700  24998774.03100                  15837136.62640  24998778.67240
   -265815.85300  26784490.97700                   -161806.93840  26784497.34040
  -3656866.30300  24706485.91400                  -2778480.50340  24706490.19140
  15633942.82400  24553923.29700                  12267801.95740  24553925.89840
    318696.17400  23711514.81200                    298318.76640  23711517.15640
 96  9  7  1 46  0.0080000  0  6 14 15 18 22 25 29
  -3870803.98400  22937141.03900                  -2873980.93140  22937144.25040
  20393414.10400  25027574.53900                  15955069.16640  25027578.64140
   -288231.65300  26780224.75800                   -179273.74340  26780228.71940
  -3675733.76100  24702895.78100                  -2793182.37540  24702899.74240
  15768101.78900  24579452.76600                  12372341.41340  24579455.48440
    343985.63000  23716327.30500                    318024.84640  23716329.68440
 96  9  7  1 46 30.0080000  0  6 14 15 18 22 25 29
  -3847328.82700  22941608.20300                  -2855688.59640  22941611.53140
  20545036.63700  25056426.68700                  16073216.55540  25056431.85540
   -310593.12600  26775968.93700                   -196698.23440  26775972.92240
  -3694263.32200  24699369.52300                  -2807620.95140  24699373.62540
  15902510.79200  24605030.39100                  12477075.68940  24605033.00440
    369449.24200  23721172.93000                    337866.63840  23721175.18040
 96  9  7  1 47  0.0080000  0  6 14 15 18 22 25 29
  -3823425.37800  22946156.93000                  -2837062.52740  22946160.23440
  20696905.31700  25085326.56200                  16191555.74840  25085330.98040
   -332923.49500  26771719.43000                   -214098.45840  26771723.68440
  -3712460.65700  24695906.32000                  -2821800.66140  24695910.45740
  16037146.24200  24630650.14100                  12581986.42540  24630652.83640
    395065.68300  23726047.68000                    357827.50840  23726050.05940
 96  9  7  1 47 30.0080000  0  6 14 15 18 22 25 29
  -3799105.33400  22950785.16400                  -2818111.84040  22950788.38740
  20849008.37600  25114271.69500                  16310077.58540  25114276.21940
   -355235.05800  26767473.00000                   -231484.06040  26767478.59040
  -3730332.75700  24692505.51600                  -2835726.92540  24692509.62940
  16171997.48300  24656311.43000                  12687065.30740  24656314.00840
    420820.98300  23730948.40600                    377896.58640  23730950.56240
 96  9  7  1 48  0.0080000  0  6 14 15 18 22 25 29
  -3774366.86200  22955492.28900                  -2798835.10340  22955495.66440
  21001353.03500  25143261.43000                  16428787.67540  25143266.37540
   -377514.81700  26763234.02300                   -248844.86240  26763240.14140
  -3747868.33300  24689169.07800                  -2849390.97340  24689173.21540
  16307082.06300  24682017.14800                  12792326.00640  24682019.69140
    446729.86100  23735878.63300                    398085.32840  23735880.74240
 96  9  7  1 48 30.0080000  0  6 14 15 18 22 25 29
  -3749194.10000  22960282.85900                  -2779219.96240  22960286.14140
  21153944.84200  25172298.53100                  16547690.34740  25172302.41040
   -399760.14600  26759000.25800                   -266178.80840  26759003.83240
  -3765046.58100  24685900.68000                  -2862776.57540  24685903.98440
  16442405.99200  24707768.63300                  12897773.22940  24707771.23440
    472800.84000  23740840.13300                    418400.39640  23740842.41840
 96  9  7  1 49  0.0080000  0  6 14 15 18 22 25 29
  -3723568.22000  22965159.23400                  -2759251.74140  22965162.53940
  21306786.25400  25201383.70300                  16666787.50740  25201388.84840
   -421973.81400  26754773.03100                   -283488.10040  26754778.87940
  -3781860.96200  24682700.50800                  -2875878.66040  24682704.56240
  16577976.61100  24733567.13300                  13003412.66740  24733569.65240
    499045.82600  23745834.17200                    438851.04740  23745836.49240
 96  9  7  1 49 30.0080000  0  6 14 15 18 22 25 29
  -3697416.24700  22970135.65600                  -2738873.57540  22970138.83240
  21459940.12200  25230527.32000                  16786128.15940  25230532.05540
   -444097.49900  26750562.82800                   -300727.29140  26750567.60940
  -3798245.51400  24679583.07800                  -2888645.77040  24679586.75840
  16713853.65700  24759424.19500                  13109290.87140  24759426.66840
    525538.95900  23750875.39800                    459495.05540  23750877.64840
 96  9  7  1 50  0.0080000  0  6 14 15 18 22 25 29
  -3670853.66500  22975190.42200                  -2718175.44540  22975193.82040
  21613272.70700  25259705.53100                  16905608.06340  25259710.01940
   -466260.12500  26746345.44500                   -317996.78640  26746349.12540
  -3814329.14200  24676521.60200                  -2901178.45040  24676525.38740
  16849896.30300  24785311.25800                  13215298.12940  24785313.34440
    552145.89900  23755938.69500                    480227.73340  23755940.94540
 96  9  7  1 50 30.0080000  0  6 14 15 18 22 25 29
  -3643802.96700  22980337.86700                  -2697096.98940  22980341.07840
  21766852.57600  25288931.40600                  17025280.65140  25288936.35240
   -488397.97300  26742134.74200                   -335247.00140  26742139.78140
  -3830037.66800  24673533.02300                  -2913418.79740  24673537.04340
  16986163.31400  24811242.50000                  13321480.21140  24811244.87940
    578925.62000  23761034.70300                    501095.07340  23761036.93040
 96  9  7  1 51  0.0080000  0  6 14 15 18 22 25 29
  -3616393.25400  22985554.05500                  -2675738.76940  22985557.12540
  21920552.90800  25318178.84400                  17145047.11240  25318183.51940
   -510625.63400  26737903.07000                   -352567.15640  26737908.61340
  -3845501.82400  24670590.68700                  -2925468.75740  24670593.84040
  17122537.60400  24837194.02300                  13427745.88140  24837196.77740
    605765.32800  23766141.75000                    522009.14440  23766144.03540
 96  9  7  1 51 30.0080000  0  6 14 15 18 22 25 29
  -3588540.63000  22990853.85200                  -2654035.42440  22990857.10940
  22074470.00700  25347469.03900                  17264982.47040  25347473.66840
   -532823.18700  26733680.25800                   -369863.86640  26733682.39140
  -3860618.75600  24667712.70300                  -2937248.14340  24667716.69940
  17259112.85400  24863182.39800                  13534168.15140  24863184.60240
    632759.99300  23771278.65600                    543043.95840  23771281.05940
 96  9  7  1 52  0.0080000  0  6 14 15 18 22 25 29
  -3560208.75400  22996245.36700                  -2631958.63640  22996248.50840
  22228644.14700  25376807.54700                  17385118.13440  25376811.80140
   -554932.74900  26729472.63300                   -387092.03740  26729475.66840
  -3875343.55100  24664910.96100                  -2948721.95740  24664915.47340
  17395932.56400  24889218.97700                  13640780.91440  24889221.19140
    659926.51100  23776448.84400                    564212.68640  23776451.17640
 96  9  7  1 52 30.0080000  0  6 14 15 18 22 25 29
  -3531402.77700  23001727.21900                  -2609512.41540  23001730.44140
  22383062.57400  25406192.35900                  17505444.13840  25406197.14140
   -576955.71500  26725281.65600                   -404252.71040  26725283.88340
  -3889661.59900  24662186.57800                  -2959878.84740  24662190.17640
  17533003.63200  24915302.85900                  13747589.53440  24915305.46140
    687248.60900  23781647.90600                    585502.64640  23781650.26240
 96  9  7  1 53  0.0080000  0  6 14 15 18 22 25 29
  -3502075.63200  23007307.64800                  -2586660.09340  23007310.78940
  22537767.62600  25435631.51600                  17625993.49140  25435636.41440
   -598836.05300  26721117.74200                   -421302.25340  26721123.15640
  -3903517.02100  24659549.00800                  -2970675.23140  24659553.28540
  17670370.24200  24941443.16400                  13854628.43840  24941445.43740
    714776.64300  23786886.29700                    606953.06740  23786888.62940
 96  9  7  1 53 30.0080000  0  6 14 15 18 22 25 29
  -3472329.08500  23012968.62500                  -2563480.96740  23012971.94140
  22692654.15100  25465105.33600                  17746684.24840  25465110.60940
   -620693.03900  26716959.78900                   -438333.61740  26716964.52340
  -3916998.22600  24656984.22700                  -2981180.04140  24656988.30540
  17807922.00300  24967617.75800                  13961811.63940  24967620.14840
    742396.88900  23792142.08600                    628475.34940  23792144.26640
 96  9  7  1 54  0.0080000  0  6 14 15 18 22 25 29
  -3442177.70400  23018705.87500                  -2539986.38340  23018709.10940
  22847690.90700  25494608.41400                  17867492.08640  25494613.27740
   -642574.81500  26712793.90600                   -455384.27240  26712797.21140
  -3930122.64100  24654486.50800                  -2991406.79340  24654490.79740
  17945634.00400  24993823.62500                  14069119.68440  24993825.89840
    770083.94400  23797410.60900                    650049.68540  23797412.85940
 96  9  7  1 54 30.0090000  0  6 14 15 18 22 25 29
  -3411540.02100  23024536.51300                  -2516112.86240  23024539.58340
  23002952.12700  25524153.23900                  17988474.81340  25524157.69240
   -664419.82500  26708637.40300                   -472406.27440  26708643.02840
  -3942823.25000  24652069.91900                  -3001303.34840  24652073.54040
  18083574.61900  25020072.94200                  14176605.88140  25020075.43840
    797937.13500  23802710.91100                    671753.48140  23802713.30240
 96  9  7  1 55  0.0090000  0  6 14 15 18 22 25 29
  -3380443.20200  23030453.78600                  -2491881.57040  23030456.98540
  23158412.55900  25553736.29400                  18109612.77840  25553740.89940
   -686229.95800  26704486.17700                   -489401.14940  26704491.94240
  -3955133.82800  24649726.91900                  -3010895.95540  24649730.97440
  18221716.56500  25046360.22400                  14284248.95240  25046362.62640
    825957.83100  23808043.26300                    693587.80140  23808045.52440
 96  9  7  1 55 30.0090000  0  6 14 15 18 22 25 29
  -3348884.24300  23036458.98100                  -2467290.17440  23036462.15740
  23314060.95300  25583355.52000                  18230897.21940  25583360.18540
   -708010.69200  26700342.47400                   -506373.07340  26700346.96240
  -3967069.78600  24647455.80200                  -3020196.66240  24647459.24740
  18360062.54600  25072686.85600                  14392051.01740  25072689.28240
    854136.06300  23813405.16100                    715544.87440  23813407.45840
 96  9  7  1 56  0.0090000  0  6 14 15 18 22 25 29
  -3316828.88900  23042559.13800                  -2442311.97340  23042562.32540
  23469918.01800  25613013.94200                  18352344.23940  25613018.26740
   -729728.92100  26696207.98900                   -523296.31840  26696213.25140
  -3978613.21100  24645259.59900                  -3029191.49140  24645263.56040
  18498644.93200  25099057.89500                  14500037.29340  25099060.28640
    882508.47300  23818804.56000                    737653.25640  23818806.89240
 96  9  7  1 56 30.0090000  0  6 14 15 18 22 25 29
  -3284364.26600  23048736.81000                  -2417014.86040  23048740.06740
  23625900.58500  25642696.59100                  18473889.06740  25642701.17340
   -751452.91400  26692075.36400                   -540224.05240  26692078.32940
  -3989850.12200  24643121.35600                  -3037947.49640  24643124.70840
  18637384.71900  25125459.68500                  14608146.21740  25125462.20440
    911012.10900  23824228.70000                    759863.88540  23824230.86840
 96  9  7  1 57  0.0090000  0  6 14 15 18 22 25 29
  -3251374.93800  23055014.66900                  -2391308.88740  23055017.84540
  23782112.98000  25672422.82500                  18595612.97340  25672428.40340
   -773084.41400  26687959.46600                   -557079.73040  26687963.01740
  -4000659.57500  24641063.88800                  -3046370.41240  24641067.36840
  18776391.03200  25151910.86400                  14716462.82040  25151913.58340
    939753.18200  23829698.09100                    782259.53540  23829700.41140
 96  9  7  1 57 30.0090000  0  6 14 15 18 22 25 29
  -3217901.23800  23061384.64500                  -2365225.48240  23061387.86840
  23938503.48200  25702183.38800                  18717475.67240  25702187.26740
   -794698.28700  26683845.66900                   -573921.65840  26683849.99340
  -4011078.85600  24639081.17700                  -3054489.29740  24639084.49340
  18915605.89200  25178403.09100                  14824941.93940  25178405.37640
    968677.91400  23835202.05200                    804798.29540  23835204.14940
 96  9  7  1 58  0.0090000  0  6 14 15 18 22 25 29
  -3183967.29800  23067841.92700                  -2338783.44640  23067845.14940
  24095075.22800  25731977.56000                  18839479.61040  25731982.88040
   -816301.46300  26679734.27800                   -590755.24240  26679740.44240
  -4021100.45800  24637174.35600                  -3062298.28440  24637177.90740
  19055013.02600  25204931.62200                  14933570.85940  25204934.95040
    997790.70800  23840742.33300                    827483.59740  23840744.59540
 96  9  7  1 58 30.0090000  0  6 14 15 18 22 25 29
  -3149600.96100  23074381.23100                  -2312004.47640  23074384.47740
  24251799.80800  25761801.29400                  18961602.62540  25761805.72440
   -837913.64200  26675622.57500                   -607595.86140  26675626.56040
  -4030747.53400  24635338.37200                  -3069815.47340  24635341.68840
  19194574.47300  25231489.56700                  15042320.04640  25231492.13440
   1027055.87000  23846311.22400                    850287.62740  23846313.39240
 96  9  7  1 59  0.0090000  0  6 14 15 18 22 25 29
  -3114849.25400  23080994.33300                  -2284925.21840  23080997.53240
  24408627.15800  25791644.40300                  19083805.71640  25791648.96240
   -859585.71800  26671497.18500                   -624483.15740  26671498.70840
  -4040065.31800  24633565.03600                  -3077076.03240  24633568.98540
  19334237.29500  25258065.73900                  15151148.21740  25258068.62240
   1056395.17100  23851893.95000                    873149.42640  23851896.15340
 96  9  7  1 59 30.0090000  0  6 14 15 18 22 25 29
  -3079636.58300  23087695.30200                  -2257486.77340  23087698.45440
  24565637.92900  25821523.23900                  19206151.74140  25821528.04440
   -881223.88300  26667380.14500                   -641344.04440  26667383.79040
  -4048967.50400  24631870.79400                  -3084012.78140  24631873.93540
  19474083.03400  25284677.18500                  15260118.92840  25284680.09140
   1085876.34700  23857504.01300                    896121.77940  23857506.25140
 96  9  7  2  0  0.0090000  0  6 14 15 18 22 25 29
  -3043949.37500  23094486.45000                  -2229678.55740  23094489.60240
  24722834.59100  25851436.91100                  19328642.62040  25851441.24740
   -902805.81600  26663274.36400                   -658161.07540  26663276.68540
  -4057440.53200  24630258.39500                  -3090615.09440  24630262.08740
  19614113.91000  25311324.91900                  15369233.88940  25311327.68540
   1115508.79800  23863143.04400                    919212.00440  23863145.29440
 96  9  7  2  0 30.0090000  0  6 14 15 18 22 25 29
  -3007797.50200  23101365.70800                  -2201508.25940  23101368.93140
  24880166.79900  25881375.75500                  19451239.11040  25881380.94640
   -924372.25000  26659169.45000                   -674966.06040  26659173.34140
  -4065521.34000  24628721.22400                  -3096911.80340  24628724.99740
  19754291.65600  25337999.81700                  15478463.30340  25338002.23140
   1145250.98100  23868802.61400                    942387.73940  23868804.85240
 96  9  7  2  1  0.0090000  0  6 14 15 18 22 25 29
  -2971139.96200  23108341.43500                  -2172943.93640  23108344.71640
  25037665.23500  25911347.01300                  19573965.14140  25911351.66540
   -945891.80400  26655074.46600                   -691734.50140  26655078.08740
  -4073164.66500  24627266.34100                  -3102867.58740  24627270.74740
  19894647.67500  25364708.65300                  15587831.62540  25364711.00940
   1175144.75700  23874491.48100                    965681.59840  23874493.72040
 96  9  7  2  1 30.0090000  0  6 14 15 18 22 25 29
  -2933993.79000  23115410.16100                  -2143998.86540  23115413.33740
  25195311.61200  25941345.46600                  19696806.43940  25941350.23540
   -967370.97500  26650987.20800                   -708471.46840  26650990.54840
  -4080370.76400  24625895.06700                  -3108482.71740  24625898.25540
  20035163.70700  25391447.89500                  15697324.63840  25391450.21640
   1205202.02000  23880211.08300                    989102.84440  23880213.31040
 96  9  7  2  2  0.0090000  0  6 14 15 18 22 25 29
  -2896336.77500  23122575.96600                  -2114655.72940  23122579.39940
  25353124.41700  25971376.83300                  19819777.41540  25971381.40340
   -988788.33800  26646911.47400                   -725160.26840  26646915.02440
  -4087119.02100  24624610.83300                  -3113741.05140  24624614.86440
  20175867.69900  25418223.23900                  15806964.12040  25418225.63040
   1235467.69300  23885970.11400                   1012686.48840  23885972.24740
 96  9  7  2  2 30.0090000  0  6 14 15 18 22 25 29
  -2858171.67100  23129838.48900                  -2084916.68240  23129841.60640
  25511110.18700  26001440.43500                  19942883.17440  26001445.89540
  -1010136.51600  26642849.57500                   -741795.15940  26642854.14540
  -4093392.03900  24623416.95800                  -3118629.06940  24623421.24740
  20316786.96100  25445038.91100                  15916771.33140  25445041.71240
   1265939.14400  23891768.87200                   1036430.48340  23891771.02840
 96  9  7  2  3  0.0090000  0  6 14 15 18 22 25 29
  -2819617.65800  23137175.25500                  -2054874.59640  23137178.46640
  25669165.85900  26031517.12200                  20066043.41040  26031521.83340
  -1031516.92200  26638779.64500                   -758455.15640  26638784.15740
  -4099292.54400  24622294.36400                  -3123226.84340  24622297.89240
  20457829.15800  25471877.98900                  16026674.34540  25471880.12240
   1296502.07100  23897584.55200                   1060245.75240  23897586.77840
 96  9  7  2  3 30.0090000  0  6 14 15 18 22 25 29
  -2780606.49900  23144598.79400                  -2024476.28640  23144602.13440
  25827362.10700  26061621.84900                  20189313.17840  26061626.12640
  -1052856.41700  26634719.36400                   -775083.30540  26634723.20840
  -4104754.17800  24621254.67700                  -3127482.61640  24621258.62640
  20599070.63500  25498755.89500                  16136732.64040  25498758.56740
   1327223.03500  23903430.68500                   1084184.16740  23903432.92340
 96  9  7  2  4  0.0090000  0  6 14 15 18 22 25 29
  -2741095.84700  23152117.58300                  -1993688.76440  23152120.70040
  25985710.04700  26091754.08300                  20312701.15040  26091758.32540
  -1074146.53800  26630668.73100                   -791672.97340  26630672.83340
  -4109778.17300  24620299.09100                  -3131397.37540  24620302.46640
  20740518.92800  25525672.69200                  16246952.08740  25525675.10640
   1358094.50300  23909305.38800                   1108239.86240  23909307.73140
 96  9  7  2  4 30.0090000  0  6 14 15 18 22 25 29
  -2701031.23800  23159741.53600                  -1962469.58540  23159744.72440
  26144249.86600  26121923.02800                  20436238.63140  26121928.17340
  -1095341.64600  26626635.89500                   -808188.59140  26626639.35240
  -4114324.49100  24619433.77000                  -3134939.92840  24619437.83740
  20882199.58300  25552633.59100                  16357352.59240  25552635.84140
   1389139.35700  23915213.23900                   1132430.66040  23915215.47740
 96  9  7  2  5  0.0090000  0  6 14 15 18 22 25 29
  -2660474.36500  23167459.05200                  -1930866.82740  23167462.23940
  26302898.13300  26152113.30200                  20559860.63540  26152118.27040
  -1116520.97400  26622605.44200                   -824691.90140  26622608.52440
  -4118485.98200  24618642.20000                  -3138182.61040  24618645.51740
  21024005.90900  25579618.40300                  16467851.02940  25579620.89940
   1420303.37100  23921143.17700                   1156714.31040  23921145.33340
 96  9  7  2  5 30.0090000  0  6 14 15 18 22 25 29
  -2619427.18900  23175270.28600                  -1898882.01140  23175273.47440
  26461638.06400  26182320.14500                  20683554.06140  26182324.51740
  -1137692.04900  26618575.73900                   -841188.81040  26618579.26740
  -4122272.38500  24617921.27000                  -3141133.02440  24617924.69240
  21165917.90700  25606623.02800                  16578431.81840  25606625.40740
   1451595.14900  23927098.15300                   1181097.51940  23927100.43840
 96  9  7  2  6  0.0090000  0  6 14 15 18 22 25 29
  -2577886.22600  23183175.10600                  -1866512.42640  23183178.39940
  26620471.60100  26212544.84900                  20807320.40040  26212550.04040
  -1158851.71300  26614549.02000                   -857676.82040  26614551.68140
  -4125667.22200  24617274.75500                  -3143778.32540  24617278.56340
  21307939.37000  25633649.09100                  16689097.89540  25633651.54040
   1483022.89300  23933078.68500                   1205586.67140  23933080.95840
 96  9  7  2  6 30.0090000  0  6 14 15 18 22 25 29
  -2535848.93900  23191174.46600                  -1833756.09640  23191177.73540
  26779424.25500  26242792.57500                  20931179.59240  26242797.88440
  -1179969.58900  26610530.27000                   -874132.27440  26610533.24740
  -4128615.82500  24616714.05200                  -3146075.89840  24616717.54440
  21450106.16100  25660702.34100                  16799877.21040  25660704.38040
   1514631.01600  23939093.34100                   1230216.38340  23939095.61440
 96  9  7  2  7  0.0090000  0  6 14 15 18 22 25 29
  -2493269.23800  23199277.22400                  -1800577.10640  23199280.45840
  26938544.18100  26273072.04400                  21055169.12040  26273077.32940
  -1200994.17900  26606529.56700                   -890515.03840  26606534.37240
  -4131053.21700  24616250.47400                  -3147975.13440  24616254.22440
  21592475.45900  25687794.68500                  16910814.33140  25687797.98940
   1546481.97200  23945154.21600                   1255035.31840  23945156.46640
 96  9  7  2  7 30.0090000  0  6 14 15 18 22 25 29
  -2450232.94000  23207466.88800                  -1767042.32640  23207470.07540
  27097750.50100  26303368.23100                  21179225.95240  26303373.21240
  -1222000.40300  26602531.63800                   -906883.48440  26602535.41140
  -4133047.36700  24615871.07500                  -3149528.98840  24615874.15740
  21734969.22300  25714909.93500                  17021848.42140  25714913.33340
   1578470.86300  23951241.84100                   1279961.73340  23951244.07940
 96  9  7  2  8  0.0100000  0  6 14 15 18 22 25 29
  -2406716.96400  23215747.39300                  -1733133.77640  23215750.55740
  27257068.37900  26333685.13500                  21303369.72840  26333690.84240
  -1242976.05500  26598540.81400                   -923228.09740  26598545.35040
  -4134559.12300  24615582.53300                  -3150706.94840  24615586.38940
  21877599.59700  25742051.37700                  17132988.96140  25742053.47540
   1610613.08500  23957357.94700                   1305007.62440  23957360.26840
 96  9  7  2  8 30.0100000  0  6 14 15 18 22 25 29
  -2362685.42500  23224126.28300                  -1698823.48640  23224129.55340
  27416515.17400  26364027.11100                  21427613.92640  26364032.31440
  -1263890.72400  26594560.75200                   -939525.20140  26594565.38140
  -4135564.45500  24615391.79100                  -3151490.28540  24615395.57640
  22020386.23400  25769223.47100                  17244251.28840  25769226.48240
   1642950.61000  23963511.90000                   1330205.70640  23963514.04540
 96  9  7  2  9  0.0100000  0  6 14 15 18 22 25 29
  -2318143.26500  23232602.47800                  -1664115.31340  23232605.74840
  27576079.13100  26394391.08000                  21551949.45440  26394396.13140
  -1284764.37600  26590588.46300                   -955790.33840  26590592.11940
  -4136100.48700  24615289.90000                  -3151907.94840  24615292.85340
  22163310.82900  25796420.61900                  17355621.09640  25796423.09240
   1675469.62600  23969699.83000                   1355545.21140  23969702.05740
 96  9  7  2  9 30.0100000  0  6 14 15 18 22 25 29
  -2273099.51700  23241174.18200                  -1629016.28940  23241177.31040
  27735745.30100  26424774.81400                  21676364.62040  26424780.01840
  -1305617.37600  26586620.34600                   -972039.39340  26586624.37740
  -4136179.20900  24615274.66600                  -3151969.24640  24615277.80740
  22306365.80300  25823643.40800                  17467092.51440  25823645.84640
   1708152.31900  23975919.15800                   1381012.25140  23975921.31440
 96  9  7  2 10  0.0100000  0  6 14 15 18 22 25 29
  -2227635.04400  23249825.86900                  -1593589.42840  23249828.98640
  27895434.15400  26455163.11100                  21800797.47340  26455167.47140
  -1326538.47800  26582638.36100                   -988341.47040  26582642.75640
  -4135877.80000  24615331.67400                  -3151734.35040  24615334.97840
  22449502.10300  25850881.39300                  17578627.28440  25850883.51440
   1740931.31800  23982157.09600                   1406554.34340  23982159.27540
 96  9  7  2 10 30.0100000  0  6 14 15 18 22 25 29
  -2181754.95900  23258556.41600                  -1557838.71340  23258559.58040
  28055138.53000  26485552.35300                  21925242.39940  26485557.97840
  -1347520.29300  26578646.59600                  -1004690.91240  26578651.21340
  -4135219.12800  24615457.79900                  -3151221.07140  24615461.11540
  22592728.18400  25878136.30700                  17690232.01740  25878139.09640
   1773797.30100  23988411.12700                   1432164.21240  23988413.11940
 96  9  7  2 11  0.0100000  0  6 14 15 18 22 25 29
  -2135348.04100  23267387.29900                  -1521677.48040  23267390.51040
  28214959.31900  26515966.34600                  22049778.03240  26515970.74040
  -1368446.96300  26574663.98600                  -1020997.34340  26574666.37740
  -4134080.74800  24615673.96300                  -3150333.98740  24615677.29140
  22736150.26400  25905428.10300                  17801989.48840  25905430.43540
   1806834.61900  23994697.68900                   1457907.59340  23994699.92840
 96  9  7  2 11 30.0100000  0  6 14 15 18 22 25 29
  -2088424.28000  23276316.77500                  -1485113.51240  23276319.91640
  28374879.04800  26546398.01000                  22174390.78740  26546402.24040
  -1389324.39700  26570691.22800                  -1037265.42740  26570695.01440
  -4132455.28000  24615983.24400                  -3149067.35640  24615987.27540
  22879762.56900  25932757.19700                  17913895.18040  25932758.59240
   1840023.26600  24001013.31400                   1483768.88940  24001015.43540
 96  9  7  2 12  0.0100000  0  6 14 15 18 22 25 29
  -2040995.12900  23285341.98600                  -1448155.73740  23285345.13940
  28534882.57700  26576845.54100                  22299068.82840  26576850.40440
  -1410151.57000  26566727.93900                  -1053494.34440  26566731.64340
  -4130354.58800  24616382.45500                  -3147430.42640  24616386.46340
  23023532.27700  25960115.54900                  18025923.52040  25960118.23240
   1873362.69300  24007357.78300                   1509747.67640  24007359.89340
 96  9  7  2 12 30.0100000  0  6 14 15 18 22 25 29
  -1993046.53800  23294466.34600                  -1410793.19840  23294469.47540
  28694966.22200  26607308.93900                  22423809.30640  26607313.62740
  -1430911.65800  26562778.03300                  -1069670.99240  26562781.36140
  -4127769.87800  24616875.14300                  -3145416.34140  24616878.35340
  23167430.34000  25987498.54900                  18138051.88640  25987501.29140
   1906860.59000  24013731.97800                   1535849.95140  24013734.17040
 96  9  7  2 13  0.0100000  0  6 14 15 18 22 25 29
  -1944615.36600  23303682.42400                  -1373054.62640  23303685.77540
  28855091.90300  26637778.74400                  22548582.50940  26637782.17840
  -1451642.01100  26558832.40000                  -1085824.43940  26558836.15040
  -4124721.76400  24617454.43900                  -3143041.15840  24617458.06040
  23311423.34700  26014898.93900                  18250254.23140  26014901.22540
   1940486.89500  24020130.97800                   1562052.28240  24020133.21740
 96  9  7  2 13 30.0100000  0  6 14 15 18 22 25 29
  -1895654.31800  23312999.54100                  -1334903.16240  23313002.77540
  29015309.43100  26668268.35300                  22673427.30540  26668273.66240
  -1472296.38700  26554901.36100                  -1101918.71240  26554905.54540
  -4121164.66900  24618131.72800                  -3140269.36140  24618135.09240
  23455556.58200  26042327.13500                  18362565.83940  26042329.13940
   1974307.35000  24026566.81400                   1588405.89840  24026569.05340
 96  9  7  2 14  0.0100000  0  6 14 15 18 22 25 29
  -1846243.36000  23322402.12700                  -1296401.11840  23322405.32640
  29175533.05900  26698757.61900                  22798276.86540  26698762.63540
  -1492964.67800  26550969.01000                  -1118023.83640  26550973.85040
  -4117181.26800  24618889.90800                  -3137165.38440  24618893.04940
  23599734.92700  26069763.23600                  18474912.60040  26069765.99040
   2008249.49900  24033025.70500                   1614854.33640  24033027.99040
 96  9  7  2 14 30.0100000  0  6 14 15 18 22 25 29
  -1796222.64800  23331920.87700                  -1257423.93840  23331924.02940
  29335919.75500  26729277.78300                  22923253.48240  26729282.85740
  -1513499.50100  26547061.15000                  -1134024.94640  26547064.40840
  -4112612.28800  24619758.53300                  -3133605.11440  24619762.44740
  23744138.45500  26097242.04100                  18587434.81240  26097244.77140
   2042459.45300  24039535.51800                   1641511.45640  24039537.73240
 96  9  7  2 15  0.0100000  0  6 14 15 18 22 25 29
  -1745730.71400  23341529.04100                  -1218079.57740  23341532.27540
  29496336.97200  26759804.09600                  23048253.84540  26759809.42840
  -1534037.38100  26543153.55700                  -1150028.42240  26543156.73240
  -4107585.84900  24620715.34600                  -3129688.37340  24620718.96740
  23888631.90300  26124738.17400                  18700027.11740  26124740.85740
   2076797.58900  24046069.96300                   1668268.45940  24046072.16640
 96  9  7  2 15 30.0100000  0  6 14 15 18 22 25 29
  -1694712.13700  23351237.36900                  -1178324.84240  23351240.51040
  29656830.69400  26790345.30700                  23173313.87640  26790351.16640
  -1554540.36900  26539251.66600                  -1166004.76540  26539255.72140
  -4102058.25900  24621767.36100                  -3125381.13540  24621770.54940
  24033243.52000  26152257.81400                  18812711.48240  26152259.65440
   2111320.42900  24052639.30700                   1695169.38440  24052641.41640
 96  9  7  2 16  0.0100000  0  6 14 15 18 22 25 29
  -1643166.57800  23361046.40000                  -1138159.47740  23361049.60040
  29817398.29100  26820901.33800                  23298431.46240  26820905.58040
  -1575011.28100  26535356.16600                  -1181956.07740  26535359.50640
  -4096029.59600  24622914.36100                  -3120683.44740  24622918.02940
  24177971.35600  26179797.93200                  18925486.43340  26179800.34640
   2146024.59800  24059243.35300                   1722211.60340  24059245.52140
 96  9  7  2 16 30.0100000  0  6 14 15 18 22 25 29
  -1591184.19300  23370938.32200                  -1097653.72740  23370941.47540
  29977944.91700  26851451.90800                  23423532.68940  26851457.45140
  -1595527.17700  26531452.39300                  -1197942.44240  26531456.21340
  -4089589.89700  24624140.06400                  -3115665.46940  24624143.68540
  24322730.31300  26207344.89300                  19038285.61840  26207346.61540
   2180815.36800  24065863.90800                   1749321.30140  24065866.07640
 96  9  7  2 17  0.0100000  0  6 14 15 18 22 25 29
  -1538619.34900  23380941.11900                  -1056694.11140  23380944.35340
  30138609.97600  26882025.15000                  23548726.19140  26882030.60040
  -1615935.78400  26527568.41600                  -1213845.21140  26527572.33040
  -4082586.77900  24625472.58000                  -3110208.47140  24625475.94340
  24467647.80300  26234921.83800                  19151208.32940  26234924.41640
   2215849.75300  24072530.75200                   1776620.82740  24072532.82640
 96  9  7  2 17 30.0100000  0  6 14 15 18 22 25 29
  -1485527.59500  23391043.95500                  -1015323.91140  23391047.13140
  30299326.11000  26912608.95500                  23673959.56040  26912613.80740
  -1636304.50300  26523691.67400                  -1229716.91840  26523695.75240
  -4075084.49100  24626900.21300                  -3104362.50440  24626903.55340
  24612677.87700  26262519.30700                  19264218.76840  26262521.70940
   2251070.11600  24079233.25200                   1804065.27540  24079235.24440
 96  9  7  2 18  0.0100000  0  6 14 15 18 22 25 29
  -1431885.32200  23401252.05700                   -973524.74240  23401255.24440
  30460114.33100  26943205.68200                  23799249.02240  26943211.28340
  -1656585.15700  26519833.15800                  -1245519.98840  26519836.77940
  -4067048.73400  24628429.44700                  -3098100.84040  24628432.89340
  24757860.65200  26290146.66600                  19377348.20640  26290148.96340
   2286486.92700  24085972.47800                   1831662.80240  24085974.69340
 96  9  7  2 18 30.0100000  0  6 14 15 18 22 25 29
  -1377735.76600  23411556.28300                   -931330.28340  23411559.45940
  30620921.37100  26973805.80700                  23924553.18240  26973811.02140
  -1676820.51600  26515982.16600                  -1261287.76540  26515985.28340
  -4058525.36900  24630051.40000                  -3091459.23540  24630054.38940
  24903149.28200  26317794.89300                  19490560.11340  26317796.99040
   2322052.68200  24092740.23600                   1859376.37640  24092742.41640
 96  9  7  2 19  0.0100000  0  6 14 15 18 22 25 29
  -1322962.01000  23421979.04900                   -888649.43240  23421982.20140
  30781859.92000  27004431.80700                  24049959.79940  27004436.06040
  -1696907.87900  26512159.65800                  -1276940.23140  26512162.99840
  -4049399.78800  24631787.99400                  -3084348.35040  24631791.42840
  25048656.34500  26345484.26000                  19603942.22640  26345485.93540
   2357878.91900  24099557.99400                   1887292.92940  24099560.15040
 96  9  7  2 19 30.0100000  0  6 14 15 18 22 25 29
  -1267682.61900  23432498.54100                   -845574.58340  23432501.67040
  30942810.64400  27035059.42400                  24175375.93240  27035064.58040
  -1716957.79700  26508344.76800                  -1292563.49240  26508348.33040
  -4039789.11000  24633616.36100                  -3076859.49040  24633619.83040
  25194261.28700  26373192.30700                  19717400.63140  26373194.33440
   2393847.03800  24106402.30700                   1915320.03940  24106404.48640
 96  9  7  2 20  0.0100000  0  6 14 15 18 22 25 29
  -1211841.80000  23443124.92400                   -802062.25340  23443128.07640
  31103823.63400  27065698.92400                  24300840.56940  27065704.63140
  -1736907.40300  26504547.90800                  -1308108.61140  26504551.70540
  -4029640.61500  24635548.08000                  -3068951.54440  24635551.27940
  25339996.80900  26400924.00200                  19830960.77040  26400926.88540
   2430006.90500  24113283.49400                   1943496.56340  24113285.73240
 96  9  7  2 20 30.0100000  0  6 14 15 18 22 25 29
  -1155464.51900  23453853.01800                   -758131.90440  23453856.15840
  31264868.26500  27096344.75200                  24426329.87540  27096349.96740
  -1756797.92800  26500762.48600                  -1323607.68340  26500765.74440
  -4018976.76800  24637576.64300                  -3060642.02440  24637580.52140
  25485820.85200  26428673.04100                  19944589.88540  26428675.87740
   2466340.30300  24120197.31400                   1971808.30340  24120199.48240
 96  9  7  2 21  0.0100000  0  6 14 15 18 22 25 29
  -1098605.05000  23464672.91600                   -713825.82340  23464676.03340
  31425896.47700  27126987.18200                  24551806.36640  27126992.66640
  -1776678.87300  26496979.06400                  -1339099.29440  26496982.46340
  -4007841.40200  24639696.29100                  -3051965.09440  24639699.27940
  25631675.03100  26456428.83000                  20058242.48440  26456431.67840
   2502800.82400  24127135.58800                   2000219.10140  24127137.81440
 96  9  7  2 21 30.0110000  0  6 14 15 18 22 25 29
  -1041206.28400  23475595.78000                   -669099.51640  23475598.86240
  31586970.55400  27157639.84300                  24677318.59640  27157645.19840
  -1796486.83900  26493209.78000                  -1354534.03340  26493213.37840
  -3996178.60100  24641915.18600                  -3042877.16840  24641918.89040
  25777617.47300  26484201.08500                  20171963.85140  26484203.73340
   2539447.69800  24134109.24100                   2028775.10940  24134111.35140
 96  9  7  2 22  0.0110000  0  6 14 15 18 22 25 29
   -983349.66900  23486605.24900                   -624016.44240  23486608.57740
  31747988.98500  27188279.52200                  24802787.50640  27188285.38240
  -1816322.14600  26489434.70200                  -1369990.09440  26489437.77240
  -3984069.04200  24644219.76500                  -3033441.12140  24644223.30440
  25923560.50100  26511973.00700                  20285685.68340  26511975.63240
   2576187.69400  24141100.66300                   2057403.68340  24141102.84340
 96  9  7  2 22 30.0110000  0  6 14 15 18 22 25 29
   -925007.96900  23497707.53000                   -578555.37840  23497710.62440
  31908986.91800  27218916.82700                  24928240.40640  27218921.30440
  -1836167.60800  26485659.10800                  -1385454.05540  26485662.95240
  -3971474.87100  24646615.71000                  -3023627.46440  24646619.29640
  26069553.89300  26539754.88200                  20399446.76840  26539756.89740
   2613058.71700  24148116.67100                   2086134.34740  24148118.90940
 96  9  7  2 23  0.0110000  0  6 14 15 18 22 25 29
   -866112.14900  23508914.74100                   -532662.53640  23508918.05840
  32070028.79400  27249562.17900                  25053727.54740  27249567.17140
  -1855961.37300  26481892.21000                  -1400877.73240  26481896.26540
  -3958335.01100  24649116.73300                  -3013388.58840  24649119.93340
  26215678.54100  26567560.79600                  20513310.13640  26567563.60840
   2650131.95100  24155171.75700                   2115022.58240  24155173.98340
 96  9  7  2 23 30.0110000  0  6 14 15 18 22 25 29
   -806645.56300  23520231.10800                   -486324.93840  23520234.35440
  32231113.40900  27280215.14700                  25179247.96540  27280221.24140
  -1875701.82500  26478135.91300                  -1416259.85240  26478138.87840
  -3944628.35800  24651725.10800                  -3002708.04840  24651728.54240
  26361947.10700  26595394.97600                  20627285.63340  26595397.54240
   2687411.83600  24162265.92900                   2144071.84740  24162268.05040
 96  9  7  2 24  0.0110000  0  6 14 15 18 22 25 29
   -746618.86800  23531653.75700                   -439550.89440  23531657.02640
  32392223.98600  27310874.27200                  25304788.67540  27310879.21840
  -1895408.79200  26474386.03800                  -1431615.89440  26474390.02240
  -3930353.39700  24654441.33500                  -2991584.67740  24654444.76840
  26508352.66500  26623255.17900                  20741367.88540  26623257.82740
   2724883.12200  24169396.49900                   2173270.25440  24169398.70240
 96  9  7  2 24 30.0110000  0  6 14 15 18 22 25 29
   -686066.52000  23543176.40500                   -392367.24740  23543179.59340
  32553337.73800  27341532.53800                  25430331.82440  27341539.20640
  -1915092.70500  26470640.86600                  -1446953.97640  26470643.67940
  -3915539.71300  24657260.21000                  -2980041.52640  24657263.76140
  26654881.84000  26651138.03000                  20855546.46540  26651140.19840
   2762531.12600  24176560.59300                   2202606.36240  24176562.84340
 96  9  7  2 25  0.0110000  0  6 14 15 18 22 25 29
   -624977.06300  23554801.39000                   -344765.07840  23554804.56540
  32714460.79900  27372193.17100                  25555882.20540  27372197.36640
  -1934728.35600  26466903.33500                  -1462254.45140  26466905.83140
  -3900169.18100  24660185.24900                  -2968064.46440  24660188.44840
  26801537.07800  26679046.63200                  20969823.26940  26679048.94040
   2800365.38800  24183760.06900                   2232087.61140  24183762.30840
 96  9  7  2 25 30.0110000  0  6 14 15 18 22 25 29
   -563360.65000  23566526.69400                   -296752.28840  23566529.88240
  32875574.75600  27402851.93600                  25681425.54140  27402856.64740
  -1954318.40300  26463175.66300                  -1477519.37740  26463179.80040
  -3884250.26600  24663214.71000                  -2955660.08940  24663217.96840
  26948287.32000  26706971.42900                  21084174.11040  26706973.19840
   2838364.58000  24190991.36600                   2261697.37940  24190993.58140
 96  9  7  2 26  0.0110000  0  6 14 15 18 22 25 29
   -501215.40600  23578352.33500                   -248327.42440  23578355.61640
  33036680.45900  27433510.14000                  25806962.41140  27433514.72240
  -1973850.84600  26459458.76500                  -1492739.43040  26459462.80840
  -3867796.78100  24666345.06900                  -2942839.17440  24666348.39740
  27095121.46000  26734913.56900                  21198590.33240  26734915.23340
   2876538.48000  24198255.52200                   2291443.28040  24198257.57340
 96  9  7  2 26 30.0110000  0  6 14 15 18 22 25 29
   -438516.09800  23590283.81900                   -199470.82540  23590287.05440
  33197797.53000  27464169.53000                  25932508.16540  27464174.17140
  -1993287.81600  26455760.66300                  -1507885.09040  26455763.52240
  -3850793.09800  24669580.78000                  -2929589.52740  24669584.46040
  27242047.80700  26762872.61600                  21313078.37840  26762874.36240
   2914920.99100  24205559.43600                   2321351.73840  24205561.68640
 96  9  7  2 27  0.0110000  0  6 14 15 18 22 25 29
   -375327.03500  23602308.21800                   -150232.60040  23602311.49940
  33358844.01800  27494815.93600                  26057998.90140  27494821.17540
  -2012706.84200  26452064.64700                  -1523016.76140  26452067.97640
  -3833310.36200  24672908.01500                  -2915966.59240  24672911.01540
  27388956.02300  26790828.67100                  21427552.31940  26790831.00340
   2953432.12600  24212887.60800                   2351360.42440  24212889.89340
 96  9  7  2 27 30.0110000  0  6 14 15 18 22 25 29
   -311644.64100  23614426.89000                   -100609.95840  23614430.11240
  33519822.73600  27525448.81900                  26183436.82640  27525453.69440
  -2032097.30900  26448374.90500                  -1538126.16440  26448378.81940
  -3815354.42500  24676325.04600                  -2901974.92740  24676328.22240
  27535844.66100  26818779.41300                  21542011.01040  26818781.30040
   2992081.58700  24220242.47600                   2381476.89440  24220244.67940
 96  9  7  2 28  0.0110000  0  6 14 15 18 22 25 29
   -247509.58500  23626631.10100                    -50634.59440  23626634.40540
  33680700.28600  27556063.00700                  26308795.92740  27556069.19440
  -2051498.56600  26444683.10100                  -1553243.99840  26444686.80440
  -3796957.01000  24679826.05400                  -2887639.25340  24679829.31140
  27682692.18700  26846723.76500                  21656437.64840  26846725.59340
   3030850.14400  24227619.97600                   2411686.17040  24227622.03840
 96  9  7  2 28 30.0110000  0  6 14 15 18 22 25 29
   -182848.27300  23638935.69400                      -249.15840  23638938.89340
  33841555.96200  27586672.51500                  26434137.95640  27586679.21840
  -2070831.77000  26441003.88200                  -1568308.79740  26441007.71440
  -3778027.94100  24683427.74900                  -2872889.30940  24683431.35840
  27829597.88000  26874678.24900                  21770909.62740  26874680.82740
   3069820.09600  24235035.53000                   2442052.37540  24235037.85140
 96  9  7  2 29  0.0110000  0  6 14 15 18 22 25 29
   -117651.56500  23651342.30400                     50553.46440  23651345.49140
  34002397.40200  27617280.31100                  26559468.95340  27617285.11640
  -2090090.22800  26437338.58500                  -1583315.35940  26437341.99540
  -3758549.46800  24687134.28800                  -2857711.25840  24687137.24140
  27976578.33400  26902648.27200                  21885439.84140  26902651.74140
   3108995.16600  24242490.43600                   2472578.41540  24242492.66340
 96  9  7  2 29 30.0110000  0  6 14 15 18 22 25 29
    -51908.46500  23663852.53000                    101781.85540  23663855.78840
  34163239.05700  27647887.03000                  26684800.08540  27647890.75740
  -2109268.20600  26433689.08500                  -1598259.21140  26433692.64740
  -3738500.85600  24690949.14000                  -2842088.94440  24690952.60840
  28123677.10500  26930641.56100                  22000062.26740  26930643.48340
   3148389.70000  24249986.92900                   2503275.46940  24249989.09740
 96  9  7  2 30  0.0110000  0  6 14 15 18 22 25 29
     14445.41100  23676479.52200                    153486.17240  23676482.62840
  34324137.79800  27678505.36600                  26810175.68540  27678510.88640
  -2128315.28000  26430064.33500                  -1613101.05840  26430067.75740
  -3717813.91400  24694886.38200                  -2825969.22540  24694889.54640
  28270963.30300  26958668.71000                  22114830.74440  26958671.05440
   3188054.48700  24257534.91300                   2534183.10540  24257537.04640
 96  9  7  2 30 30.0110000  0  6 14 15 18 22 25 29
     81171.57600  23689176.99900                    205480.58540  23689180.12840
  34484846.53500  27709087.44400                  26935403.21340  27709093.60840
  -2147471.76600  26426419.53800                  -1628028.15340  26426422.79640
  -3696729.06400  24698898.24100                  -2809539.43940  24698902.08540
  28418182.01500  26986683.64000                  22229546.62140  26986685.97240
   3227736.16200  24265085.95200                   2565103.90040  24265088.26140
 96  9  7  2 31  0.0110000  0  6 14 15 18 22 25 29
    148451.80600  23701980.10100                    257906.73540  23701983.20640
  34645534.02200  27739664.77200                  27060614.22940  27739669.71840
  -2166561.58700  26422785.76500                  -1642903.31640  26422789.05840
  -3675072.23400  24703019.55400                  -2792663.97940  24703022.80040
  28565489.56300  27014715.68600                  22344331.74340  27014718.06540
   3267603.08100  24272672.51500                   2596169.04540  24272674.77640
 96  9  7  2 31 30.0110000  0  6 14 15 18 22 25 29
    216317.12600  23714894.41300                    310788.79940  23714897.68340
  34806212.69500  27770240.90500                  27185818.36140  27770246.08540
  -2185566.68600  26419170.07700                  -1657712.42740  26419173.87440
  -3652828.23800  24707252.42900                  -2775330.96740  24707255.55840
  28712897.43600  27042765.42100                  22459195.00140  27042767.64740
   3307671.52000  24280297.20200                   2627391.21140  24280299.37040
 96  9  7  2 32  0.0110000  0  6 14 15 18 22 25 29
    284792.97000  23727925.19400                    364146.59740  23727928.49940
  34966901.37100  27800819.24900                  27311030.27240  27800825.27240
  -2204446.37600  26415577.03800                  -1672423.84840  26415580.54240
  -3629968.74700  24711602.67100                  -2757518.36440  24711605.61240
  28860409.81200  27070836.16300                  22574139.72240  27070839.62040
   3347969.27400  24287965.43600                   2658792.06840  24287967.68640
 96  9  7  2 32 30.0110000  0  6 14 15 18 22 25 29
    353841.28000  23741064.42100                    417950.47340  23741067.71440
  35127555.79100  27831389.90500                  27436215.46840  27831394.39340
  -2223237.45000  26412001.49100                  -1687066.21740  26412005.48740
  -3606535.51000  24716061.56900                  -2739258.67140  24716065.01540
  29007979.13700  27098918.41300                  22689128.78340  27098921.28440
   3388453.84800  24295669.77200                   2690338.49740  24295671.97640
 96  9  7  2 33  0.0110000  0  6 14 15 18 22 25 29
    423425.90800  23754305.74100                    472172.25940  23754308.92940
  35288133.23900  27861947.09300                  27561340.74040  27861951.60440
  -2241980.78200  26408435.92100                  -1701671.36440  26408439.43640
  -3582573.28600  24720621.44400                  -2720586.79240  24720624.67940
  29155565.01900  27127001.81100                  22804130.78040  27127005.05840
   3429083.42500  24303401.06100                   2721997.91540  24303403.17140
 96  9  7  2 33 30.0110000  0  6 14 15 18 22 25 29
    493484.35000  23767637.31900                    526763.24840  23767640.55440
  35448573.51900  27892478.28800                  27686359.14040  27892483.56140
  -2260751.20700  26404862.79600                  -1716297.63640  26404865.73740
  -3558136.80200  24725271.39700                  -2701545.35640  24725274.60840
  29303112.70500  27155080.31900                  22919102.99940  27155082.49940
   3469802.70500  24311150.01500                   2753727.22740  24311152.26540
 96  9  7  2 34  0.0110000  0  6 14 15 18 22 25 29
    564092.87900  23781073.95200                    581782.87740  23781077.22240
  35608975.36100  27923001.14700                  27811347.57740  27923006.38640
  -2279455.74500  26401303.38200                  -1730872.57040  26401306.67540
  -3533124.75200  24730031.40500                  -2682055.42540  24730034.47640
  29450721.13100  27183167.97600                  23034122.56440  27183169.93340
   3510709.48300  24318933.90500                   2785602.64340  24318936.03840
 96  9  7  2 34 30.0110000  0  6 14 15 18 22 25 29
    635283.73800  23794621.21800                    637256.27040  23794624.46440
  35769371.62000  27953523.49100                  27936331.63140  27953528.06140
  -2298074.68700  26397760.28000                  -1745380.79440  26397763.72640
  -3507502.56100  24734906.84300                  -2662090.06340  24734910.58140
  29598426.93700  27211276.17100                  23149217.98540  27211280.06140
   3551841.75400  24326761.19400                   2817653.76540  24326763.42140
 96  9  7  2 35  0.0120000  0  6 14 15 18 22 25 29
    707006.25300  23808269.23000                    693143.93940  23808272.51240
  35929721.92300  27984037.72300                  28061279.85940  27984043.47640
  -2316650.41600  26394225.24600                  -1759855.34340  26394228.62140
  -3481293.67800  24739894.30100                  -2641667.53740  24739897.44140
  29746185.30400  27239394.01200                  23264354.37940  27239396.98840
   3593167.01300  24334625.20700                   2849855.27040  24334627.48040
 96  9  7  2 35 30.0120000  0  6 14 15 18 22 25 29
    779260.25200  23822018.95700                    749445.75340  23822022.28540
  36090025.68700  28014543.68400                  28186191.85540  28014549.28540
  -2335165.57200  26390702.64400                  -1774282.69240  26390706.27740
  -3454468.89400  24744998.37100                  -2620765.09740  24745001.57040
  29893994.93900  27267521.31600                  23379530.72040  27267523.42640
   3634709.96400  24342530.48000                   2882226.40240  24342532.68440
 96  9  7  2 36  0.0120000  0  7  4 14 15 18 22 25 29
      8957.22910  28232208.10500
    851993.88300  23835859.73800                    806121.30640  23835862.99640
  36250233.67500  28045029.23800                  28311029.24240  28045033.76240
  -2353657.80800  26387183.96500                  -1788692.20140  26387187.60940
  -3427084.84300  24750209.77700                  -2599426.84840  24750212.97640
  30041816.43000  27295650.68400                  23494716.29540  27295654.17640
   3676417.99700  24350467.43400                   2914726.16940  24350469.54340
 96  9  7  2 36 30.0120000  0  7  4 14 15 18 22 25 29
     36134.61300  28237381.68400
    925249.72300  23849799.84800                    863203.77640  23849802.97640
  36410365.87300  28075500.44900                  28435807.53240  28075505.80540
  -2372102.43400  26383673.11300                  -1803064.59340  26383676.78140
  -3399114.22600  24755532.49600                  -2577631.54140  24755535.71940
  30189679.87500  27323788.10500                  23609934.58640  27323790.56640
   3718318.47300  24358440.65200                   2947375.89340  24358442.90240
 96  9  7  2 37  0.0120000  0  6 14 15 18 22 25 29
    999081.55700  23863849.43400                    920735.07340  23863852.69140
  36570466.95100  28105966.95700                  28560561.57640  28105971.93740
  -2390445.01600  26380182.27700                  -1817357.49340  26380186.25040
  -3370516.90400  24760974.59800                  -2555347.89440  24760977.50440
  30337639.93400  27351943.62900                  23725228.13140  27351946.20740
   3760456.67200  24366459.01900                   2980210.85140  24366461.09440
 96  9  7  2 37 30.0120000  0  7  4 14 15 18 22 25 29
     16003.69410  28248001.44100
   1073426.44300  23877996.96500                    978666.15440  23878000.18740
  36730463.90300  28136414.91000                  28685234.51340  28136419.26940
  -2408758.53400  26376698.30900                  -1831627.73640  26376701.82440
  -3341385.53800  24766518.06600                  -2532648.10740  24766521.19540
  30485645.30600  27380108.12900                  23840556.99340  27380110.19140
   3802754.72300  24374508.33200                   3013170.37440  24374510.55940
 96  9  7  2 38  0.0120000  0  7  4 14 15 18 22 25 29
     44581.87300  28253438.98800
   1148306.33400  23892246.01900                   1037014.11240  23892249.33640
  36890366.07400  28166842.82400                  28809833.58440  28166847.05540
  -2427023.94100  26373222.52700                  -1845860.49140  26373226.01940
  -3311724.70400  24772161.76900                  -2509535.74740  24772165.33240
  30633714.77300  27408284.85500                  23955935.80740  27408286.85940
   3845210.99400  24382587.48800                   3046253.18040  24382589.65640
 96  9  7  2 38 30.0120000  0  8  4 14 15 18 19 22 25 29
     73608.56300  28258963.78500
   1223704.82500  23906593.93400                   1095766.17340  23906597.12140
  37050149.37200  28197248.19100                  28934340.00740  28197254.93040
  -2445248.63700  26369754.27700                  -1860061.52540  26369757.50040
                  28366375.86300
  -3281543.34900  24777905.44900                  -2486017.79340  24777908.46140
  30781810.04000  27436466.01900                  24071334.73040  27436468.44540
   3887813.33500  24390694.44100                   3079449.80940  24390696.57440
 96  9  7  2 39  0.0120000  0  8  4 14 15 18 19 22 25 29
    103170.01600  28264587.93400
   1299697.41700  23921054.94900                   1154981.16540  23921058.20740
  37209891.02900  28227645.48800                  29058814.03040  28227651.20740
  -2463339.82500  26366311.32400                  -1874158.53540  26366314.57040
    -34053.06000  28359672.80900
  -3250761.13800  24783763.28500                  -2462031.63240  24783766.20340
  30929993.71000  27464665.47300                  24186802.53340  27464667.61740
   3930651.45800  24398846.34800                   3112830.16940  24398848.53940
 96  9  7  2 39 30.0120000  0  8  4 14 15 18 19 22 25 29
    133266.18500  28270315.53500                     11773.90050  28270320.66840
   1376273.08300  23935626.66000                   1214650.51640  23935629.84840
  37369571.66700  28258032.41000                  29183240.38540  28258035.70340
  -2481310.08000  26362891.65200                  -1888161.30740  26362894.75840
    -69118.86000  28353001.16800
  -3219388.68300  24789733.11300                  -2437585.54540  24789736.16040
  31078245.96900  27492876.69100                  24302323.75340  27492879.79740
   3973713.12900  24407040.47300                   3146384.72040  24407042.59440
 96  9  7  2 40  0.0120000  0  8  4 14 15 18 19 22 25 29
    163867.02400  28276138.34000                     35618.63340  28276145.69140
   1453397.30300  23950302.89400                   1274747.30440  23950306.03540
  37529151.44300  28288399.17600                  29307588.30040  28288408.14440
  -2499194.86200  26359488.58200                  -1902097.48140  26359491.47640
   -104060.36000  28346349.26200
  -3187448.00600  24795811.02700                  -2412696.69140  24795814.13340
  31226503.62500  27521088.62100                  24417849.17640  27521092.19540
   4016962.33600  24415270.80100                   3180085.40240  24415272.95740
 96  9  7  2 40 30.0120000  0  8  4 14 15 18 19 22 25 29
    195009.36100  28282064.73000                     59885.42440  28282068.16440
   1531115.71100  23965092.19900                   1335307.09940  23965095.57440
  37688674.71200  28318755.98800                  29431892.05240  28318762.52740
  -2516963.79900  26356107.77700                  -1915943.39240  26356110.81240
   -138819.94900  28339739.26200
  -3154877.11200  24802009.34800                  -2387316.75340  24802012.20740
  31374802.85100  27549310.70700                  24533407.01740  27549312.59440
   4060451.13500  24423546.42600                   3213972.78440  24423548.50040
 96  9  7  2 41  0.0120000  0  8  4 14 15 18 19 22 25 29
    226657.94800  28288087.61300                     84546.68740  28288091.28140
   1609405.45500  23979990.51200                   1396312.09240  23979993.73440
  37848112.38900  28349095.76900                  29556129.25540  28349099.94140
  -2534661.93100  26352739.09000                  -1929734.13840  26352741.93740
   -173436.60300  28333149.15200
  -3121707.51400  24808320.71500                  -2361470.29240  24808324.05540
  31523130.89400  27577535.23000                  24648987.31040  27577537.51640
   4104141.84100  24431860.42600                   3248017.49640  24431862.57040
 96  9  7  2 41 30.0120000  0  8  4 14 15 18 19 22 25 29
    258812.31900  28294205.93400                    109602.02340  28294210.59840
   1688257.65100  23994995.50400                   1457755.35340  23994998.75040
  38007463.04900  28379419.29300                  29680298.56040  28379425.91440
  -2552296.89400  26349384.62900                  -1943475.64940  26349388.41440
   -207923.75900  28326586.42600
  -3087935.29400  24814747.41800                  -2335154.25940  24814750.68740
  31671494.54000  27605768.59000                  24764595.33740  27605770.79340
   4148027.12100  24440211.39400                   3282213.82340  24440213.42240
 96  9  7  2 42  0.0120000  0  8  4 14 15 18 19 22 25 29
    291485.83700  28300423.46500                    135061.87740  28300427.83640
   1767668.62700  24010106.87100                   1519634.03340  24010110.07040
  38166733.29800  28409726.58200                  29804405.22140  28409732.47640
  -2569855.27800  26346042.34000                  -1957157.50440  26346045.42240
   -242265.59200  28320048.49600
  -3053556.43300  24821289.57400                  -2308365.52440  24821292.72640
  31819887.22000  27634005.78500                  24880226.00440  27634008.38740
   4192118.23100  24448601.85500                   3316570.53640  24448603.93040
 96  9  7  2 42 30.0120000  0  8  4 14 15 18 19 22 25 29
    324657.60000  28306736.55900                    160909.97240  28306741.38740
   1847606.18800  24025318.23800                   1581923.03140  24025321.54340
  38325897.74700  28440015.32400                  29928429.45840  28440020.10540
  -2587354.43300  26342712.80100                  -1970793.17040  26342715.84840
   -276502.05200  28313536.10500                    -25787.64950  28313543.37540
  -3018606.50800  24827940.36300                  -2281131.79240  24827943.45740
  31968305.05000  27662249.02700                  24995876.23140  27662252.33240
   4236409.92100  24457030.34000                   3351083.55440  24457032.29740
 96  9  7  2 43  0.0120000  0  8  4 14 15 18 19 22 25 29
    358331.54600  28313143.44100                    187149.40540  28313148.32840
   1928062.62400  24040628.91000                   1644616.35840  24040632.10940
  38484945.49200  28470281.20700                  30052362.68240  28470287.53540
  -2604795.15700  26339393.34000                  -1984383.33640  26339396.86740
   -310657.80300  28307036.18400                    -52402.73940  28307043.66440
  -2983097.17800  24834697.76200                  -2253462.17440  24834700.34040
  32116750.00300  27690497.37100                  25111547.64440  27690500.31240
   4280898.31800  24465495.94100                   3385749.84940  24465498.13340
 96  9  7  2 43 30.0120000  0  8  4 14 15 18 19 22 25 29
    392532.18700  28319651.64400                    213799.27940  28319655.84040
   2009065.71600  24056043.16800                   1707735.64740  24056046.49640
  38643905.42600  28500530.29300                  30176227.57140  28500533.09440
  -2622149.80200  26336090.59000                  -1997906.40840  26336093.29740
   -344691.27600  28300559.34000
  -2946994.64700  24841567.86300                  -2225330.31140  24841570.86340
  32265241.34500  27718754.96500                  25227255.17340  27718757.63740
   4325622.53400  24474006.73000                   3420599.89240  24474008.85140
 96  9  7  2 44  0.0120000  0  8  4 14 15 18 19 22 25 29
    427215.21700  28326252.48800                    240825.00140  28326256.67240
   2090596.48200  24071558.15200                   1771266.10340  24071561.43440
  38802746.29400  28530757.41000                  30299999.63540  28530760.44540
  -2639452.83500  26332798.35500                  -2011389.26940  26332801.33240
   -378625.09000  28294101.72300
  -2910316.40800  24848547.42600                  -2196749.84240  24848550.39140
  32413757.47700  27747016.76900                  25342982.01040  27747018.94940
   4370558.80700  24482558.12900                   3455615.18740  24482560.29740
 96  9  7  2 44 30.0120000  0  7  4 14 18 19 22 25 29
    462363.88400  28332939.77700                    268213.57740  28332942.55540
   2172658.63900  24087173.87100                   1835210.63440  24087177.03540
  -2656717.91900  26329511.71500                  -2024842.54640  26329514.55140
   -412456.05800  28287665.69100                    -10529.66150  28287674.25040
  -2873051.12900  24855638.80900                  -2167711.95040  24855642.00840
  32562300.93400  27775283.41800                  25458730.12840  27775285.58640
   4415696.85800  24491147.43400                   3490787.69640  24491149.64840
 96  9  7  2 45  0.0120000  0  7  4 14 18 19 22 25 29
    497996.77700  28339721.43400                    295979.42140  28339723.89440
   2255285.42300  24102897.34800                   1899595.13140  24102900.69940
  -2673929.21100  26326236.53500                  -2038253.91440  26326239.80540
   -446136.71800  28281255.09800                    -36774.15140  28281258.84840
  -2835166.56800  24862847.84800                  -2138191.49540  24862850.95340
  32710869.20400  27803555.04300                  25574497.63240  27803556.67240
   4461036.12700  24499775.12100                   3526117.00440  24499777.33640
 96  9  7  2 45 30.0120000  0  7  4 14 18 19 22 25 29
    534121.43100  28346595.53500                    324128.54240  28346598.62940
   2338482.82900  24118729.16800                   1964424.27740  24118732.39140
  -2691056.07100  26322977.96500                  -2051599.46940  26322981.12940
   -479642.36500  28274879.21500                    -62882.32240  28274881.62940
  -2796654.83000  24870176.35500                  -2108182.33540  24870179.68440
  32859463.23100  27831832.12100                  25690285.15840  27831834.30140
   4506588.47600  24508443.30900                   3561612.35440  24508445.40640
 96  9  7  2 46  0.0120000  0  7  4 14 18 19 22 25 29
    570746.43100  28353566.01900                    352667.48740  28353568.83240
   2422237.36700  24134667.54300                   2029687.54740  24134670.73040
  -2708079.28200  26319738.84000                  -2064864.28240  26319742.06240
   -512991.51000  28268534.58200                    -88868.51240  28268536.98440
  -2757532.94500  24877620.90200                  -2077697.73140  24877624.30140
  33008072.31600  27860111.10500                  25806084.44840  27860112.58240
   4552342.51700  24517150.15200                   3597264.86340  24517152.25040
 96  9  7  2 46 30.0120000  0  7  4 14 18 19 22 25 29
    607835.21600  28360622.40200                    381567.83140  28360627.44140
   2506489.01600  24150699.59800                   2095338.18240  24150702.93740
  -2725045.61700  26316509.78500                  -2078084.76340  26316512.75040
   -546244.68600  28262203.55900                   -114779.99540  28262213.59440
  -2717870.67300  24885168.48800                  -2046792.05240  24885171.61740
  33156633.63000  27888379.76900                  25921846.51740  27888383.25040
   4598230.96900  24525882.40200                   3633022.11040  24525884.53540
 96  9  7  2 47  0.0120000  0  7  4 14 18 19 22 25 29
    645506.37000  28367791.41000                    410921.94540  28367795.72340
   2591342.41400  24166846.75400                   2161457.70340  24166850.09440
  -2741836.84000  26313314.91000                  -2091168.79440  26313317.94540
   -579290.87600  28255917.22300                   -140530.19540  28255923.73840
  -2677545.41300  24892841.89400                  -2015369.76240  24892845.05940
  33305271.37200  27916665.90200                  26037668.12540  27916667.68440
   4644376.84100  24534663.44900                   3668979.94140  24534665.52340
 96  9  7  2 47 30.0120000  0  7  4 14 18 19 22 25 29
    683696.90800  28375059.48800                    440680.78840  28375063.43740
   2676723.31800  24183094.22300                   2227988.27040  24183097.55140
  -2758518.15300  26310140.44100                  -2104167.17240  26310143.85140
   -612195.16400  28249654.49600                   -166169.80740  28249661.01240
  -2636616.17900  24900630.61300                  -1983476.82840  24900633.78940
  33453941.39800  27944956.65200                  26153514.87840  27944958.58640
   4690730.35900  24543484.21500                   3705099.57340  24543486.18440
 96  9  7  2 48  0.0120000  0  7  4 14 18 19 22 25 29
    722397.60900  28382423.41800                    470837.17440  28382427.64840
   2762625.95300  24199441.22300                   2294925.38040  24199444.42240
  -2775124.26600  26306980.85500                  -2117106.96740  26306984.12540
   -644963.19200  28243417.87100                   -191703.26140  28243418.70340
  -2595077.61500  24908535.29300                  -1951109.09740  24908538.50440
  33602645.09700  27973254.29300                  26269387.88340  27973256.27340
   4737276.24100  24552341.89400                   3741369.10240  24552343.96940
 96  9  7  2 48 30.0130000  0  7  4 14 18 19 22 25 29
    761615.70600  28389887.52400                    501396.68940  28389891.82540
   2849084.21500  24215893.61800                   2362295.44940  24215896.91140
  -2791657.82200  26303834.37600                  -2129990.21640  26303837.56340
   -677556.12100  28237217.02400                   -217100.29740  28237219.46240
  -2552891.64100  24916563.03200                  -1918236.90140  24916566.02040
  33751420.28000  28001564.96200                  26385316.62540  28001565.92340
   4784046.44600  24561241.75100                   3777813.42240  24561243.77840
 96  9  7  2 49  0.0130000  0  7  4 14 18 19 22 25 29
    801334.99800  28397445.27400                    532346.78140  28397449.01340
   2936090.51700  24232450.20400                   2430092.56640  24232453.54440
  -2808118.40100  26300702.24300                  -2142816.61940  26300705.55940
   -709978.72400  28231046.97000                   -242364.55840  28231054.63840
  -2510065.50300  24924712.50900                  -1884865.85940  24924715.75540
  33900240.30100  28029884.09500                  26501280.25140  28029886.82540
   4831039.19800  24570184.29000                   3814431.15440  24570186.24740
 96  9  7  2 49 30.0130000  0  7  4 14 18 19 22 25 29
    841502.26800  28405088.32100                    563645.96240  28405092.96240
   3023604.62300  24249103.61000                   2498285.36740  24249106.89240
  -2824550.01900  26297574.83700                  -2155620.44140  26297578.15340
   -742291.92300  28224899.89900                   -267543.65540  28224899.00940
  -2466678.84000  24932968.67300                  -1851058.06340  24932971.52040
  34049046.38900  28058200.31300                  26617233.04440  28058202.20040
   4878202.03800  24579159.24300                   3851181.42540  24579161.31740
 96  9  7  2 50  0.0130000  0  7  4 14 18 19 22 25 29
    882129.53600  28412819.33700                    595303.57640  28412822.26740
   3111644.37100  24265856.88400                   2566887.76540  24265860.30640
  -2840925.90300  26294458.68800                  -2168380.84040  26294461.86440
   -774494.92600  28218767.93100                   -292636.73740  28218771.05940
  -2422728.73800  24941331.88400                  -1816811.20840  24941335.24740
  34197835.52100  28086514.94600                  26733172.63240  28086518.77840
   4925541.71600  24588167.36800                   3888069.48840  24588169.53640
 96  9  7  2 50 30.0130000  0  7  4 14 18 19 22 25 29
    923272.63900  28420648.57900                    627363.12740  28420650.73540
   3200261.14400  24282720.00900                   2635939.79140  24282723.41940
  -2857173.68500  26291366.52400                  -2181041.42140  26291369.91140
   -806548.24900  28212670.57100                   -317613.40340  28212666.99740
  -2378167.04000  24949811.66500                  -1782087.79940  24949814.63040
  34346644.13100  28114833.40700                  26849127.37140  28114834.20440
   4973121.24000  24597222.04800                   3925144.44240  24597224.14540
 96  9  7  2 51  0.0130000  0  7  4 14 18 19 22 25 29
    964895.36100  28428570.10200                    659796.41540  28428574.01740
   3289404.65700  24299683.82900                   2705402.26440  24299687.12240
  -2873321.52200  26288294.41500                  -2193624.11440  26288297.93140
   -838508.18600  28206587.43100                   -342517.09340  28206592.20040
  -2333047.03700  24958397.84500                  -1746929.32940  24958400.99740
  34495410.20700  28143140.78200                  26965049.01940  28143143.99340
   5020894.75400  24606312.59500                   3962370.56340  24606314.63440
 96  9  7  2 51 30.0130000  0  7  4 14 18 19 22 25 29
   1007049.20800  28436591.12600                    692643.57340  28436596.10640
   3379134.21900  24316758.64900                   2775321.39840  24316761.97740
  -2889313.51200  26285250.88400                  -2206085.39140  26285254.22440
   -870312.23700  28200536.04000                   -367299.48140  28200539.02840
  -2287313.00900  24967100.65700                  -1711292.41040  24967103.63440
  34644193.20700  28171453.33700                  27080983.79840  28171456.20840
   5068925.82300  24615452.54000                   3999797.36940  24615454.67340
 96  9  7  2 52  0.0130000  0  7  4 14 18 19 22 25 29
   1049706.51800  28444708.43100                    725882.96140  28444713.50540
   3469404.75100  24333936.62600                   2845662.06340  24333939.82540
  -2905190.82100  26282229.17300                  -2218457.28740  26282232.55940
   -901986.12600  28194507.58700                   -391980.32940  28194514.90340
  -2240980.79800  24975917.48500                  -1675189.37840  24975920.02840
  34792953.89400  28199760.73500                  27196901.21240  28199764.08740
   5117178.94100  24624634.87600                   4037397.20840  24624637.04440
 96  9  7  2 52 30.0130000  0  7  4 14 18 19 22 25 29
   1092859.47400  28452921.14900                    759508.64040  28452924.22040
   3560204.03000  24351214.99300                   2916414.74540  24351218.20440
  -2920982.66500  26279225.16500                  -2230762.58640  26279228.55240
   -933525.85400  28188507.56300                   -416556.67140  28188513.20040
  -2194059.10100  24984846.30600                  -1638626.99140  24984849.45840
  34941679.03000  28228064.36800                  27312790.88840  28228065.91540
   5165643.65400  24633857.43800                   4075161.92340  24633859.52440
 96  9  7  2 53  0.0130000  0  7  4 14 18 19 22 25 29
   1136499.40500  28461224.66500                    793513.77640  28461227.59540
   3651524.85100  24368593.01700                   2987573.82240  24368596.39240
  -2936702.74000  26276233.21200                  -2243011.97140  26276236.57540
   -964927.89000  28182530.88400                   -441025.76040  28182534.76340
  -2146565.19700  24993884.32900                  -1601618.74240  24993887.21240
  35090372.09200  28256359.24300                  27428655.65240  28256363.89540
   5214300.21500  24643116.58700                   4113076.13540  24643118.72040
 96  9  7  2 53 30.0130000  0  7  4 14 18 19 22 25 29
   1180694.54500  28469634.44600                    827951.51240  28469638.94640
   3743428.47400  24386081.50100                   3059187.03240  24386084.89940
  -2952295.93600  26273265.76700                  -2255162.48140  26273268.98940
   -996123.89600  28176594.68100                   -465334.22140  28176599.33340
  -2098424.67100  25003044.74300                  -1564106.62040  25003048.10640
  35239115.99500  28284664.26700                  27544559.94740  28284667.68840
   5263206.38100  24652423.15700                   4151184.83940  24652425.23140
 96  9  7  2 54  0.0130000  0  7  4 14 18 19 22 25 29
   1225392.42200  28478140.82100                    862781.03840  28478145.01740
   3835846.65500  24403668.30600                   3131201.19840  24403671.66940
  -2967824.36700  26270310.68800                  -2267262.52640  26270314.14540
  -1027168.16100  28170686.93100                   -489524.64540  28170695.47740
  -2049676.54300  25012321.47700                  -1526121.04840  25012324.36040
  35387860.70300  28312969.40700                  27660464.89740  28312971.30640
   5312306.27200  24661766.28200                   4189444.50540  24661768.35640
 96  9  7  2 54 30.0130000  0  7  4 14 18 19 22 25 29
   1270577.28900  28486739.09500                    897989.98140  28486741.46240
   3928784.97900  24421353.68800                   3203620.66140  24421356.94640
  -2983279.47100  26267369.18800                  -2279305.42540  26267372.35240
  -1058074.39400  28164804.61000                   -513607.27640  28164808.60640
  -2000326.78700  25021712.12600                  -1487666.67140  25021714.93840
  35536617.50700  28341277.16500                  27776379.33740  28341278.53640
   5361600.76400  24671146.76700                   4227855.79640  24671148.92340
 96  9  7  2 55  0.0130000  0  7  4 14 18 19 22 25 29
   1316220.29800  28495424.56300                    933555.95440  28495428.31340
   4022219.55600  24439133.68100                   3276426.82140  24439136.90340
  -2998663.28300  26264441.36800                  -2291292.78640  26264444.47440
  -1088873.56000  28158944.88400                   -537606.60140  28158952.31740
  -1950385.61700  25031216.04000                  -1448751.46640  25031218.85240
  35685376.37500  28369584.79800                  27892295.32040  28369586.38040
   5411082.43500  24680562.90700                   4266412.95540  24680565.01740
 96  9  7  2 55 30.0130000  0  7  4 14 18 19 22 25 29
   1362353.76500  28504202.99300                    969504.09540  28504206.57940
   4116191.78600  24457015.93800                   3349651.93440  24457019.11440
  -3013940.37800  26261534.10200                  -2303197.00140  26261537.09140
  -1119526.34800  28153111.71200                   -561491.84640  28153114.74740
  -1899804.56300  25040841.18800                  -1409337.63540  25040844.05940
  35834157.51300  28397897.42300                  28008228.69640  28397901.47740
   5460805.22200  24690024.93800                   4305157.99340  24690027.05940
 96  9  7  2 56  0.0130000  0  7  4 14 18 19 22 25 29
   1408957.58000  28513072.23500                   1005818.75740  28513076.89940
   4210686.18800  24474997.84500                   3423283.92940  24475001.13840
  -3029131.19900  26258643.79800                  -2315033.96340  26258646.65740
  -1150051.41300  28147303.54000                   -585277.54240  28147309.73940
  -1848626.02900  25050579.84500                  -1369458.24240  25050582.93840
  35982916.44500  28426204.25100                  28124144.73740  28426205.79840
   5510752.81100  24699529.36000                   4344078.20140  24699531.47040
 96  9  7  2 56 30.0130000  0  7  4 14 18 19 22 25 29
   1456058.99000  28522034.89200                   1042521.13240  28522038.40740
   4305728.08600  24493083.53200                   3497342.54740  24493086.84940
  -3044224.74400  26255772.41500                  -2326795.13140  26255775.46240
  -1180435.88200  28141522.66500                   -608953.75640  28141531.51740
  -1796854.90600  25060431.82900                  -1329117.09540  25060434.50140
  36131658.72400  28454510.15700                  28240047.76140  28454511.59940
   5560927.91900  24709077.47700                   4383175.69340  24709079.61040
 96  9  7  2 57  0.0130000  0  7  4 14 18 19 22 25 29
   1503697.17300  28531099.89200                   1079641.77140  28531104.90740
   4401333.14500  24511276.35200                   3571839.99140  24511279.59940
  -3059211.72200  26252919.19600                  -2338473.26540  26252922.54840
  -1210637.74400  28135772.94600                   -632487.58640  28135777.64540
  -1744469.28100  25070400.25100                  -1288297.11740  25070403.28640
  36280385.41400  28482811.15700                  28355938.70940  28482813.32540
   5611341.21700  24718670.97000                   4422458.79140  24718672.99740
 96  9  7  2 57 30.0130000  0  7  4 14 18 19 22 25 29
   1551845.49500  28540262.25100                   1117159.93840  28540265.41540
   4497452.45300  24529567.49300                   3646738.14340  24529570.76340
  -3074139.93300  26250079.34500                  -2350105.61440  26250082.35640
  -1240697.05600  28130052.99300                   -655910.39140  28130053.83740
  -1691522.68300  25080475.69600                  -1247040.00540  25080479.10640
  36429045.42400  28511099.66500                  28471777.67940  28511102.25540
   5661939.02900  24728299.00100                   4461885.66640  24728301.01740
 96  9  7  2 58  0.0130000  0  7  4 14 18 19 22 25 29
   1600518.36500  28549524.79800                   1155086.84440  28549528.26740
   4594085.81300  24547956.27400                   3722036.85440  24547959.77840
  -3088994.50500  26247252.93800                  -2361680.58140  26247256.13840
  -1270612.68800  28124362.18100                   -679221.26840  28124370.32940
  -1638006.65900  25090659.50900                  -1205339.19340  25090662.47440
  36577674.26400  28539383.42300                  28587592.37140  28539386.62240
   5712723.74600  24737963.08700                   4501458.17640  24737965.06740
 96  9  7  2 58 30.0130000  0  7  4 14 18 19 22 25 29
   1649727.80300  28558888.50900                   1193431.83940  28558890.98140
   4691267.15100  24566449.40700                   3797762.55940  24566452.50140
  -3103730.25300  26244448.36800                  -2373162.94440  26244451.54440
  -1300349.10100  28118702.29800                   -702392.41640  28118708.21640
  -1583852.99300  25100964.50100                  -1163141.51640  25100967.57140
  36726322.38300  28567669.95400                  28703422.07040  28567672.72040
   5763737.11100  24747670.84500                   4541208.85340  24747672.88440
 96  9  7  2 59  0.0130000  0  7  4 14 18 19 22 25 29
   1699470.15500  28568354.22000                   1232192.14040  28568357.81740
   4789001.20100  24585047.38400                   3873918.95340  24585050.94640
  -3118327.07900  26241670.37600                  -2384537.08740  26241673.72740
  -1329897.30100  28113079.42300                   -725416.91740  28113084.23940
  -1529028.55600  25111397.06300                  -1120421.15540  25111400.29840
  36875003.37900  28595962.74300                  28819277.36840  28595964.84140
   5815019.04500  24757429.34500                   4581168.80740  24757431.43140
 96  9  7  2 59 30.0130000  0  7  4 14 18 19 22 25 29
   1749589.49600  28577891.61000                   1271246.19040  28577895.06740
   4887153.17000  24603725.15700                   3950401.00240  24603728.34540
  -3132920.97900  26238893.89900                  -2395908.93140  26238897.07540
  -1359409.82500  28107464.08700                   -748413.66840  28107466.32540
  -1473673.39500  25121931.07900                  -1077287.25040  25121933.70440
  37023594.07000  28624238.53200                  28935062.29140  28624243.06740
   5866448.31200  24767215.98500                   4621243.57140  24767217.98940
 96  9  7  3  0  0.0130000  0  7  4 14 18 19 22 25 29
   1800181.02100  28587519.13400                   1310668.12340  28587521.54840
   4985858.37900  24622507.94600                   4027314.14740  24622511.23940
  -3147398.33700  26236138.32900                  -2407189.96540  26236141.34140
  -1388756.42000  28101877.54000                   -771281.12040  28101881.80640
  -1417659.13700  25132590.14200                  -1033639.76340  25132592.89540
  37172212.95100  28652520.57100                  29050869.20440  28652523.61840
   5918153.24600  24777055.28200                   4661533.13540  24777057.41540
 96  9  7  3  0 30.0130000  0  7  4 14 18 19 22 25 29
   1851226.38300  28597233.19600                   1350443.76440  28597235.73940
   5085101.72200  24641393.29000                   4104646.61440  24641396.63040
  -3161773.72900  26233403.47000                  -2418391.55340  26233406.03640
  -1417942.46400  28096324.62600                   -794023.43940  28096327.89540
  -1361005.76100  25143371.05600                   -989494.26540  25143373.98540
  37320816.70500  28680797.93800                  29166664.34740  28680801.17340
   5970118.61900  24786944.04000                   4702025.63840  24786946.17340
 96  9  7  3  1  0.0130000  0  7  4 14 18 19 22 25 29
   1902787.13100  28607043.50900                   1390620.94340  28607051.22440
   5184911.21900  24660386.68100                   4182420.24540  24660390.00940
  -3176010.09100  26230693.94600                  -2429484.79640  26230696.60640
  -1446932.28400  28090808.48500                   -816612.83840  28090812.20040
  -1303712.10400  25154273.38400                   -944849.84540  25154276.27840
  37469438.41900  28709081.31300                  29282473.46740  28709083.84540
   6022370.43200  24796887.31300                   4742741.34340  24796889.41140
 96  9  7  3  1 30.0130000  0  7  4 14 18 19 22 25 29
   1954824.41600  28616947.40700                   1431169.33340  28616949.52840
   5285262.84000  24679483.36000                   4260616.30540  24679486.66540
  -3190137.63100  26228005.44600                  -2440493.25140  26228008.50540
  -1475746.73200  28085325.29800                   -839065.65040  28085328.81340
  -1245837.83000  25165286.75100                   -899752.99240  25165289.58740
  37618035.96700  28737357.04800                  29398263.74240  28737358.30240
   6074852.05400  24806873.73500                   4783636.12040  24806875.84540
 96  9  7  3  2  0.0130000  0  7  4 14 18 19 22 25 29
   2007326.58900  28626937.25100
   5386135.65000  24698678.20400                   4339218.48940  24698681.61440
  -3204166.04100  26225336.29000                  -2451424.46340  26225338.90340
  -1504396.60500  28079873.31300                   -861390.15840  28079878.11840
  -1187394.97100  25176408.06300                   -854213.09340  25176410.94640
  37766579.59800  28765625.37600                  29514012.04840  28765628.02440
   6127526.43700  24816897.57100                   4824681.09740  24816899.59940
 96  9  7  3  2 30.0140000  0  7  4 14 18 19 22 25 29
   2060250.84400  28637008.85000
   5487439.36000  24717955.94300                   4418156.43040  24717959.11940
  -3218160.88300  26222673.51400                  -2462329.50840  26222676.33840
  -1532964.58600  28074436.22500                   -883650.87940  28074440.92440
  -1128454.15100  25187623.97500                   -808285.17040  25187626.99840
  37914998.33500  28793867.24000                  29629663.00340  28793870.34640
   6180310.87400  24826941.76400                   4865811.83840  24826943.88540
 96  9  7  3  3  0.0140000  0  6  4 14 18 19 22 29
   2113668.65700  28647174.02900
   5589251.73800  24737330.30300                   4497490.74240  24737333.56040
  -3232053.50100  26220028.94300                  -2473154.90540  26220031.79140
  -1561388.37400  28069027.77100                   -905799.24240  28069033.98240
  -1068941.14900  25198949.28700                   -761911.38740  25198952.26440
   6233282.99200  24837022.32600                   4907088.81440  24837024.37740
 96  9  7  3  3 30.0140000  0  6  4 14 18 19 22 29
   2167579.41200  28657432.99800                     21059.52950  28657436.60740
   5691595.56600  24756805.52900                   4577239.17040  24756809.03340
  -3245832.25500  26217407.48200                  -2483891.58740  26217410.69340
  -1589652.39400  28063650.06000                   -927823.11940  28063652.42840
  -1008808.32300  25210391.99000                   -715054.63140  25210394.63940
   6286466.39600  24847142.85000                   4948530.43640  24847144.88940
 96  9  7  3  4  0.0140000  0  6  4 14 18 19 22 29
   2222037.62600  28667795.36500                     63494.48040  28667798.29540
   5794487.55800  24776385.31000                   4657414.74640  24776388.67440
  -3259465.49500  26214813.08400                  -2494514.87540  26214816.15440
  -1617736.84300  28058304.85700                   -949707.03840  28058311.52540
   -947995.42900  25221964.10700                   -667667.94440  25221967.15440
   6339902.91200  24857311.13900                   4990169.28640  24857313.21340
 96  9  7  3  4 30.0140000  0  6  4 14 18 19 22 29
   2276977.34600  28678250.35700                    106304.63640  28678254.71740
   5897866.08500  24796057.38900                   4737969.43440  24796060.86940
  -3273020.25800  26212233.27100                  -2505077.01240  26212236.04940
  -1645709.83100  28052981.47500                   -971504.16140  28052986.65440
   -886574.52200  25233652.32600                   -619807.48740  25233655.03340
   6393547.62100  24867519.62300                   5031970.36440  24867521.63940
 96  9  7  3  5  0.0140000  0  6  4 14 18 19 22 29
   2332372.65000  28688792.59200                    149469.80040  28688797.24440
   6001746.33100  24815825.27100                   4818915.07640  24815828.52940
  -3286500.73000  26209668.10000                  -2515581.26540  26209670.93540
  -1673557.65600  28047681.96700                   -993203.69540  28047685.72840
   -824557.90200  25245453.58400                   -571482.83140  25245456.20940
   6447403.19600  24877767.83400                   5073935.74740  24877769.95540
 96  9  7  3  5 30.0140000  0  6  4 14 18 19 22 29
   2388326.75900  28699440.34200                    193070.41740  28699444.31440
   6106210.07300  24835704.35700                   4900315.39240  24835707.48640
  -3299800.76600  26207137.36500                  -2525944.91340  26207140.38940
  -1701170.42400  28042428.19300                  -1014720.11640  28042434.27540
   -761846.15300  25257387.28700                   -522616.51940  25257390.34640
   6501550.14100  24888071.72500                   5116128.17840  24888073.78740
 96  9  7  3  6  0.0140000  0  6  4 14 18 19 22 29
   2444714.35500  28710170.31800                    237008.72940  28710173.44740
   6211117.14800  24855667.42000                   4982061.16440  24855670.73640
  -3313060.97100  26204613.85000                  -2536277.52940  26204616.65040
  -1728687.47800  28037191.23200                  -1036161.91340  28037196.64640
   -698601.38100  25269422.17000                   -473334.86340  25269425.17040
   6555847.66000  24898404.66200                   5158437.93340  24898406.61940
 96  9  7  3  6 30.0140000  0  6  4 14 18 19 22 29
   2501614.62600  28720997.76400                    281346.62140  28721000.78740
   6316563.99700  24875733.34200                   5064227.54040  24875736.51740
  -3326200.29700  26202113.15400                  -2546515.94840  26202116.18940
  -1756014.89100  28031992.07600                  -1057455.96940  28031995.27540
   -634745.50800  25281573.52100                   -423577.02640  25281576.38140
   6610393.48500  24908784.03700                   5200941.18340  24908786.10040
 96  9  7  3  7  0.0140000  0  6  4 14 18 19 22 29
   2559035.52600  28731924.43500                    326090.21440  28731930.36540
   6422540.63300  24895899.95900                   5146806.72940  24895903.19340
  -3339220.85600  26199635.42800                  -2556661.83140  26199638.40440
  -1783149.61600  28026827.56000                  -1078599.88440  28026832.70540
   -570273.53700  25293841.99800                   -373339.10440  25293845.11540
   6665184.39600  24919210.22500                   5243635.40640  24919212.35740
 96  9  7  3  7 30.0140000  0  6  4 14 18 19 22 29
   2616972.24600  28742948.84200                    371235.67140  28742951.29140
   6529018.93700  24916161.55300                   5229776.83340  24916164.98640
  -3352132.38100  26197178.73200                  -2566722.74140  26197181.82640
  -1810127.50400  28021693.99000                  -1099621.56940  28021698.37340
   -505188.29600  25306227.71700                   -322623.31940  25306230.58840
   6720216.40100  24929682.70900                   5286517.48940  24929684.71340
 96  9  7  3  8  0.0140000  0  6  4 14 18 19 22 29
   2675400.18800  28754067.70100                    416763.89440  28754072.67040
   6635991.61500  24936518.34200                   5313132.15340  24936521.62340
  -3364945.58400  26194740.38900                  -2576707.04340  26194743.22540
  -1836964.51300  28016588.06000                  -1120533.46740  28016593.06440
   -439512.58800  25318724.96700                   -271447.43240  25318727.96740
   6775496.73100  24940202.04500                   5329593.07740  24940204.18940
 96  9  7  3  8 30.0140000  0  6  4 14 18 19 22 29
   2734313.39900  28765278.87300                    462670.30340  28765281.29940
   6743462.86700  24956969.42800                   5396875.97640  24956972.72140
  -3377647.69800  26192323.05300                  -2586604.79140  26192326.14640
  -1863652.03500  28011508.62300                  -1141328.88440  28011513.45140
   -373231.68000  25331338.12300                   -219799.95240  25331340.57240
   6831033.50900  24950770.58400                   5372868.49540  24950772.62340
 96  9  7  3  9  0.0140000  0  6  4 14 18 19 22 29
   2793722.86500  28776583.44300                    508963.39440  28776587.15840
   6851458.30400  24977520.02100                   5481028.25440  24977523.53740
  -3390197.20200  26189935.52900                  -2596383.60340  26189938.28340
  -1890157.85200  28006464.19300                  -1161982.73940  28006468.55340
   -306333.42400  25344068.22500                   -167671.42340  25344071.06040
   6886834.03700  24961388.81800                   5416349.43440  24961390.74040
 96  9  7  3  9 30.0140000  0  6  4 14 18 19 22 29
   2853600.34800  28787979.96700                    555621.16240  28787982.27540
   6959972.85200  24998170.01400                   5565585.03740  24998173.14240
  -3402604.39800  26187574.20100                  -2606051.52640  26187576.94340
  -1916492.68800  28001453.13100                  -1182503.31340  28001458.85040
   -238833.13600  25356913.34200                   -115073.78640  25356915.97840
   6942888.84500  24972055.90400                   5460028.50840  24972057.97840
 96  9  7  3 10  0.0140000  0  6  4 14 18 19 22 29
   2913903.27800  28799452.92800                    602610.46540  28799457.39240
   7068963.71400  25018909.91200                   5650512.96840  25018913.28740
  -3414909.22800  26185232.31000                  -2615639.69040  26185235.24040
  -1942674.48300  27996471.66200                  -1202904.67840  27996477.81440
   -170780.66800  25369862.95900                    -62045.87940  25369865.65440
   6999150.45600  24982761.98200                   5503868.73040  24982764.06840
 96  9  7  3 10 30.0140000  0  6  4 14 18 19 22 29
   2974659.06900  28811014.92000                    649952.65740  28811020.07640
   7178450.50500  25039744.88100                   5735827.34440  25039748.10340
  -3427096.51700  26182913.99000                  -2625136.26240  26182916.86140
  -1968673.60000  27991524.56000                  -1223163.71840  27991529.69340
   -102136.84600  25382925.31800                     -8557.17240  25382928.33040
   7055638.93000  24993511.52900                   5547885.72740  24993513.47540
 96  9  7  3 11  0.0140000  0  6  4 14 18 19 22 29
   3035894.73100  28822667.52900                    697668.71540  28822669.85040
   7288456.26800  25060677.70900                   5821546.11040  25060681.42440
  -3439143.09000  26180620.74800                  -2634523.18040  26180623.24440
  -1994472.28100  27986613.79500                  -1243266.49240  27986618.11940
    -32877.31600  25396105.13100                     45411.31140  25396108.01440
   7112390.85900  25004310.63100                   5592108.01940  25004312.77540
 96  9  7  3 11 30.0140000  0  6  4 14 18 19 22 29
   3097582.27700  28834407.31800                    745736.94440  28834411.25640
   7398929.04000  25081700.52900                   5907628.77740  25081703.67040
  -3451094.75700  26178347.08400                  -2643836.14540  26178349.89640
  -2020128.33400  27981732.29500                  -1263258.19440  27981736.56040
     36960.01600  25409394.96700                     99830.01140  25409397.73240
   7169371.84300  25015154.17800                   5636508.78640  25015156.24040
 96  9  7  3 12  0.0140000  0  6  4 14 18 19 22 29
   3159772.68400  28846240.38100                    794197.01640  28846244.29540
   7509906.40300  25102818.44300                   5994104.63640  25102821.86540
  -3462908.59400  26176098.86500                  -2653041.70440  26176101.88940
  -2045610.29600  27976882.66200                  -1283114.22240  27976887.91240
    107417.36900  25422802.13100                    154731.86040  25422805.04940
   7226607.29000  25026045.49000                   5681107.83940  25026047.48240
 96  9  7  3 12 30.0140000  0  6  4 14 18 19 22 29
   3222424.57500  28858162.99800                    843016.64440  28858166.10340
   7621358.23700  25124027.17000                   6080950.21240  25124030.52140
  -3474622.93100  26173869.27900                  -2662169.72940  26173872.12740
  -2070982.18500  27972054.79500                  -1302884.47840  27972058.85040
    178452.00800  25436319.77900                    210083.54040  25436322.46340
   7284058.94900  25036978.30300                   5725875.36840  25036980.34240
 96  9  7  3 13  0.0140000  0  6  4 14 18 19 22 29
   3285572.30800  28870179.88900                    892222.65140  28870185.18540
   7733313.15200  25145331.49000                   6168187.80640  25145334.86540
  -3486186.12300  26171668.49000                  -2671179.98540  26171671.60740
  -2096217.37800  27967252.69300                  -1322548.22740  27967257.85040
    250083.84500  25449950.66200                    265900.56540  25449953.53340
   7341754.51300  25047957.13900                   5770832.95640  25047959.26040
 96  9  7  3 13 30.0140000  0  6  4 14 18 19 22 29
   3349191.77400  28882286.96700                    941796.25840  28882290.31840
   7845742.06200  25166726.02900                   6255794.73840  25166729.33440
  -3497612.17500  26169494.74800                  -2680083.38040  26169497.84240
  -2121324.62900  27962475.41200                  -1342112.25140  27962479.03340
    322295.73600  25463692.42800                    322169.57840  25463694.97140
   7399658.44100  25058976.31000                   5815952.90040  25058978.31440
 96  9  7  3 14  0.0140000  0  6  4 14 18 19 22 29
   3413254.54000  28894476.59200                    991715.25740  28894479.95540
   7958631.53400  25188208.49000                   6343760.54740  25188211.90040
  -3508924.01600  26167342.38100                  -2688897.77740  26167345.28740
  -2146307.58500  27957720.16200                  -1361579.44440  27957725.17840
    395083.49200  25477543.08400                    378887.33040  25477546.20140
   7457759.95700  25070032.24000                   5861226.81140  25070034.27940
 96  9  7  3 14 30.0140000  0  6  4 14 18 19 22 29
   3477770.55200  28906754.35000                   1041987.45540  28906756.96340
   8072009.01000  25209783.31800                   6432106.61940  25209786.85740
  -3520103.13100  26165214.70100                  -2697608.74740  26165217.58440
  -2171137.72300  27952995.88900                  -1380927.57240  27953000.44740
    468456.78400  25491505.55300                    436061.32840  25491508.55340
   7516094.19600  25081133.15400                   5906682.06540  25081135.26440
 96  9  7  3 15  0.0140000  0  6  4 14 18 19 22 29
   3542695.64300  28919109.29500                   1092578.45840  28919113.65440
   8185841.08400  25231444.69300                   6520806.92640  25231448.11540
  -3531193.93900  26163104.09200                  -2706250.91440  26163107.15040
  -2195822.28100  27948297.37300                  -1400162.26440  27948303.22140
    542393.05300  25505575.58400                    493674.01940  25505578.47840
   7574633.36400  25092272.85000                   5952297.00240  25092274.85340
 96  9  7  3 15 30.0140000  0  6  4 14 18 19 22 29
   3608028.10900  28931541.34200                   1143486.83740  28931544.92840
   8300145.42500  25253196.17000                   6609875.23640  25253199.56840
  -3542217.90800  26161006.56000                  -2714840.99540  26161009.35040
  -2220353.62800  27943630.77900                  -1419277.53640  27943635.11540
    616899.32500  25519753.52100                    551730.86540  25519756.19340
   7633378.42200  25103451.40400                   5998072.37340  25103453.63140
 96  9  7  3 16  0.0140000  0  6  4 14 18 19 22 29
   3673767.79100  28944050.74000                   1194712.55340  28944053.41240
   8414934.66200  25275039.67000                   6699321.38340  25275043.36140
  -3553179.29700  26158920.45100                  -2723382.31840  26158923.40440
  -2244740.72800  27938989.22500                  -1438280.41940  27938993.11540
    691968.11400  25534038.32600                    610226.03940  25534041.29140
   7692335.90100  25114670.83400                   6044013.27140  25114672.85040
 96  9  7  3 16 30.0150000  0  6  4 14 18 19 22 29
   3740011.90900  28956657.25300                   1246331.35840  28956661.01540
   8530290.06100  25296991.22900                   6789208.69640  25296994.45240
  -3563976.21900  26156866.33900                  -2731795.48740  26156869.22240
  -2268887.22100  27934394.16700                  -1457095.83140  27934401.03840
    767695.82500  25548449.07300                    669234.65040  25548451.96840
   7751599.54700  25125948.19800                   6090192.73940  25125950.29640
 96  9  7  3 17  0.0150000  0  6  4 14 18 19 22 29
   3806714.10800  28969350.59700                   1298307.05740  28969353.60840
   8646110.47200  25319031.28400                   6879458.35040  25319034.89340
  -3574659.06200  26154833.37800                  -2740119.75740  26154836.19040
  -2292858.11300  27929832.33900                  -1475774.41640  27929837.50740
    844030.33900  25562975.05000                    728716.10240  25562977.88640
   7811104.79900  25137271.68300                   6136560.46840  25137273.71040
 96  9  7  3 17 30.0150000  0  6  4 14 18 19 22 29
   3873897.32100  28982134.49500                   1350657.64840  28982136.45240
   8762382.14900  25341157.08900                   6970059.64540  25341160.40540
  -3585204.70500  26152825.78400                  -2748337.11740  26152828.64340
  -2316665.81800  27925302.90900                  -1494325.82140  27925307.73740
    920967.72400  25577615.55000                    788667.31640  25577618.47940
   7870851.36300  25148640.99500                   6183116.23340  25148642.96440
 96  9  7  3 18  0.0150000  0  6  4 14 18 19 22 29
   3941563.86800  28995011.72900                   1403384.77440  28995014.89340
   8879087.65000  25363365.17500                   7060998.99140  25363368.45640
  -3595594.75600  26150849.68300                  -2756433.24740  26150852.56540
  -2340309.14600  27920802.98700                  -1512749.14040  27920807.47540
    998501.90900  25592370.04200                    849083.57440  25592372.96040
   7930847.03700  25160057.71400                   6229866.11240  25160059.74140
 96  9  7  3 18 30.0150000  0  6  4 14 18 19 22 29
   4009662.35500  29007969.65900                   1456448.47140  29007974.55840
   8996159.91900  25385643.17500                   7152224.12440  25385646.91340
  -3605881.95800  26148891.92500                  -2764449.23340  26148894.83140
  -2363834.36200  27916325.81500                  -1531080.44840  27916331.11240
   1076570.93800  25607225.88600                    909916.59240  25607228.75740
   7991040.72400  25171512.33900                   6276770.28740  25171514.44840
 96  9  7  3 19  0.0150000  0  6  4 14 18 19 22 29
   4078259.48600  29021023.22200                   1509900.79540  29021027.55840
   9113703.82100  25408011.45600                   7243816.76740  25408014.94840
  -3615990.59200  26146967.60400                  -2772326.07540  26146970.17140
  -2387170.33600  27911885.65100                  -1549264.26340  27911890.57340
   1155226.71400  25622193.55000                    971206.81640  25622196.16340
   8051512.43000  25183019.53400                   6323891.10340  25183021.67940
 96  9  7  3 19 30.0150000  0  6  4 14 18 19 22 29
   4147263.47800  29034155.16700                   1563670.12440  29034160.25340
   9231681.27300  25430461.52600                   7335747.23540  25430465.04240
  -3625991.35500  26145064.74500                  -2780118.85540  26145067.52240
  -2410380.39900  27907468.26100                  -1567349.98040  27907473.69840
   1234395.86900  25637258.99500                   1032897.08040  25637261.99540
   8112185.05500  25194565.25300                   6371168.47640  25194567.36240
 96  9  7  3 20  0.0150000  0  6  4 14 18 19 22 29
   4216730.00000  29047373.16700                   1617799.86040  29047377.24540
   9350169.96200  25453009.48700                   7428076.07440  25453013.10840
  -3635832.67200  26143191.58900                  -2787787.40440  26143194.06140
  -2433398.28500  27903088.64300                  -1585285.93540  27903092.75740
   1314146.13200  25652434.94800                   1095040.14940  25652437.81940
   8173125.63600  25206162.01800                   6418654.64640  25206164.02240
 96  9  7  3 20 30.0150000  0  6  4 14 18 19 22 29
   4286655.13600  29060680.04200                   1672286.98940  29060681.63640
   9469179.00100  25475655.87800                   7520810.38040  25475659.55840
  -3645512.25500  26141349.57300                  -2795329.92240  26141352.29240
  -2456228.35800  27898744.50300                  -1603075.57140  27898749.72940
   1394489.65700  25667723.92500                   1157645.50440  25667726.76140
   8234336.02200  25217810.00300                   6466351.05740  25217812.12440
 96  9  7  3 21  0.0150000  0  6  4 14 18 19 22 29
   4356974.64300  29074061.40900                   1727081.37440  29074064.76140
   9588640.74300  25498388.87000                   7613897.44540  25498392.25740
  -3655099.61400  26139525.23700                  -2802800.58640  26139528.08540
  -2478939.27300  27894422.77600                  -1620772.33140  27894427.74540
   1475368.57100  25683114.67500                   1220668.04940  25683117.64040
   8295745.34800  25229495.82300                   6514202.48240  25229497.82740
 96  9  7  3 21 30.0150000  0  6  4 14 18 19 22 29
   4427717.33800  29087522.37800                   1782205.52240  29087526.94840
   9708544.52500  25521205.47900                   7707328.94940  25521209.14740
  -3664584.52100  26137721.24500                  -2810191.40040  26137724.16340
  -2501510.93600  27890127.50300                  -1638360.58940  27890132.69440
   1556812.91100  25698612.81500                   1284131.18040  25698615.59340
   8357362.85400  25241220.91700                   6562216.12540  25241223.05040
 96  9  7  3 22  0.0150000  0  6  4 14 18 19 22 29
   4498883.24700  29101065.59700                   1837659.52340  29101070.75340
   9828876.59000  25544104.15100                   7801094.18740  25544107.50340
  -3673975.22500  26135933.24500                  -2817508.82040  26135936.05840
  -2523940.42900  27885858.85400                  -1655838.08840  27885863.95240
   1638811.58000  25714216.80000                   1348026.25440  25714219.41340
   8419195.43100  25252987.37000                   6610397.35840  25252989.33940
 96  9  7  3 22 30.0150000  0  6  4 14 18 19 22 29
   4570535.60100  29114700.27600                   1893492.50140  29114703.22940
   9949698.44400  25567095.68300                   7895241.08140  25567099.39740
  -3683191.38900  26134179.68300                  -2824690.23940  26134182.48340
  -2546157.41500  27881631.01100                  -1673149.98440  27881635.40540
   1721429.29300  25729938.22900                   1412403.70640  25729941.28840
   8481319.21600  25264809.20600                   6658805.50340  25264811.35040
 96  9  7  3 23  0.0150000  0  6  4 14 18 19 22 29
   4642651.95900  29128424.46400                   1949687.02540  29128429.10440
  10070979.29600  25590174.69000                   7989745.63240  25590178.08940
  -3692270.65800  26132452.40900                  -2831764.97440  26132455.26840
  -2568183.83800  27877439.44800                  -1690313.37240  27877444.37040
   1804631.25200  25745771.40100                   1477236.40540  25745773.93340
   8543709.41600  25276681.72900                   6707421.24340  25276683.83940
 96  9  7  3 23 30.0150000  0  6  4 14 18 19 22 29
   4715237.38300  29142237.33100                   2006247.07340  29142242.67540
  10192734.26800  25613343.98700                   8084619.62140  25613347.45640
  -3701190.21000  26130754.80000                  -2838715.26840  26130757.63640
  -2590018.67800  27873284.69000                  -1707327.49140  27873289.39040
   1888431.10800  25761717.71400                   1542535.00140  25761720.31540
   8606385.25100  25288608.41700                   6756259.55840  25288610.40940
 96  9  7  3 24  0.0150000  0  6  4 14 18 19 22 29
   4788272.48400  29156134.65900                   2063157.58140  29156140.42540
  10314949.97900  25636600.87000                   8179852.63840  25636604.21040
  -3709944.20200  26129088.36200                  -2845536.54240  26129091.25740
  -2611690.91100  27869160.21400                  -1724214.90240  27869164.62040
   1972812.80200  25777775.05000                   1608286.97740  25777778.05040
   8669343.13300  25300588.69800                   6805317.65140  25300590.87840
 96  9  7  3 24 30.0150000  0  6  4 14 18 19 22 29
   4861733.50400  29170113.32300                   2120399.90440  29170118.71440
  10437598.58100  25659940.24500                   8275422.96440  25659943.78440
  -3718534.17300  26127454.08900                  -2852229.99940  26127456.74940
  -2633234.56800  27865061.33900                  -1741002.13340  27865065.61640
   2057751.37000  25793938.28400                   1674472.88640  25793941.09740
   8732562.60200  25312619.36200                   6854579.57840  25312621.41340
 96  9  7  3 25  0.0150000  0  6  4 14 18 19 22 29
   4935644.84400  29184177.44000                   2177993.12240  29184181.13240
  10560695.72900  25683364.67500                   8371342.81340  25683367.97940
  -3726950.43800  26125852.44000                  -2858788.11640  26125855.31140
  -2654633.41800  27860988.62000                  -1757676.51440  27860992.83940
   2143257.24100  25810209.62800                   1741100.84140  25810212.42940
   8796050.85900  25324700.46400                   6904050.94740  25324702.44440
 96  9  7  3 25 30.0150000  0  6  4 14 18 19 22 29
   5010008.63600  29198329.22200                   2235938.89440  29198332.71440
  10684249.53900  25706876.36200                   8467618.49240  25706879.73740
  -3735161.46300  26124290.48700                  -2865186.29340  26124293.12440
  -2675871.19800  27856947.35400                  -1774225.37640  27856951.19840
   2229340.56600  25826590.64300                   1808178.76740  25826593.51540
   8859824.10200  25336836.60400                   6953744.38240  25336838.50340
 96  9  7  3 26  0.0150000  0  6  4 14 18 19 22 29
   5084814.70200  29212564.59700                   2294229.28740  29212568.81540
  10808262.19600  25730475.06500                   8564251.72740  25730478.44040
  -3743179.31200  26122764.02600                  -2871433.95340  26122766.71040
  -2696931.19400  27852940.36200                  -1790635.74840  27852943.73740
   2315991.64700  25843079.97900                   1875699.09740  25843082.64040
   8923865.59300  25349023.01800                   7003646.84440  25349025.19840
 96  9  7  3 26 30.0150000  0  6  4 14 18 19 22 29
   5160023.23000  29226876.10400                   2352833.29340  29226878.91740
  10932706.20300  25754156.08100                   8661221.07440  25754159.42140
  -3751067.82300  26121262.83900                  -2877580.81440  26121265.85040
  -2717822.31400  27848963.90900                  -1806914.50340  27848967.37840
   2403179.97300  25859671.54200                   1943638.05840  25859674.27240
   8988135.92200  25361253.04200                   7053727.62140  25361255.06940
 96  9  7  3 27  0.0150000  0  6  4 14 18 19 22 29
   5235656.60600  29241269.67500                   2411768.39440  29241272.17140
  11057617.46900  25777925.85400                   8758554.51840  25777929.68640
  -3758816.45800  26119788.72900                  -2883618.69540  26119791.29640
  -2738499.75600  27845029.04200                  -1823026.75540  27845033.27240
   2490955.53000  25876374.34700                   2012034.60540  25876377.26540
   9052656.31000  25373530.99500                   7104003.24640  25373533.09340
 96  9  7  3 27 30.0150000  0  6  4 14 18 19 22 29
   5311658.80900  29255733.24500                   2470990.87240  29255735.68340
  11182956.38300  25801776.97900                   8856221.19740  25801780.55440
  -3766446.29500  26118337.35400                  -2889564.00840  26118339.89740
  -2759005.29400  27841126.82300                  -1839005.06740  27841130.91340
   2579291.42600  25893184.17500                   2080867.77540  25893186.90540
   9117390.71200  25385849.30800                   7154445.64140  25385851.42940
 96  9  7  3 28  0.0150000  0  6  4 14 18 19 22 29
   5388063.99900  29270270.72900                   2530527.35540  29270273.50740
  11308756.13500  25825715.86200                   8954246.97240  25825719.27240
  -3773933.25100  26116912.08100                  -2895397.97540  26116914.75340
  -2779305.38800  27837263.76100                  -1854823.27140  27837268.19040
   2668220.88500  25910106.77600                   2150163.46440  25910109.67140
   9182368.94300  25398214.43300                   7205078.02940  25398216.37840
 96  9  7  3 28 30.0150000  0  6  4 14 18 19 22 29
   5464840.61900  29284881.44800                   2590353.23040  29284884.91740
  11434964.77100  25849732.37800                   9052591.35140  25849736.19840
  -3781302.50500  26115509.83100                  -2901140.23940  26115512.50340
  -2799447.19100  27833431.40100                  -1870518.13740  27833435.70240
   2757709.32100  25927135.91700                   2219894.72340  25927138.69440
   9247569.53600  25410621.92500                   7255883.68240  25410624.01140
 96  9  7  3 29  0.0150000  0  6  4 14 18 19 22 29
   5542040.24000  29299572.39300                   2650508.81940  29299577.01140
  11561617.93800  25873834.10400                   9151282.12940  25873837.79640
  -3788488.96100  26114142.27600                  -2906740.06240  26114144.92540
  -2819405.51500  27829633.92500                  -1886070.02040  27829638.40140
   2847793.67500  25944278.31500                   2290090.32940  25944281.02240
   9313043.48300  25423081.13600                   7306902.34440  25423083.29240
 96  9  7  3 29 30.0150000  0  6  4 14 18 19 22 29
   5619682.32900  29314346.88600                   2711009.09640  29314351.56140
  11688705.61600  25898017.79200                   9250311.47740  25898021.39040
  -3795491.14000  26112809.64300                  -2912196.28140  26112812.30440
  -2839189.09200  27825868.62800                  -1901485.76040  27825872.00340
   2938446.80000  25961529.18300                   2360729.14340  25961531.62040
   9378800.79400  25435594.31500                   7358141.81040  25435596.44840
 96  9  7  3 30  0.0150000  0  6  4 14 18 19 22 29
   5697809.22300  29329213.09700                   2771887.18440  29329218.17140
  11816259.13000  25922290.52600                   9349703.81340  25922294.30040
  -3802300.80100  26111514.09700                  -2917502.49840  26111516.73340
  -2858759.80500  27822144.43300                  -1916735.61040  27822147.65540
   3029691.74800  25978892.37000                   2431829.10440  25978895.37040
   9444874.32600  25448167.67500                   7409627.68040  25448169.72540
 96  9  7  3 30 30.0160000  0  6  4 14 18 19 22 29
   5776372.41000  29344164.62500                   2833105.26840  29344169.74640
  11944215.54000  25946639.55500                   9449410.09740  25946643.30540
  -3808977.98600  26110243.41400                  -2922705.48340  26110245.96940
  -2878192.27100  27818446.25800                  -1931877.74640  27818449.89140
   3121468.56300  25996357.07800                   2503343.51440  25996359.90240
   9511205.57900  25460789.91400                   7461314.37440  25460791.96540
 96  9  7  3 31  0.0160000  0  6  4 14 18 19 22 29
   5855355.48000  29359193.04700                   2894650.47940  29359195.60140
  12072563.49800  25971063.51600                   9549421.48340  25971066.98440
  -3815531.14800  26108996.00800                  -2927811.82840  26108998.66840
  -2897499.21700  27814772.77300                  -1946922.06440  27814776.99240
   3213744.20200  26013916.41400                   2575246.61140  26013919.25040
   9577770.96700  25473457.48400                   7513183.50840  25473459.38340
 96  9  7  3 31 30.0160000  0  6  4 14 18 19 22 29
   5934777.51900  29374308.35900                   2956537.76540  29374310.34040
  12201336.12700  25995567.70300                   9649763.78640  25995571.57040
  -3821931.73300  26107777.94500                  -2932799.29240  26107780.31240
  -2916639.17900  27811130.79700                  -1961836.27140  27811134.67640
   3306555.08000  26031577.72600                   2647566.78540  26031580.84440
   9644596.20400  25486173.56200                   7565255.12340  25486175.75440
 96  9  7  3 32  0.0160000  0  6  4 14 18 19 22 29
   6014644.32300  29389505.47600                   3018771.69040  29389508.98040
  12330539.32800  26020154.93000                   9750441.59240  26020158.28140
  -3828151.77300  26106594.23400                  -2937646.06340  26106596.96540
  -2935598.00200  27807522.53100                  -1976609.33440  27807525.98840
   3399925.60700  26049345.28100                   2720323.03840  26049348.23440
   9711698.53100  25498942.58600                   7617542.65540  25498944.67240
 96  9  7  3 32 30.0160000  0  6  4 14 18 19 22 29
   6094936.81700  29404784.41400                   3081337.21340  29404786.68740
  12460150.36600  26044819.02300                   9851437.20440  26044822.42240
  -3834194.90700  26105444.77300                  -2942354.98040  26105447.49240
  -2954393.42500  27803945.25000                  -1991255.08240  27803948.82440
   3493837.37100  26067216.30500                   2793501.04140  26067219.30540
   9779067.92700  25511762.67200                   7670038.29540  25511764.74640
 96  9  7  3 33  0.0160000  0  6  4 14 18 19 22 29
   6175654.95700  29420146.00000                   3144234.42040  29420150.86340
  12590188.64300  26069564.07800                   9952765.71740  26069567.80540
  -3840046.27500  26104331.39800                  -2946914.47840  26104334.26940
  -2972986.46200  27800407.58600                  -2005743.11540  27800411.78140
   3588310.01100  26085194.25000                   2867116.09240  26085196.78140
   9846733.74600  25524638.80500                   7722764.91040  25524640.83240
 96  9  7  3 33 30.0160000  0  6  4 14 18 19 22 29
   6256786.97800  29435583.01600                   3207454.14740  29435588.59440
  12720630.69800  26094386.99200                  10054408.86840  26094390.19140
  -3845728.88600  26103249.59400                  -2951342.47140  26103252.48840
  -2991379.75200  27796907.83600                  -2020075.48840  27796911.84440
   3683339.65900  26103277.37500                   2941165.17040  26103280.03540
   9914688.47900  25537570.23400                   7775716.65440  25537572.35540
 96  9  7  3 34  0.0160000  0  6  4 14 18 19 22 29
   6338328.63800  29451100.24200                   3270993.04740  29451104.84840
  12851475.64300  26119285.84400                  10156365.96340  26119289.34840
  -3851252.53400  26102198.50000                  -2955646.59640  26102201.28940
  -3009594.32000  27793441.00800                  -2034268.62940  27793444.31240
   3778902.05700  26121462.68000                   3015629.38540  26121465.37540
   9982924.21400  25550555.32800                   7828887.36140  25550557.42640
 96  9  7  3 34 30.0160000  0  6  4 14 18 19 22 29
   6420318.82600  29466702.82000                   3334881.50140  29466704.88340
  12982792.42600  26144274.53900                  10258690.71940  26144278.39440
  -3856569.83100  26101186.77300                  -2959789.93640  26101189.43340
  -3027569.64600  27790020.84400                  -2048275.33640  27790024.62940
   3875046.74600  26139757.93700                   3090547.33040  26139760.71540
  10051482.30400  25563601.25800                   7882309.25540  25563603.39140
 96  9  7  3 35  0.0160000  0  6  4 14 18 19 22 29
   6502682.47700  29482375.57800                   3399060.95740  29482378.10940
  13114508.29100  26169339.26600                  10361326.45340  26169342.64140
  -3861741.83500  26100202.64100                  -2963820.04640  26100205.33640
  -3045386.41100  27786629.86700                  -2062158.49240  27786633.79340
   3971701.61300  26158151.02300                   3165862.82040  26158153.64840
  10120279.07400  25576692.95300                   7935917.13040  25576695.01640
 96  9  7  3 35 30.0160000  0  6  4 14 18 19 22 29
   6585352.44100  29498108.09400                   3463479.09240  29498110.83640
  13246543.80700  26194464.96100                  10464211.25840  26194468.51240
  -3866825.19700  26099235.21100                  -2967781.09440  26099237.90640
  -3063138.90200  27783252.41400                  -2075991.55240  27783256.17640
   4068785.22600  26176625.70300                   3241512.39340  26176628.38740
  10189222.86400  25589812.43000                   7989639.56840  25589814.48040
 96  9  7  3 36  0.0160000  0  6  4 14 18 19 22 29
   6668321.20800  29513895.28900                   3528130.07040  29513898.52340
  13378913.52100  26219653.84400                  10567356.48640  26219657.25440
  -3871786.01100  26098291.47600                  -2971646.65240  26098294.24240
  -3080818.18200  27779887.72600                  -2089767.58040  27779891.21940
   4166317.06300  26195184.78900                   3317511.22740  26195187.70740
  10258326.27600  25602962.37500                   8043486.38140  25602964.47340
 96  9  7  3 36 30.0160000  0  6  4 14 18 19 22 29
   6751657.51900  29529755.21100                   3593067.42740  29529760.09840
  13511678.82000  26244918.59400                  10670809.95640  26244921.94540
  -3876537.52700  26097386.56200                  -2975349.11240  26097389.39840
  -3098335.84800  27776554.10100                  -2103417.68040  27776557.60540
   4264389.57000  26213847.42200                   3393931.37440  26213850.46940
  10327676.15500  25616159.15600                   8097525.24940  25616161.24240
 96  9  7  3 37  0.0160000  0  6  4 14 18 19 22 29
   6835452.76000  29545702.03900                   3658362.33540  29545705.70740
  13644918.16600  26270273.01600                  10774632.82240  26270276.54340
  -3880982.99100  26096541.15600                  -2978813.09540  26096543.89840
  -3115602.49500  27773269.13300                  -2116872.17540  27773273.09440
   4363091.56900  26232629.97600                   3470842.02940  26232632.88340
  10397370.46100  25629421.40600                   8151832.51040  25629423.42240
 96  9  7  3 37 30.0160000  0  6  4 14 18 19 22 29
   6919615.68100  29561716.89800                   3723943.83240  29561721.05840
  13778548.02700  26295701.80500                  10878759.97540  26295705.47340
  -3885211.63100  26095736.56200                  -2982108.13140  26095739.09440
  -3132673.92000  27770020.25000                  -2130174.56140  27770024.75040
   4462339.20400  26251515.89800                   3548177.85240  26251518.82840
  10467335.32900  25642735.35900                   8206350.58840  25642737.51640
 96  9  7  3 38  0.0160000  0  6  4 14 18 19 22 29
   7004151.53200  29577802.89100                   3789815.88740  29577803.69940
  13912587.21900  26321208.84400                  10983206.08640  26321211.97340
  -3889229.76400  26094971.77300                  -2985239.12640  26094974.31640
  -3149525.06100  27766813.25000                  -2143305.28640  27766816.71940
   4562154.03900  26270510.62500                   3625955.64740  26270513.36740
  10537600.08200  25656106.27300                   8261102.34540  25656108.20740
 96  9  7  3 38 30.0160000  0  6  4 14 18 19 22 29
   7089082.08900  29593966.01600                   3855995.54340  29593970.00040
  14047034.35100  26346793.32000                  11087970.07640  26346796.93040
  -3893052.88300  26094244.10900                  -2988218.17240  26094246.72340
  -3166150.66200  27763649.21100                  -2156260.26840  27763653.05540
   4662526.67700  26289610.33600                   3704168.09740  26289612.90240
  10608170.96700  25669535.83600                   8316092.64140  25669537.76940
 96  9  7  3 39  0.0160000  0  6  4 14 18 19 22 29
   7174335.76600  29610188.75000                   3922426.87140  29610192.82840
  14181809.35200  26372439.75800                  11192989.55640  26372443.49640
  -3896770.60400  26093536.75800                  -2991115.07940  26093539.34840
  -3182635.58800  27760512.07000                  -2169105.63940  27760515.73840
   4763360.02500  26308798.17200                   3782739.54340  26308801.04340
  10678963.96000  25683007.10100                   8371256.01040  25683009.09440
 96  9  7  3 39 30.0160000  0  6  4 14 18 19 22 29
   7259944.43800  29626479.16400                   3989134.94640  29626480.82840
  14316935.80200  26398153.53900                  11298282.88140  26398157.17240
  -3900365.67000  26092852.43700                  -2993916.41640  26092855.15640
  -3198962.22700  27757405.86700                  -2181827.66740  27757409.65240
   4864678.15300  26328078.73400                   3861688.74040  26328081.44140
  10750010.98300  25696526.66400                   8426617.32940  25696528.80840
 96  9  7  3 40  0.0160000  0  6  4 14 18 19 22 29
   7345982.43000  29642849.86700                   4056177.49240  29642853.47640
  14452463.83400  26423944.01600                  11403889.13540  26423947.40240
  -3903779.48200  26092202.95300                  -2996576.51840  26092205.66040
  -3215102.92900  27754333.68700                  -2194404.80740  27754337.43740
   4966527.38000  26347459.73400                   3941051.77740  26347462.66440
  10821368.29400  25710105.46100                   8482220.43240  25710107.37140
 96  9  7  3 40 30.0160000  0  6  4 14 18 19 22 29
   7432503.05100  29659316.60900                   4123596.17240  29659318.95340
  14588432.00100  26449817.53100                  11509838.34140  26449821.31640
  -3906957.16800  26091598.32800                  -2999052.62040  26091600.95340
  -3231029.70100  27751303.00800                  -2206815.24740  27751307.08640
   5068935.26100  26366947.45300                   4020850.13140  26366950.10140
  10893074.98400  25723751.13300                   8538095.77340  25723753.18340
 96  9  7  3 41  0.0160000  0  6  4 14 18 19 22 29
   7519439.60200  29675859.21900                   4191338.88440  29675862.67640
  14724791.32000  26475765.99200                  11616092.35140  26475769.56640
  -3909942.98100  26091030.42200                  -3001379.21440  26091033.07040
  -3246809.27400  27748300.80500                  -2219110.99640  27748304.80140
   5171858.53100  26386533.21100                   4101050.08540  26386535.96540
  10965080.82600  25737453.58600                   8594204.21840  25737455.49640
 96  9  7  3 41 30.0160000  0  6  4 14 18 19 22 29
   7606788.16100  29692479.48400                   4259402.67740  29692483.86740
  14861540.17300  26501788.64800                  11722649.89440  26501792.32840
  -3912727.96000  26090499.71100                  -3003549.31440  26090502.26640
  -3262443.05700  27745325.90600                  -2231293.12140  27745329.58640
   5275308.69900  26406219.24200                   4181660.61540  26406222.20740
  11037382.75300  25751212.04700                   8650543.38440  25751214.10940
 96  9  7  3 42  0.0160000  0  6  4 14 18 19 22 29
   7694472.45600  29709167.46100                   4327728.03440  29709171.50440
  14998614.61500  26527873.04700                  11829461.13540  26527876.64440
  -3915375.86800  26089995.84400                  -3005612.60940  26089998.29340
  -3277998.00100  27742365.51600                  -2243413.81940  27742369.64140
   5379222.10900  26425992.94500                   4262632.11340  26425995.87540
  11109916.61300  25765014.65600                   8707063.27640  25765016.74240
 96  9  7  3 42 30.0160000  0  6  4 14 18 19 22 29
   7782555.09700  29725929.05500                   4396363.87440  29725931.66840
  15136090.37000  26554033.89800                  11936585.09340  26554037.09840
  -3917801.54000  26089534.73400                  -3007502.72640  26089537.44140
  -3293370.02500  27739439.82000                  -2255391.97340  27739443.18340
   5483697.65800  26445873.71900                   4344041.63440  26445876.60140
  11182767.75500  25778877.67200                   8763830.40140  25778879.79340
 96  9  7  3 43  0.0160000  0  6  4 14 18 19 22 29
   7870958.65600  29742751.21900                   4465249.71740  29742752.95340
  15273904.54000  26580258.93700                  12043972.74440  26580262.17240
  -3920060.94900  26089104.34400                  -3009263.29340  26089106.88740
  -3308593.19200  27736543.05500                  -2267254.14540  27736547.42640
   5588674.39100  26465850.57000                   4425841.69340  26465853.07840
  11255861.10800  25792786.91400                   8820786.25840  25792788.96540
 96  9  7  3 43 30.0160000  0  6  4 14 18 19 22 29
   7959734.66800  29759644.36700                   4534425.81440  29759647.02740
  15412102.62300  26606557.07800                  12151659.55340  26606561.05140
  -3922104.73900  26088715.78900                  -3010855.84840  26088718.35540
  -3323595.02300  27733689.06200                  -2278943.85040  27733692.81240
   5694188.00200  26485928.65600                   4508060.09040  26485931.59840
  11329242.79300  25806751.03900                   8877966.78740  25806752.97340
 96  9  7  3 44  0.0160000  0  6  4 14 18 19 22 29
   8048873.68600  29776606.68700                   4603884.77840  29776611.93740
  15550677.34000  26632926.87500                  12259639.84540  26632930.51940
  -3923937.12600  26088366.79700                  -3012283.66540  26088369.24640
  -3338369.54200  27730876.82000                  -2290456.41140  27730880.93340
   5800227.24200  26506107.74200                   4590688.08140  26506110.88340
  11402914.44200  25820770.28900                   8935373.27140  25820772.31640
 96  9  7  3 44 30.0160000  0  6  4 14 18 19 22 29
   8138317.53500  29793628.05500                   4673581.27240  29793634.23040
  15689566.13900  26659356.36700                  12367864.87440  26659360.05840
  -3925607.74500  26088049.03100                  -3013585.43840  26088051.52740
  -3352970.05200  27728098.12500                  -2301833.40440  27728101.53540
   5906722.48200  26526373.00800                   4673671.37740  26526375.73840
  11476805.01500  25834831.29700                   8992950.33740  25834833.44140
 96  9  7  3 45  0.0170000  0  6  4 14 18 19 22 29
   8228089.70600  29810711.05900                   4743533.47340  29810718.63440
  15828791.71100  26685850.39500                  12476352.32540  26685853.77040
  -3927101.42500  26087764.84900                  -3014749.33740  26087767.39140
  -3367396.95100  27725353.30200                  -2313075.09340  27725356.95840
   6013676.90900  26546725.71600                   4757012.49440  26546728.57540
  11550929.67100  25848936.73900                   9050709.81340  25848938.81340
 96  9  7  3 45 30.0170000  0  6  4 14 18 19 22 29
   8318220.81800  29827863.18400                   4813765.47440  29827864.80240
  15968347.71100  26712407.00500                  12585097.24340  26712410.97740
  -3928391.84800  26087519.12200                  -3015754.84840  26087521.65340
  -3381639.36000  27722642.95800                  -2324173.04240  27722646.62640
   6121108.88400  26567169.66100                   4840725.73140  26567172.28640
  11625329.56300  25863094.52800                   9108683.75240  25863096.54440
 96  9  7  3 46  0.0170000  0  6  4 14 18 19 22 29
   8408752.92000  29845089.55200                   4884309.96940  29845091.43840
  16108283.23400  26739035.83300                  12694137.90440  26739039.65340
  -3929431.11900  26087321.70000                  -3016564.65940  26087324.27840
  -3395680.40700  27719970.91100                  -2335114.07940  27719975.14140
   6229052.88800  26587710.15300                   4924837.94040  26587712.81340
  11700046.70500  25877312.69200                   9166904.90040  25877314.76640
 96  9  7  3 46 30.0170000  0  6  4 14 18 19 22 29
   8499695.47500  29862395.62200                   4955174.32040  29862398.70440
  16248615.20200  26765740.23100                  12803487.48240  26765743.57140
  -3930202.31800  26087174.84900                  -3017165.58440  26087177.35640
  -3409516.05800  27717338.20800                  -2345895.04340  27717342.20440
   6337507.94800  26608348.62200                   5009348.38340  26608351.51640
  11775082.62200  25891591.63000                   9225374.44840  25891593.69240
 96  9  7  3 47  0.0170000  0  6  4 14 18 19 22 29
   8590980.36100  29879767.22400                   5026305.26840  29879770.51640
  16389280.99600  26792507.59100                  12913097.17740  26792511.05940
  -3930764.37600  26087067.96600                  -3017603.54640  26087070.56740
  -3423201.51400  27714733.80200                  -2356559.01140  27714737.52840
   6446411.14300  26629072.28600                   5094208.01740  26629075.05240
  11850385.83000  25905921.25500                   9284052.27440  25905923.16540
 96  9  7  3 47 30.0170000  0  6  4 14 18 19 22 29
   8682583.80300  29897197.92700                   5097684.59740  29897201.59540
  16530278.14600  26819338.80900                  13022965.07840  26819342.85240
  -3931123.19700  26086999.13000                  -3017883.13840  26087001.64940
  -3436750.16400  27712156.29400                  -2367116.34740  27712160.46640
   6555747.15100  26649878.43400                   5179404.91540  26649881.38840
  11925944.33700  25920299.49700                   9342929.02840  25920301.50140
 96  9  7  3 48  0.0170000  0  7  3  4 14 18 19 22 29
     -2955.18810  29930877.22400
   8774491.76800  29914688.70000                   5169301.16040  29914694.68840
  16671631.69000  26846237.66900                  13133110.68240  26846241.03240
  -3931281.99100  26086969.30900                  -3018006.86640  26086971.79440
  -3450161.80600  27709603.25500                  -2377566.95040  27709606.97040
   6665528.56800  26670768.83300                   5264948.88140  26670771.59940
  12001750.43000  25934725.04400                   9401998.71140  25934727.10640
 96  9  7  3 48 30.0170000  0  7  3  4 14 18 19 22 29
    -20657.17500  29927507.60600
   8866691.28800  29932233.20800                   5241144.87040  29932239.99340
  16813308.20600  26873197.71600                  13243507.96240  26873201.29040
  -3931250.54800  26086975.25500                  -3017982.35640  26086977.83340
  -3463423.48300  27707079.61400                  -2387900.67740  27707083.13040
   6775773.27500  26691747.70000                   5350853.84940  26691750.70040
  12077805.54200  25949197.81700                   9461262.43940  25949199.88040
 96  9  7  3 49  0.0170000  0  7  3  4 14 18 19 22 29
    -38249.66300  29924161.08300                     -2731.05150  29924162.91140
   8959239.90600  29949845.30900                   5313260.62340  29949848.88440
  16955351.73800  26900227.42700                  13354191.22440  26900231.14140
  -3930978.28400  26087027.32500                  -3017770.19740  26087029.92740
  -3476484.02600  27704594.70000                  -2398077.69840  27704598.29840
   6886554.14700  26712828.58300                   5437176.61340  26712831.50140
  12154173.44800  25963730.16100                   9520769.89740  25963732.21240
 96  9  7  3 49 30.0170000  0  7  3  4 14 18 19 22 29
    -55790.11400  29920822.26300                    -16398.90540  29920825.18140
   9052085.61400  29967512.85600                   5385607.93440  29967519.36040
  17097688.98900  26927313.27800                  13465103.36040  26927316.68840
  -3930535.91400  26087111.17700                  -3017425.48440  26087113.60240
  -3489416.53700  27702133.06700                  -2408154.93840  27702137.01640
   6997817.44300  26734001.46600                   5523875.28340  26734004.32540
  12230788.51000  25978309.33300                   9580469.94740  25978311.52440
 96  9  7  3 50  0.0170000  0  7  3  4 14 18 19 22 29
    -73241.29200  29917502.05200                    -29997.17440  29917506.42340
   9145286.92000  29985248.81700                   5458232.25940  29985256.66140
  17240344.61500  26954459.98100                  13576263.57440  26954463.77840
  -3929886.02300  26087234.97400                  -3016919.06840  26087237.55240
  -3502165.32400  27699707.13000                  -2418089.03140  27699710.72740
   7109604.58000  26755273.84100                   5610982.15040  26755276.66540
  12307697.96700  25992944.68400                   9640399.39840  25992946.68840
 96  9  7  3 50 30.0170000  0  7  3  4 14 18 19 22 29
    -90536.54000  29914210.20000                    -43473.96440  29914213.42340
   9238932.76200  30003068.57500                   5531203.01940  30003072.05640
  17383379.50600  26981678.72400                  13687719.32340  26981682.48540
  -3928937.93600  26087415.38000                  -3016180.28440  26087417.86440
  -3514643.33900  27697332.56700                  -2427812.12540  27697336.17740
   7221971.27900  26776656.76300                   5698540.62240  26776659.24740
  12384977.76100  26007650.75500                   9700617.41340  26007652.84140
 96  9  7  3 51  0.0170000  0  6  3 14 18 19 22 29
   -107790.64000  29910926.87200                    -56918.76440  29910930.05940
  17526702.57100  27008951.73100                  13799399.63040  27008955.73940
  -3927804.47900  26087631.25500                  -3015297.06240  26087633.77440
  -3526972.43800  27694986.38000                  -2437419.17840  27694990.09540
   7334774.57400  26798122.81700                   5786439.29540  26798125.33740
  12462495.33200  26022402.01300                   9761020.71840  26022403.87640
 96  9  7  3 51 30.0170000  0  6  3 14 18 19 22 29
   -124946.12100  29907663.37200                    -70286.63740  29907666.13840
  17670360.89700  27036289.14500                  13911341.17240  27036292.97740
  -3926438.09200  26087890.73900                  -3014232.34340  26087893.25940
  -3539091.64600  27692680.36400                  -2446862.69440  27692683.48140
   7448046.20300  26819677.30200                   5874702.90640  26819679.98540
  12540302.36000  26037208.21600                   9821649.56540  26037210.10240
 96  9  7  3 52  0.0170000  0  6  3 14 18 19 22 29
   -142064.51300  29904404.59100                    -83625.62040  29904411.07140
  17814287.46800  27063677.33300                  14023491.73940  27063681.00140
  -3924891.25700  26088185.01300                  -3013027.00240  26088187.53240
  -3551049.53000  27690405.20800                  -2456180.48640  27690409.04040
   7561718.57600  26841308.16900                   5963278.78340  26841310.82940
  12618341.42800  26052058.00500                   9882459.23240  26052060.13840
 96  9  7  3 52 30.0170000  0  6  3 14 18 19 22 29
   -159097.32600  29901163.83300                    -96897.91240  29901166.50540
  17958526.84000  27091126.03600                  14135886.03640  27091129.51640
  -3923122.22200  26088521.55900                  -3011648.53040  26088523.90340
  -3562814.95300  27688165.85600                  -2465348.31040  27688169.61840
   7675839.20100  26863025.04400                   6052203.95640  26863028.00940
  12696648.01500  26066959.48100                   9943477.35340  26066961.45040
 96  9  7  3 53  0.0170000  0  6  3 14 18 19 22 29
   -175999.54900  29897947.36400                   -110068.48440  29897952.19240
  18103119.57100  27118640.56700                  14248555.69140  27118644.43440
  -3921109.54200  26088904.98900                  -3010080.19340  26088907.52040
  -3574362.81700  27685968.45000                  -2474346.61040  27685972.04840
   7790453.96100  26884835.70000                   6141514.15740  26884838.47740
  12775278.40000  26081922.31700                  10004747.78140  26081924.38040
 96  9  7  3 53 30.0170000  0  6  3 14 18 19 22 29
   -192776.59600  29894755.25500                   -123141.42540  29894758.82940
  18248050.53400  27146220.28600                  14361488.90740  27146223.98940
  -3918857.71900  26089333.66900                  -3008325.51840  26089336.10640
  -3585715.00600  27683807.73100                  -2483192.43840  27683811.18840
   7905575.73100  26906741.75500                   6231219.43740  26906744.45040
  12854261.16400  26096952.05200                  10066292.79240  26096954.27840
 96  9  7  3 54  0.0170000  0  6  3 14 18 19 22 29
   -209436.49600  29891584.03600                   -136123.10340  29891588.47740
  18393327.00500  27173865.40300                  14474691.33740  27173868.57940
  -3916366.69800  26089807.48900                  -3006384.45540  26089810.03240
  -3596894.95900  27681680.11400                  -2491904.06640  27681684.05240
   8021203.09700  26928745.45000                   6321318.69040  26928748.45040
  12933590.11600  26112048.13800                  10128107.56040  26112050.30640
 96  9  7  3 54 30.0170000  0  6  3 14 18 19 22 29
   -226026.00400  29888426.80200                   -149050.01640  29888429.42740
  18538909.32700  27201568.80200                  14588132.09740  27201572.65740
  -3913691.13300  26090316.50500                  -3004299.59540  26090318.86040
  -3607975.57900  27679571.58300                  -2500538.28140  27679575.32140
   8137267.12500  26950831.35600                   6411758.18940  26950834.11040
  13013213.90700  26127199.97400                  10190152.07140  26127202.05940
 96  9  7  3 55  0.0170000  0  6  3 14 18 19 22 29
   -242398.16500  29885311.98100                   -161807.49440  29885315.47440
  18684934.92400  27229356.18400                  14701918.26040  27229359.87640
  -3910682.92900  26090888.81700                  -3001955.53040  26090891.27840
  -3618817.35200  27677508.75500                  -2508986.38440  27677512.73940
   8253896.45800  26973025.39500                   6502638.19140  26973028.38440
  13093284.93600  26142437.11400                  10252545.07640  26142439.14140
 96  9  7  3 55 30.0170000  0  6  3 14 18 19 22 29
   -258687.19100  29882211.84100                   -174500.24440  29882214.61840
  18831246.02800  27257198.52000                  14815926.91140  27257202.42340
  -3907475.57000  26091499.27000                  -2999456.27940  26091501.68440
  -3629551.80300  27675465.72400                  -2517350.85840  27675469.21640
   8370940.12800  26995298.01300                   6593841.04540  26995300.73140
  13173629.05800  26157725.77800                  10315150.88640  26157727.88840
 96  9  7  3 56  0.0170000  0  6  3 14 18 19 22 29
   -274863.90300  29879134.02000                   -187105.40940  29879137.97040
  18977848.64700  27285096.30200                  14930162.71340  27285099.91140
  -3904042.78200  26092152.42700                  -2996781.36340  26092154.89940
  -3640128.73000  27673453.07500                  -2525592.58740  27673456.66140
   8488397.74300  27017649.34900                   6685366.45940  27017652.00940
  13254238.25300  26173065.27800                  10377963.25040  26173067.34140
 96  9  7  3 56 30.0170000  0  6  3 14 18 19 22 29
   -290885.10600  29876085.60600                   -199589.43640  29876085.37240
  19124757.14600  27313051.74700                  15044636.85840  27313055.43840
  -3900339.79700  26092857.04400                  -2993895.91740  26092859.44640
  -3650494.95100  27671481.44200                  -2533670.11940  27671485.13440
   8606305.45600  27040086.33300                   6777242.59940  27040089.38040
  13335150.81100  26188462.38000                  10441011.99540  26188464.33740
 96  9  7  3 57  0.0170000  0  6  3 14 18 19 22 29
   -306808.15100  29873054.50500                   -211997.00740  29873058.16140
  19271896.03400  27341051.48900                  15159290.52540  27341055.36840
  -3896413.22500  26093604.35600                  -2990836.23540  26093606.81740
  -3660699.18400  27669538.77800                  -2541621.45540  27669542.47040
   8724614.76500  27062600.39500                   6869431.66640  27062602.66940
  13416301.69900  26203904.81700                  10504246.45040  26203906.91540
 96  9  7  3 57 30.0170000  0  6  3 14 18 19 22 29
   -322580.95800  29870052.77000                   -224287.45740  29870056.98940
  19419322.86600  27369105.46600                  15274168.58240  27369108.94640
  -3892191.57200  26094408.18400                  -2987546.63440  26094410.71640
  -3670671.62900  27667642.14500                  -2549392.15940  27667645.83740
   8843382.10100  27085200.99700                   6961977.64740  27085203.78640
  13497744.93300  26219403.41100                  10567708.70840  26219405.46240
 96  9  7  3 58  0.0170000  0  6  3 14 18 19 22 29
   -338240.56800  29867074.16100                   -236489.70940  29867076.21240
  19567013.23000  27397210.63800                  15389251.95040  27397214.23540
  -3887696.59500  26095263.19200                  -2984044.05340  26095265.72440
  -3680447.82100  27665780.86400                  -2557009.94040  27665784.32140
   8962575.38300  27107882.47400                   7054855.52140  27107885.29840
  13579472.11600  26234955.59100                  10631392.22140  26234957.58340
 96  9  7  3 58 30.0170000  0  6  3 14 18 19 22 29
   -353799.91500  29864113.09900                   -248613.88140  29864116.83740
  19714962.58500  27425364.65300                  15504537.15840  27425368.00540
  -3882942.99600  26096167.72400                  -2980339.93740  26096170.31340
  -3690061.24400  27663951.22400                  -2564500.89140  27663954.72740
   9082190.59100  27130644.34900                   7148062.17440  27130646.93840
  13661487.04600  26250562.25500                  10695299.96240  26250564.11840
 96  9  7  3 59  0.0170000  0  6  3 14 18 19 22 29
   -369238.73100  29861174.59100                   -260644.07340  29861176.98140
  19863200.03300  27453572.75500                  15620046.86840  27453576.48140
  -3877922.97900  26097122.94200                  -2976428.23240  26097125.50940
  -3699480.91300  27662158.69200                  -2571840.86740  27662162.17340
   9202241.99400  27153489.55200                   7241608.72040  27153492.21240
  13743805.68500  26266226.94200                  10759444.35040  26266229.05240
 96  9  7  3 59 30.0180000  0  6  3 14 18 19 22 29
   -384524.37600  29858265.61900                   -272554.96140  29858267.68240
  20011763.44000  27481843.76000                  15735810.53240  27481847.62740
  -3872638.35500  26098128.52500                  -2972310.33740  26098131.05740
  -3708674.11900  27660409.68200                  -2579004.38140  27660412.86940
   9322754.82200  27176422.84600                   7335514.82040  27176425.56440
  13826454.94700  26281954.54100                  10823846.37540  26281956.51040
 96  9  7  4  0  0.0180000  0  6  3 14 18 19 22 29
   -399667.87500  29855384.82200                   -284355.08940  29855386.96740
  20160634.79100  27510173.16600                  15851814.17940  27510176.09640
  -3867121.44700  26099177.94700                  -2968011.44440  26099180.67840
  -3717665.36300  27658698.29900                  -2586010.51440  27658701.93240
   9443710.23400  27199439.15800                   7429765.78640  27199441.99440
  13909411.58900  26297740.88500                  10888487.90540  26297742.91240
 96  9  7  4  0 30.0180000  0  6  3 14 18 19 22 29
   -414622.63500  29852538.14200                   -296008.10340  29852543.39240
  20309863.87000  27538569.92400                  15968096.57140  27538573.77940
  -3861337.39900  26100278.83800                  -2963504.38540  26100281.48640
  -3726412.14400  27657033.99400                  -2592826.17040  27657037.62740
   9565155.07400  27222549.38500                   7524398.12540  27222552.17440
  13992714.08400  26313592.86900                  10953398.93940  26313594.88540
 96  9  7  4  1  0.0180000  0  6  3 14 18 19 22 29
   -429396.26700  29849727.37700                   -307520.05640  29849730.97440
  20459431.62200  27567031.82200                  16084642.86040  27567035.47840
  -3855294.07000  26101429.07200                  -2958795.29340  26101431.58040
  -3734925.79700  27655414.11100                  -2599460.15440  27655417.47440
   9687066.19900  27245748.58000                   7619393.81040  27245751.06440
  14076335.60600  26329505.33000                  11018558.56440  26329507.32240
 96  9  7  4  1 30.0180000  0  6  3 14 18 19 22 29
   -444046.87200  29846938.55700                   -318936.04840  29846942.96340
  20609265.33100  27595544.41600                  16201396.38940  27595548.11940
  -3849037.07000  26102619.92400                  -2953919.70340  26102622.31440
  -3743295.68800  27653821.17400                  -2605982.12740  27653824.72440
   9809373.06800  27269023.04900                   7714697.85640  27269025.77940
  14160214.98800  26345467.15000                  11083919.12440  26345469.11940
 96  9  7  4  2  0.0180000  0  6  3 14 18 19 22 29
   -458541.20700  29844180.36900                   -330230.34440  29844183.11140
  20759391.88800  27624112.35300                  16318378.12240  27624115.96340
  -3842503.03500  26103862.91600                  -2948828.24040  26103865.50640
  -3751498.69000  27652260.22100                  -2612374.04240  27652263.78340
   9932109.30000  27292379.13500                   7810336.48240  27292382.04140
  14244394.43200  26361485.95500                  11149513.49540  26361487.67840
 96  9  7  4  2 30.0180000  0  6  3 14 18 19 22 29
   -472930.37300  29841442.61100                   -341442.63340  29841445.02540
  20909723.02700  27652719.19700                  16435519.26140  27652723.05340
  -3835754.69800  26105147.26000                  -2943569.79540  26105149.75640
  -3759601.12400  27650718.50200                  -2618687.60840  27650722.01740
  10055197.64300  27315801.86100                   7906249.47740  27315804.77940
  14328809.51200  26377549.64200                  11215291.47640  26377551.85740
 96  9  7  4  3  0.0180000  0  6  3 14 18 19 22 29
   -487174.59400  29838732.18900                   -352542.00040  29838736.95940
  21060279.60600  27681369.54900                  16552836.04940  27681373.52140
  -3828754.91400  26106479.22800                  -2938115.41240  26106481.72440
  -3767572.89100  27649201.15000                  -2624899.35740  27649204.60740
  10178671.56200  27339297.46300                   8002462.91140  27339300.53340
  14413505.33900  26393666.72100                  11281288.22340  26393668.79540
 96  9  7  4  3 30.0180000  0  6  3 14 18 19 22 29
   -501226.03900  29836058.05700                   -363491.17740  29836062.74440
  21211105.94400  27710071.04900                  16670363.07240  27710074.62340
  -3821465.65800  26107866.03300                  -2932435.46140  26107868.59940
  -3775363.25300  27647718.91600                  -2630969.75040  27647722.40840
  10302583.72600  27362877.68200                   8099017.84440  27362880.61140
  14498540.80400  26409848.33800                  11347549.62040  26409850.38940
 96  9  7  4  4  0.0180000  0  7  3 14 18 19 22 28 29
   -515149.91500  29833409.11900                   -374340.90640  29833410.71340
  21362140.18200  27738811.65000                  16788052.07940  27738815.36540
  -3813953.06400  26109296.06400                  -2926581.48040  26109298.64240
  -3783010.08700  27646263.46300                  -2636928.28640  27646266.83840
  10426879.86800  27386529.51700                   8195871.98540  27386532.29540
     13319.63410  30205133.07200                     10378.79210  30205135.33800
  14583857.90600  26426083.59600                  11414030.47740  26426085.67040
 96  9  7  4  4 30.0180000  0  7  3 14 18 19 22 28 29
   -528889.49500  29830793.89200                   -385047.07240  29830795.48640
  21513432.96300  27767601.96300                  16905942.54740  27767605.67840
  -3806166.28600  26110777.62700                  -2920513.84840  26110780.22840
  -3790449.87100  27644847.45500                  -2642725.49540  27644851.09940
  10551613.51800  27410266.42400                   8293067.03440  27410269.61140
     49969.08200  30212106.54100                     38936.83100  30212109.56000
  14669508.42800  26442382.22800                  11480771.14440  26442384.32640
 96  9  7  4  5  0.0180000  0  7  3 14 18 19 22 28 29
   -542472.38500  29828208.40000                   -395631.10940  29828210.41640
  21664989.17000  27796442.50200                  17024038.29140  27796445.83040
  -3798117.88800  26112309.44700                  -2914242.37340  26112312.00240
  -3797693.56000  27643469.61900                  -2648369.90240  27643472.97140
  10676768.54800  27434082.70500                   8390590.43440  27434085.68240
     87056.16600  30219164.65800                     67835.87500  30219167.74000
  14755471.87800  26458740.65000                  11547755.64140  26458742.70140
 96  9  7  4  5 30.0180000  0  7  3 14 18 19 22 28 29
   -555909.96100  29825652.79900                   -406101.95540  29825656.77140
  21816805.70800  27825332.04100                  17142336.87940  27825335.76740
  -3789818.84700  26113888.41600                  -2907775.57940  26113891.06440
  -3804742.88100  27642128.58000                  -2653862.85340  27642131.65040
  10802329.52100  27457976.44700                   8488430.14740  27457978.95540
    124570.87200  30226303.18200                     97068.12700  30226305.53700
  14841724.71100  26475154.08000                  11614965.63940  26475155.97840
 96  9  7  4  6  0.0180000  0  7  3 14 18 19 22 28 29
   -569197.60600  29823123.45500                   -416455.94540  29823127.55740
  21968882.29500  27854270.82200                  17260838.11440  27854274.79540
  -3781252.99300  26115518.61900                  -2901100.88140  26115521.13940
  -3811594.75900  27640824.05700                  -2659201.94940  27640827.11540
  10928294.59000  27481946.10300                   8586584.74540  27481949.02140
    162518.13300  30233525.20500                    126637.44000  30233527.36500
  14928274.02200  26491624.20500                  11682406.65540  26491626.22140
 96  9  7  4  6 30.0180000  0  7  3 14 18 19 22 28 29
   -582328.93600  29820625.04900                   -426688.12440  29820628.14240
  22121212.95800  27883258.51700                  17379537.30640  27883262.24440
  -3772436.33200  26117196.36100                  -2894230.74940  26117198.83440
  -3818276.28400  27639552.19700                  -2664408.31340  27639555.43240
  11054643.24000  27505989.84600                   8685038.24340  27505993.15040
    200897.70800  30240827.33800                    156543.60800  30240830.53700
  15015108.51100  26508147.76000                  11750069.88840  26508149.84640
 96  9  7  4  7  0.0180000  0  7  3 14 18 19 22 28 29
   -595281.11900  29818159.86900                   -436780.67940  29818162.85740
  22273801.87900  27912295.13500                  17498437.76940  27912298.75640
  -3763357.74900  26118923.79100                  -2887156.51940  26118926.24040
  -3824778.16100  27638315.18900                  -2669474.68440  27638318.75240
  11181375.73600  27530105.61900                   8783790.83340  27530108.84240
    239729.56100  30248217.70500                    186802.21200  30248220.01000
  15102245.37300  26524729.52500                  11817968.74140  26524731.52940
 96  9  7  4  7 30.0180000  0  7  3 14 18 19 22 28 29
   -608050.15500  29815730.14200                   -446730.57240  29815733.22440
  22426603.86900  27941372.56400                  17617504.24740  27941376.01040
  -3754014.05300  26120702.02500                  -2879875.71040  26120704.61540
  -3831121.71800  27637108.29100                  -2674417.69140  27637111.84240
  11308472.47100  27554291.95500                   8882827.24840  27554294.60340
    279001.51700  30255690.73600                    217403.74300  30255693.47100
  15189671.08500  26541366.26700                  11886092.66340  26541368.31840
 96  9  7  4  8  0.0180000  0  7  3 14 18 19 22 28 29
   -620575.49400  29813346.46300                   -456490.56340  29813350.17840
  22579661.86100  27970498.73600                  17736770.20440  27970502.08840
  -3744346.92100  26122541.71300                  -2872342.87340  26122544.06840
  -3837262.93800  27635939.21300                  -2679203.02940  27635942.74040
  11435974.72300  27578555.04100                   8982179.65040  27578557.49040
    318764.75600  30263256.66600                    248388.11300  30263258.97800
  15277434.80000  26558067.04100                  11954479.96940  26558069.17440
 96  9  7  4  8 30.0180000  0  7  3 14 18 19 22 28 29
   -632876.81700  29811006.54100                   -466075.99440  29811009.20140
  22732948.75000  27999668.18200                  17856214.53340  27999671.59240
  -3734386.22300  26124436.84600                  -2864581.27440  26124439.24840
  -3843234.60200  27634803.22100                  -2683856.24840  27634806.80740
  11563844.82800  27602887.47800                   9081818.69240  27602890.09240
    358987.74600  30270911.33800                    279730.69300  30270913.81400
  15365497.41700  26574824.62700                  12023100.18740  26574826.60740
 96  9  7  4  9  0.0180000  0  7  3 14 18 19 22 28 29
   -644967.65600  29808705.01700                   -475497.37840  29808709.89240
  22886441.92800  28028876.74400                  17975819.60940  28028880.83440
  -3724132.95000  26126387.90000                  -2856591.70940  26126390.34940
  -3849039.98400  27633698.19700                  -2688379.89940  27633701.76040
  11692074.31200  27627288.24400                   9181737.76740  27627290.90440
    399651.90600  30278649.86900                    311417.07000  30278651.95500
  15453845.91900  26591636.49400                  12091943.17140  26591638.69740
 96  9  7  4  9 30.0180000  0  7  3 14 18 19 22 28 29
   -656773.61900  29806458.60300                   -484696.84240  29806461.86140
  23040230.66100  28058141.68900                  18095654.95840  28058145.60340
  -3713502.93500  26128411.12700                  -2848308.58040  26128413.56440
  -3854599.51200  27632640.33000                  -2692711.97740  27632644.22140
  11820752.66500  27651775.48600                   9282006.61940  27651778.67440
    440835.04900  30286486.39200                    343507.86100  30286488.51400
  15542563.39900  26608519.38500                  12161073.66840  26608521.41240
 96  9  7  4 10  0.0180000  0  7  3 14 18 19 22 28 29
   -668441.96300  29804237.52500                   -493789.04340  29804241.07640
  23194188.26600  28087438.96300                  18215621.93040  28087443.01740
  -3702651.67300  26130475.83800                  -2839853.05340  26130478.35740
  -3860036.82900  27631605.32200                  -2696948.81840  27631608.73240
  11949740.95800  27676320.71300                   9382516.96840  27676323.64240
    482396.87300  30294394.65800                    375893.70200  30294398.07600
  15631528.78200  26625448.84600                  12230397.33840  26625450.89640
 96  9  7  4 10 30.0180000  0  7  3 14 18 19 22 28 29
   -679867.42000  29802063.90800                   -502691.99740  29802067.88140
  23348416.96800  28116787.87700                  18335800.13540  28116791.66240
  -3691476.40300  26132602.40000                  -2831145.04840  26132604.83840
  -3865231.43700  27630616.83000                  -2700996.54240  27630620.21740
  12079157.39200  27700948.01000                   9483360.94340  27700951.23240
    524446.65800  30302397.29100                    408659.76500  30302399.55300
  15720860.14900  26642448.09600                  12300006.19440  26642450.17040
 96  9  7  4 11  0.0180000  0  7  3 14 18 19 22 28 29
   -691088.70500  29799927.61100                   -511435.80440  29799931.49040
  23502873.34900  28146179.59600                  18456155.76040  28146183.04140
  -3679999.91700  26134786.40800                  -2822202.32940  26134788.83440
  -3870209.16700  27629669.89200                  -2704875.26640  27629673.38540
  12208969.41800  27725650.76000                   9584513.16840  27725653.65440
    566958.38800  30310487.04100                    441785.83000  30310489.74000
  15810535.26900  26659512.98600                  12369882.88940  26659515.01440
 96  9  7  4 11 30.0180000  0  7  3 14 18 19 22 28 29
   -702101.35400  29797832.79100                   -520017.09840  29797834.90040
  23657572.64000  28175617.95500                  18576700.62840  28175622.46740
  -3668208.28700  26137030.16600                  -2813014.04440  26137032.58040
  -3874962.90000  27628765.39200                  -2708579.44040  27628769.30740
  12339184.77500  27750430.26000                   9685979.67340  27750432.72140
    609951.81900  30318668.21300                    475287.20700  30318670.04500
  15900572.11800  26676646.11900                  12440041.46940  26676648.04140
 96  9  7  4 12  0.0180000  0  7  3 14 18 19 22 28 29
   -712863.50700  29795784.82200                   -528403.16440  29795787.06040
  23812534.86900  28205106.88500                  18697450.42340  28205110.29540
  -3656074.25000  26139339.39200                  -2803558.94540  26139341.78340
  -3879465.56600  27627908.11900                  -2712087.99240  27627911.64640
  12469837.55800  27775292.04900                   9787787.02640  27775294.38140
    653462.11100  30326948.26700                    509191.34700  30326950.31000
  15990987.59200  26693851.82200                  12510495.08540  26693853.92040
 96  9  7  4 12 30.0180000  0  8  3 14 18 19 22 27 28 29
   -723393.76300  29793781.22100                   -536608.55440  29793783.89240
  23967734.63600  28234640.08800                  18818385.30440  28234644.08440
  -3643610.22300  26141710.89200                  -2793846.71140  26141713.31840
  -3883765.18000  27627090.08000                  -2715438.30940  27627093.83040
  12600901.77800  27800233.18200                   9889915.00140  27800236.04140
    -10525.78710  30678469.15800
    697468.83600  30335322.09600                    543482.31600  30335323.77900
  16081733.53500  26711119.93200                  12581206.20140  26711121.81840
 96  9  7  4 13  0.0180000  0  8  3 14 18 19 22 27 28 29
   -733763.25400  29791807.40800                   -544688.66740  29791810.99440
  24123102.51400  28264205.16600                  18939451.17340  28264209.09240
  -3630890.13400  26144131.54100                  -2783934.95240  26144134.00240
  -3887964.57000  27626291.32200                  -2718710.53740  27626294.51040
  12732295.60600  27825236.26000                   9992299.80440  27825238.70940
     -4780.99410  30673003.55700
    741898.58600  30343776.59600                    578102.91100  30343779.52900
  16172727.67900  26728435.73600                  12652110.72040  26728437.76440
 96  9  7  4 13 30.0180000  0  8  3 14 18 19 22 27 28 29
   -743875.81500  29789883.08800                   -552568.55240  29789887.24840
  24278728.93800  28293820.28300                  19060718.51640  28293823.81040
  -3617845.91400  26146613.79900                  -2773770.61940  26146616.31840
  -3891985.75100  27625526.03300                  -2721843.90440  27625529.43240
  12864111.59900  27850320.47100                  10095013.55140  27850322.83840
    -33420.62900  30667555.82200
    786834.32900  30352328.21300                    613117.79100  30352329.88100
  16264048.86400  26745813.58000                  12723270.08240  26745815.61940
 96  9  7  4 14  0.0190000  0  8  3 14 18 19 22 27 28 29
   -753798.51200  29787994.82700                   -560300.51340  29787999.67940
  24434526.90500  28323467.67900                  19182119.53740  28323471.27640
  -3604565.88200  26149140.85000                  -2763422.53540  26149143.32340
  -3895909.83300  27624778.86600                  -2724901.61240  27624782.08940
  12996262.82400  27875467.71000                  10197988.54340  27875470.15940
    -21956.01710  30662103.92100
    832191.53000  30360958.35800                    648461.04900  30360961.41700
  16355613.65900  26763237.75700                  12794619.26940  26763240.00740
 96  9  7  4 14 30.0190000  0  8  3 14 18 19 22 27 28 29
   -763454.15900  29786157.39000                   -567824.35440  29786160.36640
  24590570.98700  28353161.65500                  19303712.31840  28353165.21840
  -3590962.37800  26151729.37400                  -2752822.39440  26151731.88240
  -3899654.83200  27624066.60000                  -2727819.76540  27624070.08140
  13128800.19200  27900688.53800                  10301264.40940  27900691.22240
     -4755.99210  30656666.03800
    878045.50000  30369684.96800                    684191.45000  30369686.75300
  16447512.50200  26780725.40500                  12866228.75140  26780727.49140
 96  9  7  4 15  0.0190000  0  8  3 14 18 19 22 27 28 29
   -772873.31100  29784365.14700                   -575163.94140  29784369.02640
  24746826.51300  28382896.59300                  19425469.86340  28382899.99140
  -3577076.59000  26154372.19400                  -2742002.29640  26154374.63240
  -3903230.64200  27623386.10000                  -2730606.09240  27623389.31140
  13261691.97000  27925977.16300                  10404816.43240  27925979.99940
    -16142.61410  30651243.87400
    924366.15800  30378498.62400                    720285.48100  30378501.97200
  16539733.18100  26798274.74100                  12938089.01740  26798276.62840
 96  9  7  4 15 30.0190000  0  8  3 14 18 19 22 27 28 29
   -782043.16000  29782620.37400                   -582309.30740  29782621.55740
  24903298.82600  28412671.90500                  19547396.34740  28412675.66740
  -3562893.40200  26157070.97500                  -2730950.45840  26157073.43640
  -3906595.59500  27622745.57700                  -2733228.09640  27622748.85840
  13394944.61300  27951333.92900                  10508649.65540  27951336.81140
    -44573.43100  30645832.09300
    971169.57000  30387405.96800                    756755.69200  30387407.81900
  16632304.56200  26815890.53800                  13010222.55140  26815892.37840
 96  9  7  4 16  0.0190000  0  8  3 14 18 19 22 27 28 29
   -790963.00800  29780923.30400                   -589259.81340  29780925.23740
  25059985.57800  28442488.49900                  19669489.90740  28442491.95640
  -3548387.06600  26159831.40500                  -2719646.81640  26159833.87840
  -3909733.02500  27622148.56900                  -2735672.82540  27622151.72240
  13528541.48200  27976756.81100                  10612751.11440  27976759.88240
    -72925.44600  30640438.37400
   1018460.81800  30396404.74900                    793606.01000  30396407.46400
  16725232.24100  26833573.79600                  13082633.72640  26833576.08140
 96  9  7  4 16 30.0190000  0  8  3 14 18 19 22 27 28 29
   -799636.64400  29779272.57700                   -596018.46140  29779278.77640
  25216884.41900  28472345.56100                  19791748.74640  28472348.84340
  -3533553.31100  26162654.39700                  -2708088.03840  26162656.83540
  -3912636.20600  27621595.89700                  -2737935.02040  27621599.20240
  13662488.80300  28002246.45200                  10717125.65440  28002249.30040
   -101205.61600  30635056.17100
   1066240.27200  30405496.97500                    830836.78000  30405499.10000
  16818512.01400  26851324.44400                  13155319.25940  26851326.36640
 96  9  7  4 17  0.0190000  0  8  3 14 18 19 22 27 28 29
   -808090.49400  29777662.97500                   -602605.86240  29777665.22540
  25373955.83500  28502235.03000                  19914142.05040  28502238.71040
  -3518419.54400  26165533.96800                  -2696295.48740  26165536.51140
  -3915325.96600  27621084.24100                  -2740030.92140  27621087.25340
  13796767.79500  28027798.24900                  10821758.63040  28027801.06140
   -129453.93800  30629682.95200                     -2932.87250  30629684.72240
   1114483.20800  30414676.80400                    868428.67600  30414680.71000
  16912105.02700  26869134.52200                  13228248.87040  26869136.59740
 96  9  7  4 17 30.0190000  0  8  3 14 18 19 22 27 28 29
   -816337.44100  29776094.92100                   -609032.04940  29776096.67940
  25531177.03100  28532153.67100                  20036652.06840  28532157.63240
  -3502970.41300  26168474.11600                  -2684257.19840  26168476.51840
  -3917824.50800  27620608.75700                  -2741977.80840  27620611.97940
  13931364.21100  28053411.42100                  10926638.96540  28053414.69040
   -157678.52900  30624308.25700                    -24926.09940  30624308.60840
   1163176.02300  30423943.16300                    906371.13300  30423945.00300
  17005989.25300  26887000.04600                  13301405.39640  26887002.13240
 96  9  7  4 18  0.0190000  0  9  3 14 18 19 22 27 28 29 31
   -824263.19800  29774585.53000                   -615207.99440  29774588.81140
  25688650.57900  28562119.72500                  20159358.72240  28562123.81540
  -3487093.49800  26171495.21800                  -2671885.56940  26171497.60840
  -3920038.01900  27620187.50700                  -2743702.60540  27620190.55440
  14066388.30700  28079105.60000                  11031852.53740  28079108.60040
   -185783.30400  30618962.17900                    -46825.72140  30618962.24940
   1212422.13200  30433314.31900                    944744.72400  30433317.00700
  17100244.16200  26904936.06900                  13374850.77240  26904938.40140
                  30412462.64000
 96  9  7  4 18 30.0190000  0  9  3 14 18 19 22 27 28 29 31
   -831931.26800  29773126.05400                   -621183.07440  29773129.59340
  25846310.34600  28592121.15500                  20282210.50240  28592125.02240
  -3470867.95400  26174582.78800                  -2659242.28340  26174585.17940
  -3922051.53700  27619804.27200                  -2745271.55740  27619807.53040
  14201786.81000  28104870.67100                  11137357.85740  28104873.49540
   -213845.08800  30613620.85000                    -68692.05240  30613618.37840
   1262155.65800  30442778.58500                    983498.15000  30442780.73300
  17194799.90200  26922929.49100                  13448530.56040  26922931.58940
    -36676.41200  30405242.23300
 96  9  7  4 19  0.0190000  0  9  3 14 18 19 22 27 28 29 31
   -839330.90800  29771719.26500                   -626948.99040  29771721.80740
  26004169.22900  28622160.25700                  20405217.41240  28622164.39340
  -3454281.99900  26177738.70200                  -2646318.15540  26177741.23340
  -3923879.34000  27619456.41300                  -2746695.81340  27619459.51840
  14337556.57400  28130707.00700                  11243152.49440  28130710.05440
   -241860.64400  30608290.21800                    -90522.18440  30608296.78040
   1312381.30700  30452335.73300                   1022635.01800  30452337.49100
  17289661.77800  26940981.14700                  13522448.90740  26940983.32740
    -74670.09400  30398014.08500
 96  9  7  4 19 30.0190000  0  9  3 14 18 19 22 27 28 29 31
   -846483.15900  29770357.04600                   -632522.18140  29770361.61640
  26162207.25800  28652234.13200                  20528363.89940  28652239.00740
  -3437369.23900  26180957.55400                  -2633139.38240  26180959.95640
  -3925555.74100  27619137.45200                  -2748002.07140  27619140.94440
  14473661.25200  28156607.37400                  11349208.08740  28156610.23340
   -269853.70700  30602963.11600
   1363066.59900  30461980.89700                   1062130.06400  30461983.25700
  17384808.21100  26959086.90500                  13596588.97840  26959088.94440
   -112746.34700  30390765.73300
 96  9  7  4 20  0.0190000  0  9  3 14 18 19 22 27 28 29 31
   -853348.02700  29769050.92100                   -637871.47140  29769053.82740
  26320455.75800  28682348.39700                  20651674.40140  28682351.74940
  -3420125.74300  26184238.51500                  -2619702.88740  26184241.05740
  -3927054.21200  27618852.52200                  -2749169.69040  27618855.83940
  14610119.73200  28182574.81100                  11455539.37040  28182577.44840
   -297798.59500  30597646.22500
   1414239.86300  30471719.21800                   1102005.35100  30471721.70200
  17480272.57200  26977253.03000                  13670976.78440  26977255.28040
   -150874.16900  30383512.48300
 96  9  7  4 20 30.0190000  0  9  3 14 18 19 22 27 28 29 31
   -859900.22700  29767805.14700                   -642977.00540  29767810.50340
  26478934.71300  28712505.70200                  20775164.51440  28712509.05440
  -3402533.95600  26187586.24100                  -2605994.98940  26187588.74940
  -3928345.22600  27618606.66300                  -2750175.65640  27618610.05040
  14746945.89000  28208611.40500                  11562157.17440  28208614.21840
   -325678.03200  30592338.62400                     -1446.18850  30592345.58940
   1465928.36300  30481554.98300                   1142282.11000  30481556.80700
  17576117.14400  26995491.58500                  13745660.86440  26995493.46040
   -189012.57200  30376254.38200
 96  9  7  4 21  0.0190000  0  9  3 14 18 19 22 27 28 29 31
   -866161.23600  29766613.10000                   -647855.73240  29766616.12440
  26637595.55800  28742697.79600                  20898796.33140  28742701.14740
  -3384618.65900  26190995.28000                  -2592035.01640  26190997.64740
  -3929441.67600  27618397.58500                  -2751030.01640  27618400.57340
  14884096.33500  28234710.14700                  11669027.65740  28234712.87840
   -353511.52100  30587040.78000                    -23134.59540  30587051.21440
   1518105.63300  30491484.21800                   1182939.72500  30491486.22900
  17672328.72200  27013800.12400                  13820630.91340  27013802.21040
   -227171.56100  30368992.39700                     -9907.71150  30368995.08140
 96  9  7  4 21 30.0190000  0  9  3 14 18 19 22 27 28 29 31
   -872089.64000  29765484.65500                   -652475.24440  29765489.47240
  26796447.32000  28772926.17900                  21022576.91440  28772930.05740
  -3366343.62600  26194473.25700                  -2577794.72440  26194475.60040
  -3930286.39900  27618237.00700                  -2751688.20640  27618240.38240
  15021605.79700  28260877.67900                  11776177.88940  28260880.01140
   -381242.81200  30581766.73300                    -44743.22940  30581772.68640
   1570815.29300  30501514.21000                   1224012.19400  30501516.74100
  17768959.22300  27032188.61600                  13895927.39740  27032190.56140
   -265293.32400  30361739.13200                    -39612.97340  30361741.59340
 96  9  7  4 22  0.0190000  0  9  3 14 18 19 22 27 28 29 31
   -877779.97900  29764402.39000                   -656909.30140  29764405.19040
  26955381.03700  28803170.14000                  21146421.36540  28803173.77240
  -3347801.35500  26198001.35800                  -2563346.20440  26198003.66740
  -3930992.10400  27618102.94400                  -2752238.08140  27618106.42540
  15159371.36500  28287093.85800                  11883527.68440  28287096.31940
   -408971.69600  30576488.77200                    -66350.11240  30576494.17540
   1623961.17800  30511627.25700                   1265424.58200  30511630.53400
  17865902.14000  27050636.19400                  13971467.33140  27050638.17540
   -303486.19100  30354471.39000                    -69373.63440  30354475.33940
 96  9  7  4 22 30.0190000  0  9  3 14 18 19 22 27 28 29 31
   -883159.20000  29763378.60800                   -661100.85540  29763382.20640
  27114483.30400  28833446.42100                  21270397.14640  28833449.08140
  -3328910.08400  26201596.28800                  -2548625.72840  26201598.55040
  -3931478.09900  27618009.99100                  -2752616.77140  27618013.41340
  15297474.88100  28313373.71000                  11991140.82240  28313376.18240
   -436616.12400  30571230.69400                    -87891.09540  30571231.31540
   1677623.08300  30521838.53000                   1307239.07700  30521841.06100
  17963223.31900  27069156.10000                  14047302.00340  27069157.91740
   -341675.82600  30347202.90500                    -99131.78240  30347206.69040
 96  9  7  4 23  0.0190000  0  9  3 14 18 19 22 27 28 29 31
   -888256.24000  29762408.16300                   -665072.53140  29762411.72540
  27273731.00800  28863750.05400                  21394486.25240  28863753.08940
  -3309693.75300  26205253.24900                  -2533651.96440  26205255.58140
  -3931775.40000  27617953.85800                  -2752848.40940  27617957.31540
  15435886.26400  28339712.17900                  12098993.86840  28339715.02640
   -464181.12800  30565982.85000                   -109370.31140  30565978.89040
   1731770.34200  30532143.98300                   1349431.73700  30532144.99900
  18060855.41400  27087734.31100                  14123378.95740  27087736.53840
   -379898.36900  30339929.99900                   -128915.62440  30339933.85440
 96  9  7  4 23 30.0190000  0  9  3 14 18 19 22 27 28 29 31
   -893053.99600  29761495.31900                   -668811.05640  29761496.87840
  27433170.15500  28894091.67900                  21518724.55840  28894094.76140
  -3290121.56700  26208977.78800                  -2518400.91040  26208980.17940
  -3931864.85400  27617936.39700                  -2752918.08940  27617939.79640
  15574629.95500  28366114.48300                  12207105.83840  28366116.95640
   -491654.50400  30560755.97500                   -130778.05940  30560758.39040
   1786424.66100  30542543.67900                   1392019.52900  30542545.73700
  18158798.94500  27106372.67900                  14199698.58040  27106374.58940
   -418136.68900  30332653.34300                   -158711.66740  30332659.61240
 96  9  7  4 24  0.0190000  0  9  3 14 18 19 22 27 28 29 31
   -897545.25000  29760641.13200                   -672310.67340  29760643.73340
  27592822.70600  28924471.58500                  21643129.14240  28924474.08140
  -3270193.95200  26212769.73300                  -2502872.89240  26212772.08940
  -3931742.27900  27617960.44400                  -2752822.55740  27617963.46840
  15713708.54800  28392580.69400                  12315478.78440  28392582.99140
   -519050.58400  30555541.12400                   -152125.59840  30555545.09740
   1841587.79300  30553040.06100                   1435003.81300  30553043.25300
  18257037.64300  27125066.69400                  14276248.21640  27125068.68640
   -456401.11600  30325372.06900                   -188528.13540  30325376.35840
 96  9  7  4 24 30.0190000  0  9  3 14 18 19 22 27 28 29 31
   -901758.75800  29759838.50700                   -675593.96340  29759840.62840
  27752651.07200  28954885.21000                  21767670.70140  28954889.17140
  -3249937.88100  26216624.19400                  -2487088.93940  26216626.57340
  -3931419.90700  27618021.34300                  -2752571.35140  27618024.47240
  15853098.57700  28419106.17900                  12424094.38440  28419108.96840
   -546400.54500  30550337.95200                   -173437.20740  30550342.79240
   1897230.08000  30563628.68600                   1478361.42500  30563630.58900
  18355547.89000  27143812.85800                  14353009.43640  27143815.05040
   -494710.14400  30318082.16300                   -218379.25140  30318085.19840
 96  9  7  4 25  0.0190000  0  9  3 14 18 19 22 27 28 29 31
   -905585.07500  29759111.10800                   -678575.44140  29759114.35440
  27912734.04800  28985348.67100                  21892410.66340  28985352.53840
  -3229236.48300  26220564.03000                  -2470957.97840  26220566.49140
  -3930809.72000  27618137.50700                  -2752095.86240  27618140.60040
  15992895.93000  28445707.64700                  12533027.39840  28445710.43640
   -573613.23100  30545158.75700                   -194641.74240  30545164.68640
   1953450.32800  30574327.35000                   1522169.44200  30574330.03800
  18454441.96000  27162631.50700                  14430069.75640  27162633.34740
   -532961.18200  30310803.59300                   -248185.24040  30310804.68240
 96  9  7  4 25 30.0190000  0  9  3 14 18 19 22 27 28 29 31
   -909171.87900  29758428.53000                   -681370.35440  29758431.49540
  28072903.03600  29015827.70200                  22017217.67340  29015831.07740
  -3208240.82900  26224559.15500                  -2454597.72040  26224561.58140
  -3930068.43200  27618278.28000                  -2751518.21640  27618281.77240
  16132944.02500  28472358.06900                  12642155.79840  28472361.29240
   -600860.04200  30539974.83500                   -215872.99340  30539980.50740
   2010094.89000  30585105.69400                   1566308.03200  30585107.99100
  18553589.12800  27181498.99100                  14507327.26340  27181500.94840
   -571306.59900  30303506.31100                   -278064.77740  30303509.52240
 96  9  7  4 26  0.0190000  0  9  3 14 18 19 22 27 28 29 31
   -912440.24800  29757805.46000                   -683917.11940  29757808.81140
  28233209.00200  29046333.19400                  22142131.41640  29046337.00340
  -3186899.57100  26228620.50700                  -2437968.16540  26228622.90940
  -3929148.01600  27618453.49100                  -2750800.97940  27618456.28040
  16273302.88800  28499067.33500                  12751526.34840  28499070.08940
   -628064.37100  30534795.60000                   -237071.08340  30534801.96440
   2067226.35600  30595978.51500                   1610826.08100  30595980.99100
  18653069.74300  27200428.96000                  14584844.62840  27200431.02240
   -609683.62700  30296203.24100                   -307968.90140  30296206.60440
 96  9  7  4 26 30.0190000  0  9  3 14 18 19 22 27 28 29 31
   -915386.39300  29757246.26500                   -686212.79940  29757248.92540
  28393660.87400  29076865.86600                  22267158.82340  29076870.24940
  -3165193.68900  26232750.64000                  -2421054.49240  26232753.04240
  -3928049.64500  27618662.58500                  -2749945.08540  27618665.70240
  16413986.80400  28525839.48300                  12861150.18340  28525841.74540
   -655210.05200  30529634.35000                   -258223.41940  30529638.83940
   2124855.65300  30606944.42900                   1655732.05200  30606946.42900
  18752917.63700  27219429.63200                  14662648.17940  27219431.77640
   -648065.82900  30288899.35800                   -337877.13140  30288905.10040
 96  9  7  4 27  0.0190000  0  9  3 14 18 19 22 27 28 29 31
   -917989.75000  29756750.07700                   -688241.35640  29756753.19440
  28554290.78400  29107432.73300                  22392324.98840  29107435.96840
  -3143098.12000  26236955.30400                  -2403837.15940  26236957.64740
  -3926751.67600  27618909.82700                  -2748933.66840  27618913.03840
  16555002.91000  28552673.13200                  12971032.88440  28552676.29640
   -682263.63300  30524485.04600                   -279304.09640  30524489.08940
   2183012.89900  30618012.03000                   1701049.38300  30618014.19400
  18853162.68800  27238505.68600                  14740761.19740  27238507.84340
   -686414.10600  30281602.14000                   -367758.86640  30281605.72540
 96  9  7  4 27 30.0190000  0  9  3 14 18 19 22 27 28 29 31
   -920279.85500  29756315.21800                   -690025.86040  29756316.74140
  28715078.82600  29138029.61600                  22517614.37640  29138032.11240
  -3120647.29600  26241227.85800                  -2386343.00640  26241230.33140
  -3925274.79100  27619191.32700                  -2747782.83640  27619194.22240
  16696321.44500  28579564.72500                  13081151.22140  28579568.01840
   -709241.70300  30519351.17900                   -300325.92340  30519355.57340
   2241675.99000  30629173.85000                   1746760.89000  30629177.12400
  18953768.59600  27257650.41300                  14819155.40540  27257652.65140
   -724737.46500  30274309.28800                   -397621.17040  30274311.14040
